<?xml version='1.0' encoding='UTF-8'?><gpx version="1.1" creator="JPX - https://github.com/jenetics/jpx" xmlns="http://www.topografix.com/GPX/1/1"><trk><trkseg><trkpt lat="44.91405951490779" lon="8.983790409990052"><ele>157.0</ele><time>2026-05-02T13:22:39Z</time></trkpt><trkpt lat="44.91412953943482" lon="8.983794801380219"><ele>157.0</ele><time>2026-05-02T13:22:40Z</time></trkpt><trkpt lat="44.914242438524" lon="8.983750732753665"><ele>157.0</ele><time>2026-05-02T13:22:41Z</time></trkpt><trkpt lat="44.91436698079598" lon="8.98373236307179"><ele>157.0</ele><time>2026-05-02T13:22:42Z</time></trkpt><trkpt lat="44.914511284050576" lon="8.983730127479781"><ele>156.75</ele><time>2026-05-02T13:22:43Z</time></trkpt><trkpt lat="44.91465448262839" lon="8.983734325059139"><ele>156.5</ele><time>2026-05-02T13:22:44Z</time></trkpt><trkpt lat="44.91475777260246" lon="8.983748862083525"><ele>156.25</ele><time>2026-05-02T13:22:45Z</time></trkpt><trkpt lat="44.91486361127331" lon="8.983768291648701"><ele>156.0</ele><time>2026-05-02T13:22:46Z</time></trkpt><trkpt lat="44.914969426005776" lon="8.983789328213678"><ele>155.75</ele><time>2026-05-02T13:22:47Z</time></trkpt><trkpt lat="44.915076140441755" lon="8.983812251628665"><ele>155.5</ele><time>2026-05-02T13:22:48Z</time></trkpt><trkpt lat="44.915187744755585" lon="8.983824989097114"><ele>155.25</ele><time>2026-05-02T13:22:49Z</time></trkpt><trkpt lat="44.91530439812892" lon="8.983801645858374"><ele>155.0</ele><time>2026-05-02T13:22:50Z</time></trkpt><trkpt lat="44.91541718107941" lon="8.983729132918517"><ele>155.0</ele><time>2026-05-02T13:22:51Z</time></trkpt><trkpt lat="44.915532925275556" lon="8.983630041186363"><ele>155.0</ele><time>2026-05-02T13:22:52Z</time></trkpt><trkpt lat="44.915644449214454" lon="8.983510441172982"><ele>155.0</ele><time>2026-05-02T13:22:53Z</time></trkpt><trkpt lat="44.91573698058188" lon="8.983415237000367"><ele>155.0</ele><time>2026-05-02T13:22:54Z</time></trkpt><trkpt lat="44.915819147083624" lon="8.98333708221083"><ele>155.0</ele><time>2026-05-02T13:22:55Z</time></trkpt><trkpt lat="44.915898854452934" lon="8.983218878171455"><ele>155.0</ele><time>2026-05-02T13:22:56Z</time></trkpt><trkpt lat="44.91597944476089" lon="8.983095225631743"><ele>155.0</ele><time>2026-05-02T13:22:57Z</time></trkpt><trkpt lat="44.916031597467644" lon="8.983011213388162"><ele>155.0</ele><time>2026-05-02T13:22:58Z</time></trkpt><trkpt lat="44.91607568530745" lon="8.982946734394325"><ele>155.0</ele><time>2026-05-02T13:22:59Z</time></trkpt><trkpt lat="44.91615988314296" lon="8.982827637191695"><ele>155.0</ele><time>2026-05-02T13:23:01Z</time></trkpt><trkpt lat="44.91619349530612" lon="8.98274693876986"><ele>155.0</ele><time>2026-05-02T13:23:11Z</time></trkpt><trkpt lat="44.91609150157284" lon="8.982550041579522"><ele>155.0</ele><time>2026-05-02T13:23:13Z</time></trkpt><trkpt lat="44.91604914263041" lon="8.982443986537156"><ele>155.0</ele><time>2026-05-02T13:23:14Z</time></trkpt><trkpt lat="44.91598530239413" lon="8.982448354992318"><ele>155.0</ele><time>2026-05-02T13:23:15Z</time></trkpt><trkpt lat="44.91588761836427" lon="8.982422585053781"><ele>155.0</ele><time>2026-05-02T13:23:17Z</time></trkpt><trkpt lat="44.915946716682306" lon="8.98225344342979"><ele>155.0</ele><time>2026-05-02T13:23:40Z</time></trkpt><trkpt lat="44.91584160191172" lon="8.982365355381207"><ele>155.0</ele><time>2026-05-02T13:23:45Z</time></trkpt><trkpt lat="44.915947162330255" lon="8.98225427246606"><ele>155.0</ele><time>2026-05-02T13:23:55Z</time></trkpt><trkpt lat="44.91583636826528" lon="8.982370436340391"><ele>155.0</ele><time>2026-05-02T13:24:15Z</time></trkpt><trkpt lat="44.91594666072651" lon="8.98225333932581"><ele>155.0</ele><time>2026-05-02T13:24:19Z</time></trkpt><trkpt lat="44.91583775143308" lon="8.982369846951418"><ele>155.0</ele><time>2026-05-02T13:24:22Z</time></trkpt><trkpt lat="44.915949439175776" lon="8.982258508075546"><ele>155.0</ele><time>2026-05-02T13:25:35Z</time></trkpt><trkpt lat="44.91583082803709" lon="8.982375901941086"><ele>155.0</ele><time>2026-05-02T13:26:03Z</time></trkpt><trkpt lat="44.91594668464115" lon="8.982253383772282"><ele>155.0</ele><time>2026-05-02T13:26:09Z</time></trkpt><trkpt lat="44.915831006446915" lon="8.982377982068432"><ele>155.0</ele><time>2026-05-02T13:26:12Z</time></trkpt><trkpt lat="44.91594186212197" lon="8.982244412498806"><ele>155.0</ele><time>2026-05-02T13:26:38Z</time></trkpt><trkpt lat="44.915827872515415" lon="8.982362461905504"><ele>155.0</ele><time>2026-05-02T13:26:41Z</time></trkpt><trkpt lat="44.91594094588693" lon="8.982242707987721"><ele>155.0</ele><time>2026-05-02T13:27:01Z</time></trkpt><trkpt lat="44.915825019006824" lon="8.98236314001064"><ele>155.0</ele><time>2026-05-02T13:27:14Z</time></trkpt><trkpt lat="44.91581970909035" lon="8.982270485131487"><ele>155.0</ele><time>2026-05-02T13:27:38Z</time></trkpt><trkpt lat="44.91590898659257" lon="8.982266850576194"><ele>155.0</ele><time>2026-05-02T13:27:42Z</time></trkpt><trkpt lat="44.915954605400835" lon="8.982334356875471"><ele>154.6</ele><time>2026-05-02T13:27:43Z</time></trkpt><trkpt lat="44.91599541241212" lon="8.982435830254335"><ele>154.2</ele><time>2026-05-02T13:27:44Z</time></trkpt><trkpt lat="44.916052225354264" lon="8.982527712767537"><ele>153.8</ele><time>2026-05-02T13:27:45Z</time></trkpt><trkpt lat="44.916109950692274" lon="8.982640251867346"><ele>153.4</ele><time>2026-05-02T13:27:46Z</time></trkpt><trkpt lat="44.91618378728202" lon="8.982772569041707"><ele>153.0</ele><time>2026-05-02T13:27:47Z</time></trkpt><trkpt lat="44.91626075233962" lon="8.98290393059331"><ele>153.0</ele><time>2026-05-02T13:27:48Z</time></trkpt><trkpt lat="44.91634474488079" lon="8.983068722555926"><ele>153.0</ele><time>2026-05-02T13:27:49Z</time></trkpt><trkpt lat="44.916426029884576" lon="8.983234072953849"><ele>153.0</ele><time>2026-05-02T13:27:50Z</time></trkpt><trkpt lat="44.91651616102303" lon="8.983397615353224"><ele>153.0</ele><time>2026-05-02T13:27:51Z</time></trkpt><trkpt lat="44.916591560371224" lon="8.983536759657797"><ele>153.5</ele><time>2026-05-02T13:27:52Z</time></trkpt><trkpt lat="44.91666926907669" lon="8.983682572022081"><ele>154.0</ele><time>2026-05-02T13:27:53Z</time></trkpt><trkpt lat="44.91674904055388" lon="8.983837196288974"><ele>154.5</ele><time>2026-05-02T13:27:54Z</time></trkpt><trkpt lat="44.91684025365867" lon="8.98401430547736"><ele>155.0</ele><time>2026-05-02T13:27:55Z</time></trkpt><trkpt lat="44.916933699635145" lon="8.984190391117853"><ele>156.66666666666666</ele><time>2026-05-02T13:27:56Z</time></trkpt><trkpt lat="44.91703423474434" lon="8.984372626943886"><ele>158.33333333333334</ele><time>2026-05-02T13:27:57Z</time></trkpt><trkpt lat="44.91713516725689" lon="8.98455819089441"><ele>160.0</ele><time>2026-05-02T13:27:58Z</time></trkpt><trkpt lat="44.917238570412636" lon="8.984754173919548"><ele>160.0</ele><time>2026-05-02T13:27:59Z</time></trkpt><trkpt lat="44.91733457840236" lon="8.98493614049391"><ele>160.0</ele><time>2026-05-02T13:28:00Z</time></trkpt><trkpt lat="44.91742035566577" lon="8.98508475957016"><ele>160.0</ele><time>2026-05-02T13:28:01Z</time></trkpt><trkpt lat="44.917501964806384" lon="8.985236999667594"><ele>160.0</ele><time>2026-05-02T13:28:02Z</time></trkpt><trkpt lat="44.91759037582533" lon="8.985403826393012"><ele>160.25</ele><time>2026-05-02T13:28:03Z</time></trkpt><trkpt lat="44.91769042344824" lon="8.985575001527122"><ele>160.5</ele><time>2026-05-02T13:28:04Z</time></trkpt><trkpt lat="44.91777856594051" lon="8.985721010451412"><ele>160.75</ele><time>2026-05-02T13:28:05Z</time></trkpt><trkpt lat="44.9178601566945" lon="8.985839430150179"><ele>161.0</ele><time>2026-05-02T13:28:06Z</time></trkpt><trkpt lat="44.91793737537988" lon="8.985932312273073"><ele>161.20000000000002</ele><time>2026-05-02T13:28:07Z</time></trkpt><trkpt lat="44.918009540539664" lon="8.986018865772122"><ele>161.4</ele><time>2026-05-02T13:28:08Z</time></trkpt><trkpt lat="44.91808630222436" lon="8.986123446021775"><ele>161.6</ele><time>2026-05-02T13:28:09Z</time></trkpt><trkpt lat="44.91816148095204" lon="8.986231466427611"><ele>161.8</ele><time>2026-05-02T13:28:10Z</time></trkpt><trkpt lat="44.91821766065373" lon="8.986320532321276"><ele>162.0</ele><time>2026-05-02T13:28:11Z</time></trkpt><trkpt lat="44.91824905605429" lon="8.986406562300926"><ele>162.0</ele><time>2026-05-02T13:28:12Z</time></trkpt><trkpt lat="44.918240678375696" lon="8.986496150470382"><ele>162.0</ele><time>2026-05-02T13:28:13Z</time></trkpt><trkpt lat="44.91820840795033" lon="8.986582557512943"><ele>162.0</ele><time>2026-05-02T13:28:14Z</time></trkpt><trkpt lat="44.91818163655314" lon="8.986668300730878"><ele>162.0</ele><time>2026-05-02T13:28:15Z</time></trkpt><trkpt lat="44.918038663392366" lon="8.986660462423442"><ele>162.0</ele><time>2026-05-02T13:28:16Z</time></trkpt><trkpt lat="44.91794075994228" lon="8.98671072895707"><ele>162.0</ele><time>2026-05-02T13:28:17Z</time></trkpt><trkpt lat="44.91785255846643" lon="8.986777631609185"><ele>162.0</ele><time>2026-05-02T13:28:18Z</time></trkpt><trkpt lat="44.917761517760944" lon="8.986816001200234"><ele>162.0</ele><time>2026-05-02T13:28:19Z</time></trkpt><trkpt lat="44.91766835327216" lon="8.986874981257493"><ele>162.0</ele><time>2026-05-02T13:28:20Z</time></trkpt><trkpt lat="44.917567749969386" lon="8.98692149998599"><ele>162.0</ele><time>2026-05-02T13:28:21Z</time></trkpt><trkpt lat="44.91745530880077" lon="8.986968690389805"><ele>162.0</ele><time>2026-05-02T13:28:22Z</time></trkpt><trkpt lat="44.917364733814104" lon="8.987003458183517"><ele>162.0</ele><time>2026-05-02T13:28:23Z</time></trkpt><trkpt lat="44.91727944004483" lon="8.987025358720995"><ele>162.0</ele><time>2026-05-02T13:28:24Z</time></trkpt><trkpt lat="44.917187254341556" lon="8.987034747441514"><ele>162.0</ele><time>2026-05-02T13:28:25Z</time></trkpt><trkpt lat="44.91708778103134" lon="8.987033816054742"><ele>162.0</ele><time>2026-05-02T13:28:26Z</time></trkpt><trkpt lat="44.916982396563625" lon="8.987014773109681"><ele>162.0</ele><time>2026-05-02T13:28:27Z</time></trkpt><trkpt lat="44.916873118456735" lon="8.986969776001352"><ele>162.0</ele><time>2026-05-02T13:28:28Z</time></trkpt><trkpt lat="44.9167720480294" lon="8.986891399179926"><ele>162.0</ele><time>2026-05-02T13:28:29Z</time></trkpt><trkpt lat="44.916674373237115" lon="8.986854942531764"><ele>162.0</ele><time>2026-05-02T13:28:30Z</time></trkpt><trkpt lat="44.91660044091864" lon="8.986811365287583"><ele>162.0</ele><time>2026-05-02T13:28:31Z</time></trkpt><trkpt lat="44.91650003251813" lon="8.986751081545853"><ele>162.0</ele><time>2026-05-02T13:28:33Z</time></trkpt><trkpt lat="44.916435495413225" lon="8.986699547972458"><ele>162.25</ele><time>2026-05-02T13:28:36Z</time></trkpt><trkpt lat="44.91641138750986" lon="8.986938104100442"><ele>162.5</ele><time>2026-05-02T13:28:39Z</time></trkpt><trkpt lat="44.916438644634624" lon="8.98705680190196"><ele>162.75</ele><time>2026-05-02T13:28:40Z</time></trkpt><trkpt lat="44.91644008489203" lon="8.987192343705376"><ele>163.0</ele><time>2026-05-02T13:28:41Z</time></trkpt><trkpt lat="44.91644907744223" lon="8.987339391004838"><ele>163.0</ele><time>2026-05-02T13:28:42Z</time></trkpt><trkpt lat="44.91647115263572" lon="8.987497875775974"><ele>163.0</ele><time>2026-05-02T13:28:43Z</time></trkpt><trkpt lat="44.91648079328634" lon="8.987673398176586"><ele>163.0</ele><time>2026-05-02T13:28:44Z</time></trkpt><trkpt lat="44.916485848878615" lon="8.987870052313689"><ele>163.0</ele><time>2026-05-02T13:28:45Z</time></trkpt><trkpt lat="44.91649956305686" lon="8.98807791589255"><ele>163.25</ele><time>2026-05-02T13:28:46Z</time></trkpt><trkpt lat="44.916511395340734" lon="8.988244870809037"><ele>163.5</ele><time>2026-05-02T13:28:47Z</time></trkpt><trkpt lat="44.91652500444202" lon="8.988406151217243"><ele>163.75</ele><time>2026-05-02T13:28:48Z</time></trkpt><trkpt lat="44.91656238980309" lon="8.988586317832993"><ele>164.0</ele><time>2026-05-02T13:28:49Z</time></trkpt><trkpt lat="44.91662185634712" lon="8.988790544973538"><ele>164.0</ele><time>2026-05-02T13:28:50Z</time></trkpt><trkpt lat="44.91670133033422" lon="8.98900777693823"><ele>164.0</ele><time>2026-05-02T13:28:51Z</time></trkpt><trkpt lat="44.916744616847154" lon="8.989220874144594"><ele>164.0</ele><time>2026-05-02T13:28:52Z</time></trkpt><trkpt lat="44.91678959740488" lon="8.989393935608534"><ele>163.25</ele><time>2026-05-02T13:28:53Z</time></trkpt><trkpt lat="44.916835262907206" lon="8.989588544589461"><ele>162.5</ele><time>2026-05-02T13:28:54Z</time></trkpt><trkpt lat="44.91687498261841" lon="8.98978058187617"><ele>161.75</ele><time>2026-05-02T13:28:55Z</time></trkpt><trkpt lat="44.916912056132254" lon="8.989968065079653"><ele>161.0</ele><time>2026-05-02T13:28:56Z</time></trkpt><trkpt lat="44.91695932429704" lon="8.990121435110433"><ele>160.5</ele><time>2026-05-02T13:28:57Z</time></trkpt><trkpt lat="44.916980284748085" lon="8.990271461512437"><ele>160.0</ele><time>2026-05-02T13:28:58Z</time></trkpt><trkpt lat="44.917020377739554" lon="8.990441987584834"><ele>159.5</ele><time>2026-05-02T13:28:59Z</time></trkpt><trkpt lat="44.91704545934201" lon="8.990600680038133"><ele>159.0</ele><time>2026-05-02T13:29:00Z</time></trkpt><trkpt lat="44.917078377724174" lon="8.99076720336481"><ele>158.75</ele><time>2026-05-02T13:29:01Z</time></trkpt><trkpt lat="44.91711865085022" lon="8.99094353607086"><ele>158.5</ele><time>2026-05-02T13:29:02Z</time></trkpt><trkpt lat="44.91716018502661" lon="8.991119400586804"><ele>158.25</ele><time>2026-05-02T13:29:03Z</time></trkpt><trkpt lat="44.91720945073434" lon="8.991281242593654"><ele>158.0</ele><time>2026-05-02T13:29:04Z</time></trkpt><trkpt lat="44.91726031019587" lon="8.991443548624886"><ele>158.0</ele><time>2026-05-02T13:29:05Z</time></trkpt><trkpt lat="44.917316827177295" lon="8.991614965018828"><ele>158.0</ele><time>2026-05-02T13:29:06Z</time></trkpt><trkpt lat="44.917362336303775" lon="8.991798801547574"><ele>158.0</ele><time>2026-05-02T13:29:07Z</time></trkpt><trkpt lat="44.91742811658219" lon="8.99197665286352"><ele>158.0</ele><time>2026-05-02T13:29:08Z</time></trkpt><trkpt lat="44.91748267991678" lon="8.99215128739491"><ele>158.0</ele><time>2026-05-02T13:29:09Z</time></trkpt><trkpt lat="44.91754750584063" lon="8.992326654573876"><ele>158.0</ele><time>2026-05-02T13:29:10Z</time></trkpt><trkpt lat="44.91759554081781" lon="8.992521630591584"><ele>158.0</ele><time>2026-05-02T13:29:11Z</time></trkpt><trkpt lat="44.91766777433573" lon="8.992749762550222"><ele>159.66666666666666</ele><time>2026-05-02T13:29:12Z</time></trkpt><trkpt lat="44.91774247545052" lon="8.992986975308709"><ele>161.33333333333334</ele><time>2026-05-02T13:29:13Z</time></trkpt><trkpt lat="44.91781698430557" lon="8.993188568278542"><ele>163.0</ele><time>2026-05-02T13:29:14Z</time></trkpt><trkpt lat="44.917876115725726" lon="8.993380736897032"><ele>163.33333333333334</ele><time>2026-05-02T13:29:15Z</time></trkpt><trkpt lat="44.91793590451034" lon="8.993591429925923"><ele>163.66666666666666</ele><time>2026-05-02T13:29:16Z</time></trkpt><trkpt lat="44.91795974509312" lon="8.993811195184119"><ele>164.0</ele><time>2026-05-02T13:29:17Z</time></trkpt><trkpt lat="44.91798489160827" lon="8.994047569205996"><ele>164.33333333333331</ele><time>2026-05-02T13:29:18Z</time></trkpt><trkpt lat="44.918005455230436" lon="8.994276543320503"><ele>164.66666666666666</ele><time>2026-05-02T13:29:19Z</time></trkpt><trkpt lat="44.91803206789275" lon="8.994544724822516"><ele>165.0</ele><time>2026-05-02T13:29:20Z</time></trkpt><trkpt lat="44.91803827704323" lon="8.994763398356776"><ele>165.0</ele><time>2026-05-02T13:29:21Z</time></trkpt><trkpt lat="44.91804269026978" lon="8.99498445390472"><ele>165.0</ele><time>2026-05-02T13:29:22Z</time></trkpt><trkpt lat="44.91801689226501" lon="8.99521796447922"><ele>165.0</ele><time>2026-05-02T13:29:23Z</time></trkpt><trkpt lat="44.9179984721348" lon="8.995466131042788"><ele>165.25</ele><time>2026-05-02T13:29:24Z</time></trkpt><trkpt lat="44.91799323758291" lon="8.995686182853278"><ele>165.5</ele><time>2026-05-02T13:29:25Z</time></trkpt><trkpt lat="44.91797132613636" lon="8.99589657317557"><ele>165.75</ele><time>2026-05-02T13:29:26Z</time></trkpt><trkpt lat="44.91794143037498" lon="8.996087782557346"><ele>166.0</ele><time>2026-05-02T13:29:27Z</time></trkpt><trkpt lat="44.917891951665716" lon="8.996293219561448"><ele>166.25</ele><time>2026-05-02T13:29:28Z</time></trkpt><trkpt lat="44.91785393365089" lon="8.996482058349072"><ele>166.5</ele><time>2026-05-02T13:29:29Z</time></trkpt><trkpt lat="44.917815908223204" lon="8.996648766035861"><ele>166.75</ele><time>2026-05-02T13:29:30Z</time></trkpt><trkpt lat="44.91777846690187" lon="8.99680966944871"><ele>167.0</ele><time>2026-05-02T13:29:31Z</time></trkpt><trkpt lat="44.917743501761244" lon="8.99695951278436"><ele>167.6</ele><time>2026-05-02T13:29:32Z</time></trkpt><trkpt lat="44.9177071112278" lon="8.997115013777446"><ele>168.2</ele><time>2026-05-02T13:29:33Z</time></trkpt><trkpt lat="44.91768852436142" lon="8.997261023231761"><ele>168.8</ele><time>2026-05-02T13:29:34Z</time></trkpt><trkpt lat="44.91766263936356" lon="8.997379580734616"><ele>169.4</ele><time>2026-05-02T13:29:35Z</time></trkpt><trkpt lat="44.917620142015096" lon="8.99748650780355"><ele>170.0</ele><time>2026-05-02T13:29:36Z</time></trkpt><trkpt lat="44.917603855314695" lon="8.997591743516383"><ele>170.33333333333331</ele><time>2026-05-02T13:29:37Z</time></trkpt><trkpt lat="44.91757234400586" lon="8.997719124087176"><ele>170.66666666666666</ele><time>2026-05-02T13:29:39Z</time></trkpt><trkpt lat="44.91750925805187" lon="8.997791522453085"><ele>171.0</ele><time>2026-05-02T13:29:51Z</time></trkpt><trkpt lat="44.917515576589054" lon="8.99788212571375"><ele>171.33333333333334</ele><time>2026-05-02T13:29:52Z</time></trkpt><trkpt lat="44.91744579858062" lon="8.997888825896087"><ele>171.66666666666669</ele><time>2026-05-02T13:29:53Z</time></trkpt><trkpt lat="44.91740088098305" lon="8.997957698723887"><ele>172.0</ele><time>2026-05-02T13:29:54Z</time></trkpt><trkpt lat="44.91747751896026" lon="8.998166510331535"><ele>172.0</ele><time>2026-05-02T13:29:55Z</time></trkpt><trkpt lat="44.91745957739215" lon="8.998293977368542"><ele>172.0</ele><time>2026-05-02T13:29:56Z</time></trkpt><trkpt lat="44.91744436757531" lon="8.998422833284542"><ele>172.0</ele><time>2026-05-02T13:29:57Z</time></trkpt><trkpt lat="44.91742251668558" lon="8.998548215187588"><ele>172.0</ele><time>2026-05-02T13:29:58Z</time></trkpt><trkpt lat="44.917422011933034" lon="8.998652824839844"><ele>172.0</ele><time>2026-05-02T13:29:59Z</time></trkpt><trkpt lat="44.91742706774708" lon="8.998745363269302"><ele>172.0</ele><time>2026-05-02T13:30:00Z</time></trkpt><trkpt lat="44.91744561123115" lon="8.998854083334713"><ele>172.5</ele><time>2026-05-02T13:30:01Z</time></trkpt><trkpt lat="44.91746210337351" lon="8.998983514365467"><ele>173.0</ele><time>2026-05-02T13:30:02Z</time></trkpt><trkpt lat="44.91747628036583" lon="8.999088430435338"><ele>173.5</ele><time>2026-05-02T13:30:03Z</time></trkpt><trkpt lat="44.917493918854554" lon="8.999212144243707"><ele>174.0</ele><time>2026-05-02T13:30:04Z</time></trkpt><trkpt lat="44.917515249248666" lon="8.999303428252412"><ele>174.5</ele><time>2026-05-02T13:30:05Z</time></trkpt><trkpt lat="44.91755035408732" lon="8.99941067052635"><ele>175.0</ele><time>2026-05-02T13:30:06Z</time></trkpt><trkpt lat="44.91758349790964" lon="8.999544257362087"><ele>175.42857142857142</ele><time>2026-05-02T13:30:07Z</time></trkpt><trkpt lat="44.91759894221912" lon="8.99964806267092"><ele>175.85714285714286</ele><time>2026-05-02T13:30:08Z</time></trkpt><trkpt lat="44.91761378767488" lon="8.999744611095348"><ele>176.28571428571428</ele><time>2026-05-02T13:30:09Z</time></trkpt><trkpt lat="44.91764382360194" lon="8.999834465976539"><ele>176.71428571428572</ele><time>2026-05-02T13:30:10Z</time></trkpt><trkpt lat="44.9176821422252" lon="8.99993455185271"><ele>177.14285714285714</ele><time>2026-05-02T13:30:11Z</time></trkpt><trkpt lat="44.91772405253846" lon="9.00004030233755"><ele>177.57142857142856</ele><time>2026-05-02T13:30:12Z</time></trkpt><trkpt lat="44.91775683765372" lon="9.000118635948448"><ele>178.0</ele><time>2026-05-02T13:30:13Z</time></trkpt><trkpt lat="44.917783315751045" lon="9.000235385914495"><ele>178.0</ele><time>2026-05-02T13:30:14Z</time></trkpt><trkpt lat="44.91780561130404" lon="9.000348864259385"><ele>178.0</ele><time>2026-05-02T13:30:15Z</time></trkpt><trkpt lat="44.91782473514297" lon="9.000442375853591"><ele>178.0</ele><time>2026-05-02T13:30:16Z</time></trkpt><trkpt lat="44.91784702970308" lon="9.000599708094647"><ele>178.0</ele><time>2026-05-02T13:30:18Z</time></trkpt><trkpt lat="44.91788165019861" lon="9.000767203504342"><ele>178.0</ele><time>2026-05-02T13:30:20Z</time></trkpt><trkpt lat="44.91788394646608" lon="9.00088814886165"><ele>178.75</ele><time>2026-05-02T13:30:21Z</time></trkpt><trkpt lat="44.917907610825544" lon="9.00103125172265"><ele>179.5</ele><time>2026-05-02T13:30:22Z</time></trkpt><trkpt lat="44.91793240868832" lon="9.001181210954476"><ele>180.25</ele><time>2026-05-02T13:30:23Z</time></trkpt><trkpt lat="44.91795299934521" lon="9.00136705060405"><ele>181.0</ele><time>2026-05-02T13:30:24Z</time></trkpt><trkpt lat="44.917967147311465" lon="9.00154592156758"><ele>181.0</ele><time>2026-05-02T13:30:25Z</time></trkpt><trkpt lat="44.91797806132782" lon="9.001687178114613"><ele>181.0</ele><time>2026-05-02T13:30:26Z</time></trkpt><trkpt lat="44.91798880894991" lon="9.001823114006253"><ele>181.0</ele><time>2026-05-02T13:30:27Z</time></trkpt><trkpt lat="44.91800223019764" lon="9.001973760611651"><ele>181.0</ele><time>2026-05-02T13:30:28Z</time></trkpt><trkpt lat="44.91801865640533" lon="9.002158582012473"><ele>181.0</ele><time>2026-05-02T13:30:29Z</time></trkpt><trkpt lat="44.9180352749469" lon="9.002348370571886"><ele>181.25</ele><time>2026-05-02T13:30:30Z</time></trkpt><trkpt lat="44.91805042980355" lon="9.002525159607634"><ele>181.5</ele><time>2026-05-02T13:30:31Z</time></trkpt><trkpt lat="44.918064089440975" lon="9.002689017636838"><ele>181.75</ele><time>2026-05-02T13:30:32Z</time></trkpt><trkpt lat="44.918076789313794" lon="9.002850614638298"><ele>182.0</ele><time>2026-05-02T13:30:33Z</time></trkpt><trkpt lat="44.91808915865174" lon="9.003011527504377"><ele>182.0</ele><time>2026-05-02T13:30:34Z</time></trkpt><trkpt lat="44.91811789837522" lon="9.003179595924664"><ele>182.0</ele><time>2026-05-02T13:30:35Z</time></trkpt><trkpt lat="44.918110023941665" lon="9.003347724305051"><ele>182.0</ele><time>2026-05-02T13:30:36Z</time></trkpt><trkpt lat="44.918116774842105" lon="9.00348354744078"><ele>182.0</ele><time>2026-05-02T13:30:37Z</time></trkpt><trkpt lat="44.91812322691805" lon="9.00361371917811"><ele>182.0</ele><time>2026-05-02T13:30:38Z</time></trkpt><trkpt lat="44.918130090317824" lon="9.00375643846988"><ele>182.2</ele><time>2026-05-02T13:30:39Z</time></trkpt><trkpt lat="44.918139150290386" lon="9.003944833922557"><ele>182.39999999999998</ele><time>2026-05-02T13:30:40Z</time></trkpt><trkpt lat="44.91814529807054" lon="9.004105367704373"><ele>182.60000000000002</ele><time>2026-05-02T13:30:41Z</time></trkpt><trkpt lat="44.9181453351497" lon="9.004236313069972"><ele>182.8</ele><time>2026-05-02T13:30:42Z</time></trkpt><trkpt lat="44.91810301182832" lon="9.004371370466453"><ele>183.0</ele><time>2026-05-02T13:30:44Z</time></trkpt><trkpt lat="44.918043125443184" lon="9.004406216801355"><ele>183.5</ele><time>2026-05-02T13:30:45Z</time></trkpt><trkpt lat="44.91794174294134" lon="9.004382692004517"><ele>184.0</ele><time>2026-05-02T13:30:46Z</time></trkpt><trkpt lat="44.91780633590138" lon="9.004391904539311"><ele>184.5</ele><time>2026-05-02T13:30:47Z</time></trkpt><trkpt lat="44.917673600776205" lon="9.004401589974265"><ele>185.0</ele><time>2026-05-02T13:30:48Z</time></trkpt><trkpt lat="44.917589646937294" lon="9.0044378986973"><ele>185.25</ele><time>2026-05-02T13:30:49Z</time></trkpt><trkpt lat="44.91753259912907" lon="9.004477792257953"><ele>185.5</ele><time>2026-05-02T13:30:50Z</time></trkpt><trkpt lat="44.91753748937641" lon="9.00466146945133"><ele>185.75</ele><time>2026-05-02T13:30:52Z</time></trkpt><trkpt lat="44.91756315369368" lon="9.004819424099981"><ele>186.0</ele><time>2026-05-02T13:30:53Z</time></trkpt><trkpt lat="44.91758993543339" lon="9.005030596392576"><ele>186.0</ele><time>2026-05-02T13:30:54Z</time></trkpt><trkpt lat="44.917595274775785" lon="9.005188842258612"><ele>186.0</ele><time>2026-05-02T13:30:55Z</time></trkpt><trkpt lat="44.917618646793315" lon="9.005340134227596"><ele>186.0</ele><time>2026-05-02T13:30:56Z</time></trkpt><trkpt lat="44.91762635613014" lon="9.005495958578548"><ele>186.0</ele><time>2026-05-02T13:30:57Z</time></trkpt><trkpt lat="44.917628602209795" lon="9.005668062451704"><ele>186.5</ele><time>2026-05-02T13:30:58Z</time></trkpt><trkpt lat="44.91761342488668" lon="9.005831098383371"><ele>187.0</ele><time>2026-05-02T13:30:59Z</time></trkpt><trkpt lat="44.9175974207039" lon="9.005997889322664"><ele>187.5</ele><time>2026-05-02T13:31:00Z</time></trkpt><trkpt lat="44.91757902572002" lon="9.006176088060673"><ele>188.0</ele><time>2026-05-02T13:31:01Z</time></trkpt><trkpt lat="44.91757340058321" lon="9.00633319500566"><ele>188.0</ele><time>2026-05-02T13:31:02Z</time></trkpt><trkpt lat="44.917607520819466" lon="9.00650576612278"><ele>188.0</ele><time>2026-05-02T13:31:03Z</time></trkpt><trkpt lat="44.91763797487645" lon="9.006643096418726"><ele>188.0</ele><time>2026-05-02T13:31:04Z</time></trkpt><trkpt lat="44.91767321166512" lon="9.006802637111603"><ele>188.0</ele><time>2026-05-02T13:31:05Z</time></trkpt><trkpt lat="44.91771940968038" lon="9.00693108831775"><ele>188.0</ele><time>2026-05-02T13:31:06Z</time></trkpt><trkpt lat="44.91775283249742" lon="9.007040002108992"><ele>188.5</ele><time>2026-05-02T13:31:07Z</time></trkpt><trkpt lat="44.91780230805642" lon="9.00713724435524"><ele>189.0</ele><time>2026-05-02T13:31:08Z</time></trkpt><trkpt lat="44.91782405257727" lon="9.007249545152803"><ele>189.5</ele><time>2026-05-02T13:31:09Z</time></trkpt><trkpt lat="44.917876810617294" lon="9.007346941470171"><ele>190.0</ele><time>2026-05-02T13:31:10Z</time></trkpt><trkpt lat="44.91794890362006" lon="9.007437056541992"><ele>190.5</ele><time>2026-05-02T13:31:11Z</time></trkpt><trkpt lat="44.91802893486451" lon="9.00750743691825"><ele>191.0</ele><time>2026-05-02T13:31:12Z</time></trkpt><trkpt lat="44.91809622746077" lon="9.007573346838"><ele>191.0</ele><time>2026-05-02T13:31:13Z</time></trkpt><trkpt lat="44.91812521483592" lon="9.007669720794603"><ele>191.0</ele><time>2026-05-02T13:31:14Z</time></trkpt><trkpt lat="44.91816166542129" lon="9.00774320070814"><ele>191.0</ele><time>2026-05-02T13:31:15Z</time></trkpt><trkpt lat="44.91821046396659" lon="9.007858935680877"><ele>191.0</ele><time>2026-05-02T13:31:17Z</time></trkpt><trkpt lat="44.9182472365178" lon="9.007953788433104"><ele>191.0</ele><time>2026-05-02T13:31:20Z</time></trkpt><trkpt lat="44.91829558119882" lon="9.008094467646389"><ele>191.0</ele><time>2026-05-02T13:31:23Z</time></trkpt><trkpt lat="44.91834629725824" lon="9.008241261583299"><ele>190.0</ele><time>2026-05-02T13:31:25Z</time></trkpt><trkpt lat="44.918340774848986" lon="9.008343526829997"><ele>189.0</ele><time>2026-05-02T13:31:26Z</time></trkpt><trkpt lat="44.91833604089312" lon="9.008455364769784"><ele>188.0</ele><time>2026-05-02T13:31:27Z</time></trkpt><trkpt lat="44.918311001659646" lon="9.008577873961915"><ele>187.0</ele><time>2026-05-02T13:31:28Z</time></trkpt><trkpt lat="44.91827058691429" lon="9.008687842319016"><ele>186.0</ele><time>2026-05-02T13:31:29Z</time></trkpt><trkpt lat="44.91822837623555" lon="9.008786688428255"><ele>185.0</ele><time>2026-05-02T13:31:30Z</time></trkpt><trkpt lat="44.91819151593074" lon="9.008904264573362"><ele>185.0</ele><time>2026-05-02T13:31:31Z</time></trkpt><trkpt lat="44.918123900487075" lon="9.009001844341814"><ele>185.0</ele><time>2026-05-02T13:31:32Z</time></trkpt><trkpt lat="44.91808898958019" lon="9.009108041589975"><ele>185.0</ele><time>2026-05-02T13:31:33Z</time></trkpt><trkpt lat="44.918056056876885" lon="9.009209623032888"><ele>185.0</ele><time>2026-05-02T13:31:34Z</time></trkpt><trkpt lat="44.91804803940686" lon="9.009324249025704"><ele>185.0</ele><time>2026-05-02T13:31:35Z</time></trkpt><trkpt lat="44.918056620410496" lon="9.00943859274865"><ele>185.0</ele><time>2026-05-02T13:31:36Z</time></trkpt><trkpt lat="44.91807820675597" lon="9.009543173240285"><ele>184.33333333333331</ele><time>2026-05-02T13:31:37Z</time></trkpt><trkpt lat="44.918112840304545" lon="9.009640201840137"><ele>183.66666666666666</ele><time>2026-05-02T13:31:38Z</time></trkpt><trkpt lat="44.918151136861105" lon="9.009743182873821"><ele>183.0</ele><time>2026-05-02T13:31:39Z</time></trkpt><trkpt lat="44.91816503092075" lon="9.009896076762159"><ele>182.33333333333334</ele><time>2026-05-02T13:31:41Z</time></trkpt><trkpt lat="44.91817886292626" lon="9.010016063256924"><ele>181.66666666666669</ele><time>2026-05-02T13:31:45Z</time></trkpt><trkpt lat="44.9181928654242" lon="9.010131398385573"><ele>181.0</ele><time>2026-05-02T13:31:47Z</time></trkpt><trkpt lat="44.91825330791235" lon="9.01019192740369"><ele>181.0</ele><time>2026-05-02T13:31:48Z</time></trkpt><trkpt lat="44.918244366844846" lon="9.01032750628954"><ele>181.0</ele><time>2026-05-02T13:31:49Z</time></trkpt><trkpt lat="44.91824963886295" lon="9.010495702476655"><ele>181.0</ele><time>2026-05-02T13:31:50Z</time></trkpt><trkpt lat="44.91822130447982" lon="9.01067163321697"><ele>181.0</ele><time>2026-05-02T13:31:51Z</time></trkpt><trkpt lat="44.918201885181624" lon="9.010840481053775"><ele>181.0</ele><time>2026-05-02T13:31:52Z</time></trkpt><trkpt lat="44.918178447584076" lon="9.011021390236051"><ele>181.0</ele><time>2026-05-02T13:31:53Z</time></trkpt><trkpt lat="44.91816596829946" lon="9.011175941065265"><ele>181.0</ele><time>2026-05-02T13:31:54Z</time></trkpt><trkpt lat="44.91816792687427" lon="9.011323187340198"><ele>181.0</ele><time>2026-05-02T13:31:55Z</time></trkpt><trkpt lat="44.91816155594776" lon="9.01145445370326"><ele>181.0</ele><time>2026-05-02T13:31:56Z</time></trkpt><trkpt lat="44.91818255364966" lon="9.011596552552055"><ele>181.0</ele><time>2026-05-02T13:31:57Z</time></trkpt><trkpt lat="44.91821860498216" lon="9.011746271992171"><ele>181.0</ele><time>2026-05-02T13:31:58Z</time></trkpt><trkpt lat="44.91824399250913" lon="9.011904735383006"><ele>181.0</ele><time>2026-05-02T13:31:59Z</time></trkpt><trkpt lat="44.91826229872458" lon="9.012055601782434"><ele>181.0</ele><time>2026-05-02T13:32:00Z</time></trkpt><trkpt lat="44.918268875144996" lon="9.012203772286627"><ele>181.0</ele><time>2026-05-02T13:32:01Z</time></trkpt><trkpt lat="44.91826117947428" lon="9.012323787155047"><ele>181.0</ele><time>2026-05-02T13:32:02Z</time></trkpt><trkpt lat="44.91825587564643" lon="9.012458125797822"><ele>181.0</ele><time>2026-05-02T13:32:03Z</time></trkpt><trkpt lat="44.91824941126024" lon="9.012587037538456"><ele>181.0</ele><time>2026-05-02T13:32:04Z</time></trkpt><trkpt lat="44.91824167070503" lon="9.012727725455216"><ele>181.0</ele><time>2026-05-02T13:32:05Z</time></trkpt><trkpt lat="44.91823286058112" lon="9.012887853333233"><ele>181.0</ele><time>2026-05-02T13:32:06Z</time></trkpt><trkpt lat="44.91823902344112" lon="9.01304875047849"><ele>180.75</ele><time>2026-05-02T13:32:07Z</time></trkpt><trkpt lat="44.91822812699017" lon="9.013203176737843"><ele>180.5</ele><time>2026-05-02T13:32:08Z</time></trkpt><trkpt lat="44.918198302462876" lon="9.013374051040353"><ele>180.25</ele><time>2026-05-02T13:32:09Z</time></trkpt><trkpt lat="44.91819803871166" lon="9.013536131254616"><ele>180.0</ele><time>2026-05-02T13:32:10Z</time></trkpt><trkpt lat="44.918164982317606" lon="9.013680060844734"><ele>179.2</ele><time>2026-05-02T13:32:11Z</time></trkpt><trkpt lat="44.918145581125344" lon="9.013799627036688"><ele>178.4</ele><time>2026-05-02T13:32:12Z</time></trkpt><trkpt lat="44.918111779692765" lon="9.013916415704303"><ele>177.60000000000002</ele><time>2026-05-02T13:32:13Z</time></trkpt><trkpt lat="44.91805917413994" lon="9.014017741875687"><ele>176.8</ele><time>2026-05-02T13:32:14Z</time></trkpt><trkpt lat="44.9179915161815" lon="9.014137927183201"><ele>176.0</ele><time>2026-05-02T13:32:15Z</time></trkpt><trkpt lat="44.917921384986336" lon="9.01426829837021"><ele>175.25</ele><time>2026-05-02T13:32:16Z</time></trkpt><trkpt lat="44.91785075955082" lon="9.01440068313394"><ele>174.5</ele><time>2026-05-02T13:32:17Z</time></trkpt><trkpt lat="44.91778225869703" lon="9.014542050861792"><ele>173.75</ele><time>2026-05-02T13:32:18Z</time></trkpt><trkpt lat="44.917717327815204" lon="9.014688565756966"><ele>173.0</ele><time>2026-05-02T13:32:19Z</time></trkpt><trkpt lat="44.91765830212479" lon="9.01483177542576"><ele>173.0</ele><time>2026-05-02T13:32:20Z</time></trkpt><trkpt lat="44.91761387594529" lon="9.01498157209946"><ele>173.0</ele><time>2026-05-02T13:32:21Z</time></trkpt><trkpt lat="44.91757056167104" lon="9.015151158924413"><ele>173.0</ele><time>2026-05-02T13:32:22Z</time></trkpt><trkpt lat="44.91750898750924" lon="9.015321770958481"><ele>173.0</ele><time>2026-05-02T13:32:23Z</time></trkpt><trkpt lat="44.917459989849306" lon="9.015480495053712"><ele>173.2</ele><time>2026-05-02T13:32:24Z</time></trkpt><trkpt lat="44.91742862428473" lon="9.015628742116617"><ele>173.4</ele><time>2026-05-02T13:32:25Z</time></trkpt><trkpt lat="44.91736935440399" lon="9.015762349607966"><ele>173.6</ele><time>2026-05-02T13:32:26Z</time></trkpt><trkpt lat="44.91732320269633" lon="9.015896548404198"><ele>173.79999999999998</ele><time>2026-05-02T13:32:27Z</time></trkpt><trkpt lat="44.917270265038745" lon="9.016048691266041"><ele>174.0</ele><time>2026-05-02T13:32:28Z</time></trkpt><trkpt lat="44.91722033328293" lon="9.016240879467972"><ele>174.0</ele><time>2026-05-02T13:32:29Z</time></trkpt><trkpt lat="44.917149423313845" lon="9.016444133768122"><ele>174.0</ele><time>2026-05-02T13:32:30Z</time></trkpt><trkpt lat="44.91708937444595" lon="9.016621508134298"><ele>174.0</ele><time>2026-05-02T13:32:31Z</time></trkpt><trkpt lat="44.91703207656021" lon="9.016786284320572"><ele>174.0</ele><time>2026-05-02T13:32:32Z</time></trkpt><trkpt lat="44.91695708869556" lon="9.016951863491093"><ele>173.75</ele><time>2026-05-02T13:32:33Z</time></trkpt><trkpt lat="44.91689491647089" lon="9.017131634426478"><ele>173.5</ele><time>2026-05-02T13:32:34Z</time></trkpt><trkpt lat="44.916833847125474" lon="9.017305163244679"><ele>173.25</ele><time>2026-05-02T13:32:35Z</time></trkpt><trkpt lat="44.91678008522952" lon="9.017467911730895"><ele>173.0</ele><time>2026-05-02T13:32:36Z</time></trkpt><trkpt lat="44.9167545388119" lon="9.017636009036478"><ele>173.25</ele><time>2026-05-02T13:32:37Z</time></trkpt><trkpt lat="44.9167205349475" lon="9.017788104850665"><ele>173.5</ele><time>2026-05-02T13:32:38Z</time></trkpt><trkpt lat="44.91669898606338" lon="9.01796577363783"><ele>173.75</ele><time>2026-05-02T13:32:39Z</time></trkpt><trkpt lat="44.9166775068381" lon="9.018121632267906"><ele>174.0</ele><time>2026-05-02T13:32:40Z</time></trkpt><trkpt lat="44.91665943128943" lon="9.018276780277468"><ele>173.79999999999998</ele><time>2026-05-02T13:32:41Z</time></trkpt><trkpt lat="44.91664680260223" lon="9.01840544947944"><ele>173.6</ele><time>2026-05-02T13:32:42Z</time></trkpt><trkpt lat="44.91662819077198" lon="9.018547118515944"><ele>173.4</ele><time>2026-05-02T13:32:43Z</time></trkpt><trkpt lat="44.91656737709804" lon="9.0186853380514"><ele>173.2</ele><time>2026-05-02T13:32:44Z</time></trkpt><trkpt lat="44.91653373139454" lon="9.018860146025371"><ele>173.0</ele><time>2026-05-02T13:32:45Z</time></trkpt><trkpt lat="44.91647464307182" lon="9.01901284776461"><ele>172.75</ele><time>2026-05-02T13:32:46Z</time></trkpt><trkpt lat="44.916445947798906" lon="9.019172665516052"><ele>172.5</ele><time>2026-05-02T13:32:47Z</time></trkpt><trkpt lat="44.91640284792726" lon="9.019331668808867"><ele>172.25</ele><time>2026-05-02T13:32:48Z</time></trkpt><trkpt lat="44.91637948648508" lon="9.019488354324125"><ele>172.0</ele><time>2026-05-02T13:32:49Z</time></trkpt><trkpt lat="44.916360307909216" lon="9.019641770658486"><ele>172.0</ele><time>2026-05-02T13:32:50Z</time></trkpt><trkpt lat="44.91634648870648" lon="9.019814426945366"><ele>172.0</ele><time>2026-05-02T13:32:51Z</time></trkpt><trkpt lat="44.91633198978132" lon="9.019981665213695"><ele>172.0</ele><time>2026-05-02T13:32:52Z</time></trkpt><trkpt lat="44.91631408880493" lon="9.020140004911852"><ele>172.0</ele><time>2026-05-02T13:32:53Z</time></trkpt><trkpt lat="44.91629339469748" lon="9.020317442949068"><ele>171.8</ele><time>2026-05-02T13:32:54Z</time></trkpt><trkpt lat="44.916276632375215" lon="9.020485089345607"><ele>171.6</ele><time>2026-05-02T13:32:55Z</time></trkpt><trkpt lat="44.916264719304095" lon="9.020630102210271"><ele>171.4</ele><time>2026-05-02T13:32:56Z</time></trkpt><trkpt lat="44.91623386771226" lon="9.02076805657766"><ele>171.20000000000002</ele><time>2026-05-02T13:32:57Z</time></trkpt><trkpt lat="44.91622261105787" lon="9.020907396850234"><ele>171.0</ele><time>2026-05-02T13:32:58Z</time></trkpt><trkpt lat="44.916195050036976" lon="9.021041541526397"><ele>170.8</ele><time>2026-05-02T13:32:59Z</time></trkpt><trkpt lat="44.916146886674255" lon="9.021166400083253"><ele>170.60000000000002</ele><time>2026-05-02T13:33:00Z</time></trkpt><trkpt lat="44.91611058783186" lon="9.021291359254967"><ele>170.4</ele><time>2026-05-02T13:33:01Z</time></trkpt><trkpt lat="44.91606893693809" lon="9.021417916893363"><ele>170.2</ele><time>2026-05-02T13:33:02Z</time></trkpt><trkpt lat="44.91602787248471" lon="9.02152884882609"><ele>170.0</ele><time>2026-05-02T13:33:03Z</time></trkpt><trkpt lat="44.915994312010625" lon="9.021609243870037"><ele>170.2</ele><time>2026-05-02T13:33:04Z</time></trkpt><trkpt lat="44.91595978920012" lon="9.021686173350892"><ele>170.4</ele><time>2026-05-02T13:33:05Z</time></trkpt><trkpt lat="44.91592335228937" lon="9.02176426999276"><ele>170.60000000000002</ele><time>2026-05-02T13:33:06Z</time></trkpt><trkpt lat="44.91586884419476" lon="9.02187804759303"><ele>170.8</ele><time>2026-05-02T13:33:08Z</time></trkpt><trkpt lat="44.91582688841093" lon="9.021987355578515"><ele>171.0</ele><time>2026-05-02T13:33:28Z</time></trkpt><trkpt lat="44.915693579534526" lon="9.022073735109979"><ele>171.75</ele><time>2026-05-02T13:33:30Z</time></trkpt><trkpt lat="44.91563291894355" lon="9.02219298320531"><ele>172.5</ele><time>2026-05-02T13:33:31Z</time></trkpt><trkpt lat="44.9155674138219" lon="9.022303531742176"><ele>173.25</ele><time>2026-05-02T13:33:32Z</time></trkpt><trkpt lat="44.91549216718709" lon="9.022430718914649"><ele>174.0</ele><time>2026-05-02T13:33:33Z</time></trkpt><trkpt lat="44.91541227478844" lon="9.022568545036764"><ele>174.0</ele><time>2026-05-02T13:33:34Z</time></trkpt><trkpt lat="44.915323905741886" lon="9.02272099339029"><ele>174.0</ele><time>2026-05-02T13:33:35Z</time></trkpt><trkpt lat="44.91523490203431" lon="9.022879119188586"><ele>174.0</ele><time>2026-05-02T13:33:36Z</time></trkpt><trkpt lat="44.91516255634943" lon="9.023008169909174"><ele>174.0</ele><time>2026-05-02T13:33:37Z</time></trkpt><trkpt lat="44.91509938626823" lon="9.023120289961525"><ele>174.75</ele><time>2026-05-02T13:33:38Z</time></trkpt><trkpt lat="44.91503128625561" lon="9.02324098749998"><ele>175.5</ele><time>2026-05-02T13:33:39Z</time></trkpt><trkpt lat="44.914958367881916" lon="9.023370224925058"><ele>176.25</ele><time>2026-05-02T13:33:40Z</time></trkpt><trkpt lat="44.914891439366556" lon="9.023488846195825"><ele>177.0</ele><time>2026-05-02T13:33:41Z</time></trkpt><trkpt lat="44.91481832894066" lon="9.023617410948866"><ele>177.0</ele><time>2026-05-02T13:33:42Z</time></trkpt><trkpt lat="44.91473995337848" lon="9.023755216992857"><ele>177.0</ele><time>2026-05-02T13:33:43Z</time></trkpt><trkpt lat="44.91465869859978" lon="9.02389705158633"><ele>177.0</ele><time>2026-05-02T13:33:44Z</time></trkpt><trkpt lat="44.914582638408554" lon="9.024029838287044"><ele>177.0</ele><time>2026-05-02T13:33:45Z</time></trkpt><trkpt lat="44.91452077923005" lon="9.024131113943676"><ele>176.83333333333334</ele><time>2026-05-02T13:33:46Z</time></trkpt><trkpt lat="44.91448847364265" lon="9.024248372220013"><ele>176.66666666666666</ele><time>2026-05-02T13:33:47Z</time></trkpt><trkpt lat="44.914447009094076" lon="9.024344014964953"><ele>176.5</ele><time>2026-05-02T13:33:48Z</time></trkpt><trkpt lat="44.91439480407599" lon="9.024449465291692"><ele>176.33333333333331</ele><time>2026-05-02T13:33:49Z</time></trkpt><trkpt lat="44.914353634998086" lon="9.02454697213716"><ele>176.16666666666666</ele><time>2026-05-02T13:33:50Z</time></trkpt><trkpt lat="44.91431742303272" lon="9.02466196457313"><ele>176.0</ele><time>2026-05-02T13:33:51Z</time></trkpt><trkpt lat="44.914276811367" lon="9.024791412318686"><ele>176.0</ele><time>2026-05-02T13:33:52Z</time></trkpt><trkpt lat="44.9142459155406" lon="9.024897309202018"><ele>176.0</ele><time>2026-05-02T13:33:53Z</time></trkpt><trkpt lat="44.9142136646869" lon="9.024989099265623"><ele>176.0</ele><time>2026-05-02T13:33:54Z</time></trkpt><trkpt lat="44.91418215387953" lon="9.025077797475012"><ele>176.0</ele><time>2026-05-02T13:33:55Z</time></trkpt><trkpt lat="44.914142673925284" lon="9.02522851333872"><ele>176.0</ele><time>2026-05-02T13:33:57Z</time></trkpt><trkpt lat="44.91410917938224" lon="9.025311211705342"><ele>176.0</ele><time>2026-05-02T13:33:59Z</time></trkpt><trkpt lat="44.91429802381148" lon="9.025477604367655"><ele>175.60000000000002</ele><time>2026-05-02T13:34:01Z</time></trkpt><trkpt lat="44.91437817424057" lon="9.025570859700466"><ele>175.2</ele><time>2026-05-02T13:34:02Z</time></trkpt><trkpt lat="44.914463506163216" lon="9.025678893007068"><ele>174.8</ele><time>2026-05-02T13:34:03Z</time></trkpt><trkpt lat="44.91454513487783" lon="9.025791468646597"><ele>174.39999999999998</ele><time>2026-05-02T13:34:04Z</time></trkpt><trkpt lat="44.91462556557036" lon="9.025897130637604"><ele>174.0</ele><time>2026-05-02T13:34:05Z</time></trkpt><trkpt lat="44.9146956191849" lon="9.025993289641884"><ele>173.83333333333334</ele><time>2026-05-02T13:34:06Z</time></trkpt><trkpt lat="44.914757410715495" lon="9.02606474702847"><ele>173.66666666666666</ele><time>2026-05-02T13:34:07Z</time></trkpt><trkpt lat="44.914813252732564" lon="9.026144099869732"><ele>173.5</ele><time>2026-05-02T13:34:08Z</time></trkpt><trkpt lat="44.914861657909654" lon="9.026211695986227"><ele>173.33333333333331</ele><time>2026-05-02T13:34:09Z</time></trkpt><trkpt lat="44.914906878849905" lon="9.026283574674183"><ele>173.16666666666666</ele><time>2026-05-02T13:34:10Z</time></trkpt><trkpt lat="44.91495389629772" lon="9.026352195512684"><ele>173.0</ele><time>2026-05-02T13:34:11Z</time></trkpt><trkpt lat="44.91502856661355" lon="9.026450985821027"><ele>173.0</ele><time>2026-05-02T13:34:13Z</time></trkpt><trkpt lat="44.9150603213751" lon="9.026538140086199"><ele>173.0</ele><time>2026-05-02T13:34:17Z</time></trkpt><trkpt lat="44.915017780289105" lon="9.026705135105678"><ele>173.0</ele><time>2026-05-02T13:34:20Z</time></trkpt><trkpt lat="44.9149624315318" lon="9.026805850327184"><ele>173.0</ele><time>2026-05-02T13:34:21Z</time></trkpt><trkpt lat="44.91488066248415" lon="9.026900520642354"><ele>173.0</ele><time>2026-05-02T13:34:22Z</time></trkpt><trkpt lat="44.9148065697586" lon="9.027017681483157"><ele>173.25</ele><time>2026-05-02T13:34:23Z</time></trkpt><trkpt lat="44.91472359036418" lon="9.02715513962137"><ele>173.5</ele><time>2026-05-02T13:34:24Z</time></trkpt><trkpt lat="44.91462935829012" lon="9.027304459161611"><ele>173.75</ele><time>2026-05-02T13:34:25Z</time></trkpt><trkpt lat="44.914537646518916" lon="9.027446521364604"><ele>174.0</ele><time>2026-05-02T13:34:26Z</time></trkpt><trkpt lat="44.914443301662715" lon="9.027578994531288"><ele>174.0</ele><time>2026-05-02T13:34:27Z</time></trkpt><trkpt lat="44.91435511478408" lon="9.027701660679726"><ele>174.0</ele><time>2026-05-02T13:34:28Z</time></trkpt><trkpt lat="44.91426704318831" lon="9.02784851031074"><ele>174.0</ele><time>2026-05-02T13:34:29Z</time></trkpt><trkpt lat="44.9141647549464" lon="9.028022033270062"><ele>174.0</ele><time>2026-05-02T13:34:30Z</time></trkpt><trkpt lat="44.914045396630236" lon="9.028195641685505"><ele>174.33333333333334</ele><time>2026-05-02T13:34:31Z</time></trkpt><trkpt lat="44.9139317087614" lon="9.028370729695203"><ele>174.66666666666669</ele><time>2026-05-02T13:34:32Z</time></trkpt><trkpt lat="44.913816386262006" lon="9.028526315191879"><ele>175.0</ele><time>2026-05-02T13:34:33Z</time></trkpt><trkpt lat="44.91371804893491" lon="9.028654660181864"><ele>175.0</ele><time>2026-05-02T13:34:34Z</time></trkpt><trkpt lat="44.91363899000166" lon="9.028769308230228"><ele>175.0</ele><time>2026-05-02T13:34:35Z</time></trkpt><trkpt lat="44.913568875286835" lon="9.0288735582581"><ele>175.0</ele><time>2026-05-02T13:34:36Z</time></trkpt><trkpt lat="44.913499131959554" lon="9.028985060973158"><ele>175.0</ele><time>2026-05-02T13:34:37Z</time></trkpt><trkpt lat="44.91341813661661" lon="9.029110473113839"><ele>175.0</ele><time>2026-05-02T13:34:38Z</time></trkpt><trkpt lat="44.91333768477559" lon="9.029223744372093"><ele>175.0</ele><time>2026-05-02T13:34:39Z</time></trkpt><trkpt lat="44.91325608240993" lon="9.029350504956918"><ele>175.0</ele><time>2026-05-02T13:34:40Z</time></trkpt><trkpt lat="44.91314319466943" lon="9.029456185579647"><ele>175.0</ele><time>2026-05-02T13:34:41Z</time></trkpt><trkpt lat="44.913032700786815" lon="9.029554107434539"><ele>175.0</ele><time>2026-05-02T13:34:42Z</time></trkpt><trkpt lat="44.912932977502884" lon="9.029642387275436"><ele>175.0</ele><time>2026-05-02T13:34:43Z</time></trkpt><trkpt lat="44.912836188331845" lon="9.029729162776526"><ele>175.0</ele><time>2026-05-02T13:34:44Z</time></trkpt><trkpt lat="44.91274284632016" lon="9.02982360008956"><ele>175.0</ele><time>2026-05-02T13:34:45Z</time></trkpt><trkpt lat="44.91265088113855" lon="9.02992856969677"><ele>175.0</ele><time>2026-05-02T13:34:46Z</time></trkpt><trkpt lat="44.912557895426616" lon="9.030047303076756"><ele>175.0</ele><time>2026-05-02T13:34:47Z</time></trkpt><trkpt lat="44.91244783636994" lon="9.03016806587561"><ele>175.0</ele><time>2026-05-02T13:34:48Z</time></trkpt><trkpt lat="44.912348864279394" lon="9.030299043472926"><ele>175.0</ele><time>2026-05-02T13:34:49Z</time></trkpt><trkpt lat="44.912263713366855" lon="9.030454674017097"><ele>175.0</ele><time>2026-05-02T13:34:50Z</time></trkpt><trkpt lat="44.9121885655925" lon="9.03061770929147"><ele>175.0</ele><time>2026-05-02T13:34:51Z</time></trkpt><trkpt lat="44.91210996883379" lon="9.030776744402733"><ele>175.0</ele><time>2026-05-02T13:34:52Z</time></trkpt><trkpt lat="44.912037650033724" lon="9.030935368394461"><ele>175.0</ele><time>2026-05-02T13:34:53Z</time></trkpt><trkpt lat="44.911944129162876" lon="9.031083354232464"><ele>175.0</ele><time>2026-05-02T13:34:54Z</time></trkpt><trkpt lat="44.91187766891906" lon="9.031254544884774"><ele>175.0</ele><time>2026-05-02T13:34:55Z</time></trkpt><trkpt lat="44.911796954181895" lon="9.031393907510978"><ele>175.0</ele><time>2026-05-02T13:34:56Z</time></trkpt><trkpt lat="44.91173400053921" lon="9.031556714549014"><ele>175.0</ele><time>2026-05-02T13:34:57Z</time></trkpt><trkpt lat="44.911675078265155" lon="9.031732187584874"><ele>175.0</ele><time>2026-05-02T13:34:58Z</time></trkpt><trkpt lat="44.911609764932884" lon="9.031904707766456"><ele>175.0</ele><time>2026-05-02T13:34:59Z</time></trkpt><trkpt lat="44.911538117495" lon="9.032080219427337"><ele>175.0</ele><time>2026-05-02T13:35:00Z</time></trkpt><trkpt lat="44.91146890349242" lon="9.032245534678836"><ele>175.0</ele><time>2026-05-02T13:35:01Z</time></trkpt><trkpt lat="44.91136427159433" lon="9.032359804398002"><ele>175.0</ele><time>2026-05-02T13:35:02Z</time></trkpt><trkpt lat="44.91125310397679" lon="9.032480948687658"><ele>174.5</ele><time>2026-05-02T13:35:03Z</time></trkpt><trkpt lat="44.911149262834414" lon="9.03261704083515"><ele>174.0</ele><time>2026-05-02T13:35:04Z</time></trkpt><trkpt lat="44.911044079336" lon="9.032745319343375"><ele>173.5</ele><time>2026-05-02T13:35:05Z</time></trkpt><trkpt lat="44.91094832445768" lon="9.032876384798973"><ele>173.0</ele><time>2026-05-02T13:35:06Z</time></trkpt><trkpt lat="44.91087187075408" lon="9.032996228161458"><ele>173.0</ele><time>2026-05-02T13:35:07Z</time></trkpt><trkpt lat="44.910799241774896" lon="9.033098090908558"><ele>173.0</ele><time>2026-05-02T13:35:08Z</time></trkpt><trkpt lat="44.910750074506865" lon="9.033192684253233"><ele>173.0</ele><time>2026-05-02T13:35:09Z</time></trkpt><trkpt lat="44.91068591005077" lon="9.033259352587326"><ele>173.0</ele><time>2026-05-02T13:35:10Z</time></trkpt><trkpt lat="44.91062018331146" lon="9.033358951573163"><ele>173.0</ele><time>2026-05-02T13:35:11Z</time></trkpt><trkpt lat="44.91054144074077" lon="9.03347103045321"><ele>173.0</ele><time>2026-05-02T13:35:12Z</time></trkpt><trkpt lat="44.91043864613958" lon="9.033600311017802"><ele>173.0</ele><time>2026-05-02T13:35:13Z</time></trkpt><trkpt lat="44.9103425343755" lon="9.033757852849734"><ele>173.0</ele><time>2026-05-02T13:35:14Z</time></trkpt><trkpt lat="44.910223514623645" lon="9.033903129911623"><ele>173.0</ele><time>2026-05-02T13:35:15Z</time></trkpt><trkpt lat="44.910109920970115" lon="9.03403487963613"><ele>175.25</ele><time>2026-05-02T13:35:16Z</time></trkpt><trkpt lat="44.9100038782093" lon="9.034152431787255"><ele>177.5</ele><time>2026-05-02T13:35:17Z</time></trkpt><trkpt lat="44.90988883522563" lon="9.034256837603413"><ele>179.75</ele><time>2026-05-02T13:35:18Z</time></trkpt><trkpt lat="44.90977272717313" lon="9.03437138625942"><ele>182.0</ele><time>2026-05-02T13:35:19Z</time></trkpt><trkpt lat="44.909671251003154" lon="9.034465892555742"><ele>182.0</ele><time>2026-05-02T13:35:20Z</time></trkpt><trkpt lat="44.90956482089973" lon="9.034560478980211"><ele>182.0</ele><time>2026-05-02T13:35:21Z</time></trkpt><trkpt lat="44.90945747702631" lon="9.03463674466307"><ele>182.0</ele><time>2026-05-02T13:35:22Z</time></trkpt><trkpt lat="44.909341160843816" lon="9.034697769639774"><ele>182.0</ele><time>2026-05-02T13:35:23Z</time></trkpt><trkpt lat="44.90920759545042" lon="9.034747391079586"><ele>186.0</ele><time>2026-05-02T13:35:24Z</time></trkpt><trkpt lat="44.909052181255994" lon="9.034788292294607"><ele>190.0</ele><time>2026-05-02T13:35:25Z</time></trkpt><trkpt lat="44.90889066451664" lon="9.034828228692412"><ele>194.0</ele><time>2026-05-02T13:35:26Z</time></trkpt><trkpt lat="44.90875905315446" lon="9.034865967558288"><ele>194.0</ele><time>2026-05-02T13:35:27Z</time></trkpt><trkpt lat="44.90863525782117" lon="9.03490917902224"><ele>194.0</ele><time>2026-05-02T13:35:28Z</time></trkpt><trkpt lat="44.908501552284505" lon="9.034910004708744"><ele>194.0</ele><time>2026-05-02T13:35:29Z</time></trkpt><trkpt lat="44.908343833102926" lon="9.034927568558924"><ele>194.0</ele><time>2026-05-02T13:35:30Z</time></trkpt><trkpt lat="44.90817948108923" lon="9.034947019479194"><ele>192.75</ele><time>2026-05-02T13:35:31Z</time></trkpt><trkpt lat="44.908037914079266" lon="9.034981249122925"><ele>191.5</ele><time>2026-05-02T13:35:32Z</time></trkpt><trkpt lat="44.907915566629214" lon="9.034997868934262"><ele>190.25</ele><time>2026-05-02T13:35:33Z</time></trkpt><trkpt lat="44.9078117970189" lon="9.035021829594395"><ele>189.0</ele><time>2026-05-02T13:35:34Z</time></trkpt><trkpt lat="44.90770645315177" lon="9.035054412589433"><ele>189.0</ele><time>2026-05-02T13:35:35Z</time></trkpt><trkpt lat="44.90762347082328" lon="9.035104717203994"><ele>189.0</ele><time>2026-05-02T13:35:36Z</time></trkpt><trkpt lat="44.90754943110485" lon="9.035198374434282"><ele>189.0</ele><time>2026-05-02T13:35:37Z</time></trkpt><trkpt lat="44.90747016573478" lon="9.035337991429996"><ele>189.0</ele><time>2026-05-02T13:35:38Z</time></trkpt><trkpt lat="44.907394255799424" lon="9.035495598624786"><ele>190.33333333333331</ele><time>2026-05-02T13:35:39Z</time></trkpt><trkpt lat="44.9073009065888" lon="9.035677793405197"><ele>191.66666666666666</ele><time>2026-05-02T13:35:40Z</time></trkpt><trkpt lat="44.907205536595114" lon="9.035868100425377"><ele>193.0</ele><time>2026-05-02T13:35:41Z</time></trkpt><trkpt lat="44.907112439699006" lon="9.036043562393548"><ele>190.5</ele><time>2026-05-02T13:35:42Z</time></trkpt><trkpt lat="44.90703339602797" lon="9.036209366605389"><ele>188.0</ele><time>2026-05-02T13:35:43Z</time></trkpt><trkpt lat="44.90696083954707" lon="9.036374701973383"><ele>185.5</ele><time>2026-05-02T13:35:44Z</time></trkpt><trkpt lat="44.90689789763614" lon="9.036532472445284"><ele>183.0</ele><time>2026-05-02T13:35:45Z</time></trkpt><trkpt lat="44.906856975178755" lon="9.036691701572101"><ele>181.8</ele><time>2026-05-02T13:35:46Z</time></trkpt><trkpt lat="44.906825201837904" lon="9.036852535678571"><ele>180.60000000000002</ele><time>2026-05-02T13:35:47Z</time></trkpt><trkpt lat="44.90680721235976" lon="9.036989467183831"><ele>179.39999999999998</ele><time>2026-05-02T13:35:48Z</time></trkpt><trkpt lat="44.906801411254506" lon="9.037111953517101"><ele>178.2</ele><time>2026-05-02T13:35:49Z</time></trkpt><trkpt lat="44.906793318706534" lon="9.037260131987692"><ele>177.0</ele><time>2026-05-02T13:35:50Z</time></trkpt><trkpt lat="44.90678294291896" lon="9.037443263798922"><ele>177.0</ele><time>2026-05-02T13:35:51Z</time></trkpt><trkpt lat="44.90678444090579" lon="9.037798120279984"><ele>177.0</ele><time>2026-05-02T13:35:53Z</time></trkpt><trkpt lat="44.906784164374116" lon="9.037944056562093"><ele>177.0</ele><time>2026-05-02T13:35:54Z</time></trkpt><trkpt lat="44.90677703288262" lon="9.038101079192648"><ele>177.0</ele><time>2026-05-02T13:35:55Z</time></trkpt><trkpt lat="44.90677637043605" lon="9.038277815654439"><ele>177.0</ele><time>2026-05-02T13:35:56Z</time></trkpt><trkpt lat="44.90677830538397" lon="9.038422251999775"><ele>177.0</ele><time>2026-05-02T13:35:57Z</time></trkpt><trkpt lat="44.90677766522709" lon="9.038551524326461"><ele>177.0</ele><time>2026-05-02T13:35:58Z</time></trkpt><trkpt lat="44.9067791062123" lon="9.038667333368233"><ele>177.0</ele><time>2026-05-02T13:35:59Z</time></trkpt><trkpt lat="44.90677790438455" lon="9.038759270221219"><ele>176.8</ele><time>2026-05-02T13:36:00Z</time></trkpt><trkpt lat="44.90677016757565" lon="9.0389153632765"><ele>176.6</ele><time>2026-05-02T13:36:02Z</time></trkpt><trkpt lat="44.906707084047156" lon="9.038975636212983"><ele>176.4</ele><time>2026-05-02T13:36:03Z</time></trkpt><trkpt lat="44.906633581846386" lon="9.039040405594678"><ele>176.20000000000002</ele><time>2026-05-02T13:36:04Z</time></trkpt><trkpt lat="44.90656143638913" lon="9.039154290877688"><ele>176.0</ele><time>2026-05-02T13:36:05Z</time></trkpt><trkpt lat="44.90652087513128" lon="9.03925368517783"><ele>177.16666666666666</ele><time>2026-05-02T13:36:06Z</time></trkpt><trkpt lat="44.90649723655483" lon="9.039337722685179"><ele>178.33333333333331</ele><time>2026-05-02T13:36:07Z</time></trkpt><trkpt lat="44.906412721728856" lon="9.039427365656428"><ele>179.5</ele><time>2026-05-02T13:36:09Z</time></trkpt><trkpt lat="44.90633912007301" lon="9.039442113617692"><ele>180.66666666666666</ele><time>2026-05-02T13:36:10Z</time></trkpt><trkpt lat="44.90624407728537" lon="9.03941448974689"><ele>181.83333333333334</ele><time>2026-05-02T13:36:11Z</time></trkpt><trkpt lat="44.9061498631644" lon="9.039421338963418"><ele>183.0</ele><time>2026-05-02T13:36:12Z</time></trkpt><trkpt lat="44.906069221569325" lon="9.03941630397744"><ele>183.0</ele><time>2026-05-02T13:36:13Z</time></trkpt><trkpt lat="44.905985060594006" lon="9.039430013561292"><ele>183.0</ele><time>2026-05-02T13:36:14Z</time></trkpt><trkpt lat="44.90589224973317" lon="9.039456686863453"><ele>183.0</ele><time>2026-05-02T13:36:15Z</time></trkpt><trkpt lat="44.90579976088348" lon="9.039493751872813"><ele>183.0</ele><time>2026-05-02T13:36:16Z</time></trkpt><trkpt lat="44.90570081399277" lon="9.039519429552348"><ele>183.0</ele><time>2026-05-02T13:36:17Z</time></trkpt><trkpt lat="44.90560961479066" lon="9.039547344532583"><ele>185.5</ele><time>2026-05-02T13:36:18Z</time></trkpt><trkpt lat="44.90552829966402" lon="9.039586234758756"><ele>188.0</ele><time>2026-05-02T13:36:20Z</time></trkpt><trkpt lat="44.90560592060472" lon="9.039538929330245"><ele>190.5</ele><time>2026-05-02T13:36:34Z</time></trkpt><trkpt lat="44.905671330792366" lon="9.039529033935102"><ele>193.0</ele><time>2026-05-02T13:36:35Z</time></trkpt><trkpt lat="44.90574334688987" lon="9.039509291025595"><ele>195.5</ele><time>2026-05-02T13:36:39Z</time></trkpt><trkpt lat="44.905624916377995" lon="9.03953715831855"><ele>198.0</ele><time>2026-05-02T13:36:43Z</time></trkpt><trkpt lat="44.9055269267846" lon="9.039605995150069"><ele>198.0</ele><time>2026-05-02T13:36:45Z</time></trkpt><trkpt lat="44.905437221463686" lon="9.039637667666996"><ele>198.0</ele><time>2026-05-02T13:36:47Z</time></trkpt><trkpt lat="44.905351197638886" lon="9.039729614596267"><ele>198.0</ele><time>2026-05-02T13:36:49Z</time></trkpt><trkpt lat="44.90531744752567" lon="9.039825559764893"><ele>198.0</ele><time>2026-05-02T13:36:51Z</time></trkpt><trkpt lat="44.9052892719688" lon="9.039919058589179"><ele>198.0</ele><time>2026-05-02T13:36:53Z</time></trkpt><trkpt lat="44.90533900449249" lon="9.040091666613952"><ele>197.60000000000002</ele><time>2026-05-02T13:36:56Z</time></trkpt><trkpt lat="44.90538771894936" lon="9.040160774219158"><ele>197.20000000000002</ele><time>2026-05-02T13:36:57Z</time></trkpt><trkpt lat="44.905398114262134" lon="9.0403325840157"><ele>196.8</ele><time>2026-05-02T13:36:59Z</time></trkpt><trkpt lat="44.90535724276808" lon="9.040445441686835"><ele>196.4</ele><time>2026-05-02T13:37:00Z</time></trkpt><trkpt lat="44.90533180770645" lon="9.040596567935355"><ele>196.0</ele><time>2026-05-02T13:37:01Z</time></trkpt><trkpt lat="44.90528171715942" lon="9.040754608554591"><ele>194.16666666666666</ele><time>2026-05-02T13:37:02Z</time></trkpt><trkpt lat="44.905246683657325" lon="9.040894461006058"><ele>192.33333333333331</ele><time>2026-05-02T13:37:03Z</time></trkpt><trkpt lat="44.90521912411385" lon="9.041014177182744"><ele>190.5</ele><time>2026-05-02T13:37:04Z</time></trkpt><trkpt lat="44.90518582165137" lon="9.041110955918544"><ele>188.66666666666666</ele><time>2026-05-02T13:37:05Z</time></trkpt><trkpt lat="44.905157575545665" lon="9.041236250652116"><ele>186.83333333333331</ele><time>2026-05-02T13:37:07Z</time></trkpt><trkpt lat="44.90513637994703" lon="9.041337426841125"><ele>185.0</ele><time>2026-05-02T13:37:09Z</time></trkpt><trkpt lat="44.90513064865296" lon="9.041453113334661"><ele>189.0</ele><time>2026-05-02T13:37:12Z</time></trkpt><trkpt lat="44.9049830663237" lon="9.041493460121554"><ele>193.0</ele><time>2026-05-02T13:37:13Z</time></trkpt><trkpt lat="44.90487600388562" lon="9.041544463695427"><ele>197.0</ele><time>2026-05-02T13:37:14Z</time></trkpt><trkpt lat="44.90476327091786" lon="9.04158777028298"><ele>201.0</ele><time>2026-05-02T13:37:15Z</time></trkpt><trkpt lat="44.90464879171539" lon="9.041622046657592"><ele>200.20000000000002</ele><time>2026-05-02T13:37:16Z</time></trkpt><trkpt lat="44.904531955245645" lon="9.041648577742995"><ele>199.4</ele><time>2026-05-02T13:37:17Z</time></trkpt><trkpt lat="44.90442434960288" lon="9.041668868553606"><ele>198.6</ele><time>2026-05-02T13:37:18Z</time></trkpt><trkpt lat="44.9043183433425" lon="9.041689112299002"><ele>197.8</ele><time>2026-05-02T13:37:19Z</time></trkpt><trkpt lat="44.904220033453214" lon="9.041707784708002"><ele>197.0</ele><time>2026-05-02T13:37:20Z</time></trkpt><trkpt lat="44.904131540849406" lon="9.041776064954854"><ele>197.0</ele><time>2026-05-02T13:37:21Z</time></trkpt><trkpt lat="44.90404723602068" lon="9.04187592552414"><ele>197.0</ele><time>2026-05-02T13:37:22Z</time></trkpt><trkpt lat="44.90397733451747" lon="9.04198244197759"><ele>197.0</ele><time>2026-05-02T13:37:23Z</time></trkpt><trkpt lat="44.903920056988895" lon="9.042100838937172"><ele>197.0</ele><time>2026-05-02T13:37:24Z</time></trkpt><trkpt lat="44.903869611614674" lon="9.042207396012985"><ele>197.0</ele><time>2026-05-02T13:37:25Z</time></trkpt><trkpt lat="44.903809218927314" lon="9.042322205112761"><ele>197.00000000000003</ele><time>2026-05-02T13:37:26Z</time></trkpt><trkpt lat="44.90376868447339" lon="9.042417370032009"><ele>197.0</ele><time>2026-05-02T13:37:27Z</time></trkpt><trkpt lat="44.903733054470685" lon="9.042511759464752"><ele>197.0</ele><time>2026-05-02T13:37:28Z</time></trkpt><trkpt lat="44.90370355465233" lon="9.042615421524715"><ele>197.0</ele><time>2026-05-02T13:37:29Z</time></trkpt><trkpt lat="44.90366581401074" lon="9.042735864234983"><ele>197.00000000000003</ele><time>2026-05-02T13:37:30Z</time></trkpt><trkpt lat="44.903653934080246" lon="9.042878952133883"><ele>197.0</ele><time>2026-05-02T13:37:31Z</time></trkpt><trkpt lat="44.90365270306676" lon="9.0430309358952"><ele>195.33333333333334</ele><time>2026-05-02T13:37:32Z</time></trkpt><trkpt lat="44.9036545881806" lon="9.043149797309585"><ele>193.66666666666669</ele><time>2026-05-02T13:37:33Z</time></trkpt><trkpt lat="44.903656737866065" lon="9.04328534043945"><ele>192.0</ele><time>2026-05-02T13:37:34Z</time></trkpt><trkpt lat="44.90365765330568" lon="9.04341850348826"><ele>190.33333333333334</ele><time>2026-05-02T13:37:35Z</time></trkpt><trkpt lat="44.90364521490647" lon="9.04352976513706"><ele>188.66666666666669</ele><time>2026-05-02T13:37:36Z</time></trkpt><trkpt lat="44.90361782827979" lon="9.04364924112823"><ele>187.0</ele><time>2026-05-02T13:37:37Z</time></trkpt><trkpt lat="44.90356268969077" lon="9.043764711014003"><ele>187.8</ele><time>2026-05-02T13:37:38Z</time></trkpt><trkpt lat="44.90349914134362" lon="9.043847970337492"><ele>188.6</ele><time>2026-05-02T13:37:39Z</time></trkpt><trkpt lat="44.9034292689796" lon="9.043915334187096"><ele>189.4</ele><time>2026-05-02T13:37:40Z</time></trkpt><trkpt lat="44.90335646258508" lon="9.044016135317602"><ele>190.20000000000002</ele><time>2026-05-02T13:37:41Z</time></trkpt><trkpt lat="44.90326237948279" lon="9.044099425879496"><ele>191.0</ele><time>2026-05-02T13:37:42Z</time></trkpt><trkpt lat="44.90317229509236" lon="9.044185750114325"><ele>191.0</ele><time>2026-05-02T13:37:43Z</time></trkpt><trkpt lat="44.903080950992496" lon="9.044241554077313"><ele>191.0</ele><time>2026-05-02T13:37:44Z</time></trkpt><trkpt lat="44.9030073541956" lon="9.0443170200459"><ele>191.0</ele><time>2026-05-02T13:37:45Z</time></trkpt><trkpt lat="44.90291990306301" lon="9.044377872976744"><ele>191.0</ele><time>2026-05-02T13:37:46Z</time></trkpt><trkpt lat="44.90283125149905" lon="9.044446578827207"><ele>191.0</ele><time>2026-05-02T13:37:47Z</time></trkpt><trkpt lat="44.902748759330095" lon="9.044518240955574"><ele>191.0</ele><time>2026-05-02T13:37:48Z</time></trkpt><trkpt lat="44.90266939882867" lon="9.044578740665687"><ele>191.0</ele><time>2026-05-02T13:37:49Z</time></trkpt><trkpt lat="44.90258165213678" lon="9.044635891790694"><ele>191.0</ele><time>2026-05-02T13:37:50Z</time></trkpt><trkpt lat="44.90248406631983" lon="9.0446696366717"><ele>191.0</ele><time>2026-05-02T13:37:51Z</time></trkpt><trkpt lat="44.902372480699675" lon="9.044642361302923"><ele>191.0</ele><time>2026-05-02T13:37:52Z</time></trkpt><trkpt lat="44.90226241813932" lon="9.044651688666296"><ele>194.4</ele><time>2026-05-02T13:37:53Z</time></trkpt><trkpt lat="44.902162006356086" lon="9.04464342799785"><ele>197.8</ele><time>2026-05-02T13:37:54Z</time></trkpt><trkpt lat="44.902059363786265" lon="9.044659618801097"><ele>201.20000000000002</ele><time>2026-05-02T13:37:55Z</time></trkpt><trkpt lat="44.90195679736248" lon="9.044698989865331"><ele>204.60000000000002</ele><time>2026-05-02T13:37:56Z</time></trkpt><trkpt lat="44.90186564627517" lon="9.044741826959767"><ele>208.0</ele><time>2026-05-02T13:37:57Z</time></trkpt><trkpt lat="44.90177298995702" lon="9.044792321972018"><ele>208.60000000000002</ele><time>2026-05-02T13:37:58Z</time></trkpt><trkpt lat="44.901675112614164" lon="9.044841576478182"><ele>209.20000000000002</ele><time>2026-05-02T13:37:59Z</time></trkpt><trkpt lat="44.90156358434457" lon="9.044886059321984"><ele>209.8</ele><time>2026-05-02T13:38:00Z</time></trkpt><trkpt lat="44.90146428844309" lon="9.044954066134553"><ele>210.4</ele><time>2026-05-02T13:38:01Z</time></trkpt><trkpt lat="44.90137619510278" lon="9.045030042177926"><ele>211.0</ele><time>2026-05-02T13:38:02Z</time></trkpt><trkpt lat="44.90130660531347" lon="9.045116463178616"><ele>209.20000000000002</ele><time>2026-05-02T13:38:03Z</time></trkpt><trkpt lat="44.90123488307518" lon="9.045213523748538"><ele>207.4</ele><time>2026-05-02T13:38:04Z</time></trkpt><trkpt lat="44.90117409841573" lon="9.04533655145559"><ele>205.6</ele><time>2026-05-02T13:38:05Z</time></trkpt><trkpt lat="44.90111962737669" lon="9.045471979897634"><ele>203.8</ele><time>2026-05-02T13:38:06Z</time></trkpt><trkpt lat="44.901074643579506" lon="9.045583634781295"><ele>202.0</ele><time>2026-05-02T13:38:07Z</time></trkpt><trkpt lat="44.90103101996799" lon="9.04570395562089"><ele>202.99999999999997</ele><time>2026-05-02T13:38:08Z</time></trkpt><trkpt lat="44.90099136701087" lon="9.04580027852754"><ele>204.0</ele><time>2026-05-02T13:38:09Z</time></trkpt><trkpt lat="44.90095052682014" lon="9.045900009146909"><ele>205.0</ele><time>2026-05-02T13:38:10Z</time></trkpt><trkpt lat="44.90090539357219" lon="9.045988365916722"><ele>206.0</ele><time>2026-05-02T13:38:11Z</time></trkpt><trkpt lat="44.900854506463354" lon="9.04605159621242"><ele>206.99999999999997</ele><time>2026-05-02T13:38:12Z</time></trkpt><trkpt lat="44.90077339159518" lon="9.046081075596055"><ele>208.0</ele><time>2026-05-02T13:38:13Z</time></trkpt><trkpt lat="44.900670748276355" lon="9.046026058227461"><ele>208.0</ele><time>2026-05-02T13:38:14Z</time></trkpt><trkpt lat="44.90054882235038" lon="9.045982678578824"><ele>208.0</ele><time>2026-05-02T13:38:15Z</time></trkpt><trkpt lat="44.900412592826484" lon="9.045950038768998"><ele>208.0</ele><time>2026-05-02T13:38:16Z</time></trkpt><trkpt lat="44.90030200959063" lon="9.045900822063482"><ele>208.0</ele><time>2026-05-02T13:38:17Z</time></trkpt><trkpt lat="44.900216222065616" lon="9.045823209461958"><ele>209.0</ele><time>2026-05-02T13:38:18Z</time></trkpt><trkpt lat="44.90011087474984" lon="9.045772796109851"><ele>210.0</ele><time>2026-05-02T13:38:19Z</time></trkpt><trkpt lat="44.9000039869972" lon="9.045693563790648"><ele>211.0</ele><time>2026-05-02T13:38:20Z</time></trkpt><trkpt lat="44.899898719967226" lon="9.045608476288555"><ele>212.0</ele><time>2026-05-02T13:38:21Z</time></trkpt><trkpt lat="44.89979270247245" lon="9.0455476595938"><ele>213.0</ele><time>2026-05-02T13:38:22Z</time></trkpt><trkpt lat="44.89971085986612" lon="9.045485011261192"><ele>214.0</ele><time>2026-05-02T13:38:23Z</time></trkpt><trkpt lat="44.89964266701503" lon="9.045444412610347"><ele>215.0</ele><time>2026-05-02T13:38:24Z</time></trkpt><trkpt lat="44.89955938229258" lon="9.045427519057702"><ele>216.0</ele><time>2026-05-02T13:38:25Z</time></trkpt><trkpt lat="44.89945884909416" lon="9.045464332132855"><ele>217.0</ele><time>2026-05-02T13:38:26Z</time></trkpt><trkpt lat="44.899372085311036" lon="9.045555709368534"><ele>217.0</ele><time>2026-05-02T13:38:27Z</time></trkpt><trkpt lat="44.899296813697426" lon="9.045688879736888"><ele>217.0</ele><time>2026-05-02T13:38:28Z</time></trkpt><trkpt lat="44.899217026360404" lon="9.045850040786735"><ele>217.0</ele><time>2026-05-02T13:38:29Z</time></trkpt><trkpt lat="44.899101912758475" lon="9.045959191535562"><ele>217.0</ele><time>2026-05-02T13:38:30Z</time></trkpt><trkpt lat="44.89900396382986" lon="9.046086587054937"><ele>217.2</ele><time>2026-05-02T13:38:31Z</time></trkpt><trkpt lat="44.8989108939355" lon="9.046168764268089"><ele>217.39999999999998</ele><time>2026-05-02T13:38:32Z</time></trkpt><trkpt lat="44.898828681807984" lon="9.04626044492614"><ele>217.60000000000002</ele><time>2026-05-02T13:38:33Z</time></trkpt><trkpt lat="44.898742595267166" lon="9.046361902689027"><ele>217.8</ele><time>2026-05-02T13:38:34Z</time></trkpt><trkpt lat="44.89864692123259" lon="9.046464283797768"><ele>218.0</ele><time>2026-05-02T13:38:35Z</time></trkpt><trkpt lat="44.89856120460311" lon="9.046581441718416"><ele>217.75</ele><time>2026-05-02T13:38:36Z</time></trkpt><trkpt lat="44.89848141509027" lon="9.046694070039836"><ele>217.5</ele><time>2026-05-02T13:38:37Z</time></trkpt><trkpt lat="44.89839708541822" lon="9.046817669217532"><ele>217.25</ele><time>2026-05-02T13:38:38Z</time></trkpt><trkpt lat="44.89830526170208" lon="9.046954208351442"><ele>217.0</ele><time>2026-05-02T13:38:39Z</time></trkpt><trkpt lat="44.898199496237886" lon="9.047051995227571"><ele>219.75</ele><time>2026-05-02T13:38:40Z</time></trkpt><trkpt lat="44.89809465466561" lon="9.047133781521193"><ele>222.5</ele><time>2026-05-02T13:38:41Z</time></trkpt><trkpt lat="44.89798066109268" lon="9.04720505406845"><ele>225.25</ele><time>2026-05-02T13:38:42Z</time></trkpt><trkpt lat="44.897864511483775" lon="9.047260328955995"><ele>228.0</ele><time>2026-05-02T13:38:43Z</time></trkpt><trkpt lat="44.89775083219103" lon="9.04732001672017"><ele>228.0</ele><time>2026-05-02T13:38:44Z</time></trkpt><trkpt lat="44.8976329959913" lon="9.04736832185074"><ele>228.0</ele><time>2026-05-02T13:38:45Z</time></trkpt><trkpt lat="44.897513229274665" lon="9.047419732683823"><ele>228.0</ele><time>2026-05-02T13:38:46Z</time></trkpt><trkpt lat="44.89739938710377" lon="9.047480178271988"><ele>228.0</ele><time>2026-05-02T13:38:47Z</time></trkpt><trkpt lat="44.89728954437282" lon="9.047552528776878"><ele>226.25</ele><time>2026-05-02T13:38:48Z</time></trkpt><trkpt lat="44.89718391309899" lon="9.047645845942858"><ele>224.5</ele><time>2026-05-02T13:38:49Z</time></trkpt><trkpt lat="44.89708351050143" lon="9.047757727573563"><ele>222.75</ele><time>2026-05-02T13:38:50Z</time></trkpt><trkpt lat="44.896989732345524" lon="9.047872004699748"><ele>221.0</ele><time>2026-05-02T13:38:51Z</time></trkpt><trkpt lat="44.89689598409228" lon="9.047984219548267"><ele>221.0</ele><time>2026-05-02T13:38:52Z</time></trkpt><trkpt lat="44.89679816513289" lon="9.048095111147006"><ele>221.0</ele><time>2026-05-02T13:38:53Z</time></trkpt><trkpt lat="44.8966981033203" lon="9.048215916947917"><ele>221.0</ele><time>2026-05-02T13:38:54Z</time></trkpt><trkpt lat="44.89659675207897" lon="9.048343698006928"><ele>221.0</ele><time>2026-05-02T13:38:55Z</time></trkpt><trkpt lat="44.896509280688775" lon="9.048451855219135"><ele>221.0</ele><time>2026-05-02T13:38:56Z</time></trkpt><trkpt lat="44.89642693417827" lon="9.048547890905393"><ele>221.0</ele><time>2026-05-02T13:38:57Z</time></trkpt><trkpt lat="44.89634748755568" lon="9.048674230754012"><ele>221.0</ele><time>2026-05-02T13:38:58Z</time></trkpt><trkpt lat="44.89628024005151" lon="9.04883530994101"><ele>221.0</ele><time>2026-05-02T13:38:59Z</time></trkpt><trkpt lat="44.89621827171603" lon="9.048975409544235"><ele>221.0</ele><time>2026-05-02T13:39:00Z</time></trkpt><trkpt lat="44.896131558701335" lon="9.049075132073284"><ele>221.0</ele><time>2026-05-02T13:39:01Z</time></trkpt><trkpt lat="44.896010821930986" lon="9.049117580549845"><ele>221.0</ele><time>2026-05-02T13:39:02Z</time></trkpt><trkpt lat="44.895887340565615" lon="9.049173662554582"><ele>221.0</ele><time>2026-05-02T13:39:03Z</time></trkpt><trkpt lat="44.895748496020275" lon="9.049245350369077"><ele>219.75</ele><time>2026-05-02T13:39:04Z</time></trkpt><trkpt lat="44.89562248974908" lon="9.049327683836776"><ele>218.5</ele><time>2026-05-02T13:39:05Z</time></trkpt><trkpt lat="44.8955135177154" lon="9.049448980963348"><ele>217.25</ele><time>2026-05-02T13:39:06Z</time></trkpt><trkpt lat="44.89539311107839" lon="9.04956935087566"><ele>216.0</ele><time>2026-05-02T13:39:07Z</time></trkpt><trkpt lat="44.895279311236244" lon="9.049679712759502"><ele>216.0</ele><time>2026-05-02T13:39:08Z</time></trkpt><trkpt lat="44.89517241990576" lon="9.049769557518696"><ele>216.0</ele><time>2026-05-02T13:39:09Z</time></trkpt><trkpt lat="44.895045248077984" lon="9.049855174189101"><ele>216.0</ele><time>2026-05-02T13:39:10Z</time></trkpt><trkpt lat="44.89492994633382" lon="9.049914482379243"><ele>216.0</ele><time>2026-05-02T13:39:11Z</time></trkpt><trkpt lat="44.89482218354041" lon="9.049957304133406"><ele>215.0</ele><time>2026-05-02T13:39:12Z</time></trkpt><trkpt lat="44.894721269910015" lon="9.049995152714502"><ele>214.00000000000003</ele><time>2026-05-02T13:39:13Z</time></trkpt><trkpt lat="44.89462836474197" lon="9.050020480592684"><ele>213.0</ele><time>2026-05-02T13:39:14Z</time></trkpt><trkpt lat="44.89452885073128" lon="9.050042517754196"><ele>212.0</ele><time>2026-05-02T13:39:15Z</time></trkpt><trkpt lat="44.89442181247945" lon="9.05006071770841"><ele>211.0</ele><time>2026-05-02T13:39:16Z</time></trkpt><trkpt lat="44.894323745679465" lon="9.050089584126058"><ele>212.5</ele><time>2026-05-02T13:39:17Z</time></trkpt><trkpt lat="44.894239235166346" lon="9.050143623576123"><ele>214.0</ele><time>2026-05-02T13:39:18Z</time></trkpt><trkpt lat="44.89414550897506" lon="9.050226221971254"><ele>215.5</ele><time>2026-05-02T13:39:19Z</time></trkpt><trkpt lat="44.89404046264402" lon="9.050311341628593"><ele>217.0</ele><time>2026-05-02T13:39:20Z</time></trkpt><trkpt lat="44.89391076922855" lon="9.050386499481194"><ele>217.0</ele><time>2026-05-02T13:39:21Z</time></trkpt><trkpt lat="44.89378073454504" lon="9.050442599132317"><ele>217.0</ele><time>2026-05-02T13:39:22Z</time></trkpt><trkpt lat="44.89363622347218" lon="9.050493798786116"><ele>217.0</ele><time>2026-05-02T13:39:23Z</time></trkpt><trkpt lat="44.89349603360438" lon="9.050540140721662"><ele>217.0</ele><time>2026-05-02T13:39:24Z</time></trkpt><trkpt lat="44.89337861712061" lon="9.050582945677986"><ele>217.83333333333331</ele><time>2026-05-02T13:39:25Z</time></trkpt><trkpt lat="44.89328062440346" lon="9.050623162938097"><ele>218.66666666666666</ele><time>2026-05-02T13:39:26Z</time></trkpt><trkpt lat="44.89320545868748" lon="9.050677041099378"><ele>219.5</ele><time>2026-05-02T13:39:27Z</time></trkpt><trkpt lat="44.89314712057218" lon="9.050745167570739"><ele>220.33333333333331</ele><time>2026-05-02T13:39:28Z</time></trkpt><trkpt lat="44.89309555330135" lon="9.050836985692001"><ele>221.16666666666666</ele><time>2026-05-02T13:39:29Z</time></trkpt><trkpt lat="44.89307638009978" lon="9.0509476082947"><ele>222.0</ele><time>2026-05-02T13:39:30Z</time></trkpt><trkpt lat="44.89306842997814" lon="9.051067588635236"><ele>219.8</ele><time>2026-05-02T13:39:31Z</time></trkpt><trkpt lat="44.8930720126995" lon="9.051211921747608"><ele>217.6</ele><time>2026-05-02T13:39:32Z</time></trkpt><trkpt lat="44.89305754974469" lon="9.051374634386605"><ele>215.4</ele><time>2026-05-02T13:39:33Z</time></trkpt><trkpt lat="44.89305272370472" lon="9.051522477181994"><ele>213.20000000000002</ele><time>2026-05-02T13:39:34Z</time></trkpt><trkpt lat="44.89305505187373" lon="9.051666021846513"><ele>211.0</ele><time>2026-05-02T13:39:35Z</time></trkpt><trkpt lat="44.893075717154595" lon="9.051824768405682"><ele>209.25</ele><time>2026-05-02T13:39:36Z</time></trkpt><trkpt lat="44.89311146906314" lon="9.051979294521988"><ele>207.5</ele><time>2026-05-02T13:39:37Z</time></trkpt><trkpt lat="44.893151032036755" lon="9.052137067947111"><ele>205.75</ele><time>2026-05-02T13:39:38Z</time></trkpt><trkpt lat="44.89319682815266" lon="9.052286658771893"><ele>204.0</ele><time>2026-05-02T13:39:39Z</time></trkpt><trkpt lat="44.89323863907726" lon="9.052428981030904"><ele>203.6</ele><time>2026-05-02T13:39:40Z</time></trkpt><trkpt lat="44.893261027684126" lon="9.05256529428555"><ele>203.2</ele><time>2026-05-02T13:39:41Z</time></trkpt><trkpt lat="44.89325833524463" lon="9.052703545828411"><ele>202.79999999999998</ele><time>2026-05-02T13:39:42Z</time></trkpt><trkpt lat="44.89322485933871" lon="9.052847701293892"><ele>202.39999999999998</ele><time>2026-05-02T13:39:43Z</time></trkpt><trkpt lat="44.89315864086461" lon="9.052991266294121"><ele>202.0</ele><time>2026-05-02T13:39:44Z</time></trkpt><trkpt lat="44.89309548453534" lon="9.053129739916512"><ele>202.0</ele><time>2026-05-02T13:39:45Z</time></trkpt><trkpt lat="44.89306005821216" lon="9.053269057427011"><ele>202.0</ele><time>2026-05-02T13:39:46Z</time></trkpt><trkpt lat="44.89305291229899" lon="9.053410501521196"><ele>202.0</ele><time>2026-05-02T13:39:47Z</time></trkpt><trkpt lat="44.89307068878704" lon="9.053559192003437"><ele>202.0</ele><time>2026-05-02T13:39:48Z</time></trkpt><trkpt lat="44.893121436530855" lon="9.053710688362623"><ele>202.0</ele><time>2026-05-02T13:39:49Z</time></trkpt><trkpt lat="44.893182960637716" lon="9.053866316852744"><ele>200.75</ele><time>2026-05-02T13:39:50Z</time></trkpt><trkpt lat="44.89324564815603" lon="9.054000159862927"><ele>199.5</ele><time>2026-05-02T13:39:51Z</time></trkpt><trkpt lat="44.89332107002551" lon="9.054123612821854"><ele>198.25</ele><time>2026-05-02T13:39:52Z</time></trkpt><trkpt lat="44.893423063216" lon="9.054228486362044"><ele>197.0</ele><time>2026-05-02T13:39:53Z</time></trkpt><trkpt lat="44.89353894713027" lon="9.054312078303564"><ele>195.25</ele><time>2026-05-02T13:39:54Z</time></trkpt><trkpt lat="44.89364931259888" lon="9.05440595153768"><ele>193.5</ele><time>2026-05-02T13:39:55Z</time></trkpt><trkpt lat="44.89375495193673" lon="9.054484529384835"><ele>191.75</ele><time>2026-05-02T13:39:56Z</time></trkpt><trkpt lat="44.893846246270996" lon="9.054556240907885"><ele>190.0</ele><time>2026-05-02T13:39:57Z</time></trkpt><trkpt lat="44.8939359253548" lon="9.054654434073063"><ele>190.0</ele><time>2026-05-02T13:39:58Z</time></trkpt><trkpt lat="44.89402587068376" lon="9.054715889010698"><ele>190.0</ele><time>2026-05-02T13:39:59Z</time></trkpt><trkpt lat="44.89410574418073" lon="9.05478776156845"><ele>190.0</ele><time>2026-05-02T13:40:00Z</time></trkpt><trkpt lat="44.89418916132712" lon="9.054860798875195"><ele>190.0</ele><time>2026-05-02T13:40:01Z</time></trkpt><trkpt lat="44.89427127575727" lon="9.054933411914302"><ele>190.0</ele><time>2026-05-02T13:40:02Z</time></trkpt><trkpt lat="44.89434953037241" lon="9.054995389810667"><ele>190.57142857142858</ele><time>2026-05-02T13:40:03Z</time></trkpt><trkpt lat="44.894418361452914" lon="9.055056426564265"><ele>191.14285714285717</ele><time>2026-05-02T13:40:04Z</time></trkpt><trkpt lat="44.89447489334498" lon="9.055109496352168"><ele>191.71428571428572</ele><time>2026-05-02T13:40:05Z</time></trkpt><trkpt lat="44.894533492852254" lon="9.055169078968973"><ele>192.28571428571428</ele><time>2026-05-02T13:40:06Z</time></trkpt><trkpt lat="44.89459351731805" lon="9.055211837027507"><ele>192.85714285714286</ele><time>2026-05-02T13:40:07Z</time></trkpt><trkpt lat="44.89465286733396" lon="9.055264263014328"><ele>193.42857142857142</ele><time>2026-05-02T13:40:08Z</time></trkpt><trkpt lat="44.894714793600535" lon="9.055326104649714"><ele>194.0</ele><time>2026-05-02T13:40:09Z</time></trkpt><trkpt lat="44.89477095452307" lon="9.055375912680237"><ele>194.00000000000003</ele><time>2026-05-02T13:40:10Z</time></trkpt><trkpt lat="44.89483799568121" lon="9.055435707329625"><ele>194.0</ele><time>2026-05-02T13:40:11Z</time></trkpt><trkpt lat="44.89491047810412" lon="9.055490386713062"><ele>194.0</ele><time>2026-05-02T13:40:12Z</time></trkpt><trkpt lat="44.89497132447692" lon="9.055544417044628"><ele>194.0</ele><time>2026-05-02T13:40:13Z</time></trkpt><trkpt lat="44.895057231108616" lon="9.055631391739032"><ele>194.00000000000003</ele><time>2026-05-02T13:40:15Z</time></trkpt><trkpt lat="44.89513780372877" lon="9.055700703346595"><ele>194.0</ele><time>2026-05-02T13:40:16Z</time></trkpt><trkpt lat="44.89521086413847" lon="9.055764130773495"><ele>194.66666666666669</ele><time>2026-05-02T13:40:17Z</time></trkpt><trkpt lat="44.895282358531794" lon="9.055826198470944"><ele>195.33333333333334</ele><time>2026-05-02T13:40:18Z</time></trkpt><trkpt lat="44.89534799158875" lon="9.05588317773943"><ele>196.0</ele><time>2026-05-02T13:40:19Z</time></trkpt><trkpt lat="44.895420394634826" lon="9.055932268441651"><ele>196.66666666666669</ele><time>2026-05-02T13:40:20Z</time></trkpt><trkpt lat="44.89550315842686" lon="9.05600029081834"><ele>197.33333333333334</ele><time>2026-05-02T13:40:21Z</time></trkpt><trkpt lat="44.89557762488882" lon="9.056083251115183"><ele>198.0</ele><time>2026-05-02T13:40:22Z</time></trkpt><trkpt lat="44.8956460746184" lon="9.0561344133947"><ele>198.0</ele><time>2026-05-02T13:40:23Z</time></trkpt><trkpt lat="44.89571061583753" lon="9.056195935531647"><ele>198.0</ele><time>2026-05-02T13:40:24Z</time></trkpt><trkpt lat="44.89579842379184" lon="9.056296896893251"><ele>198.0</ele><time>2026-05-02T13:40:26Z</time></trkpt><trkpt lat="44.89585823643121" lon="9.056349705192021"><ele>198.0</ele><time>2026-05-02T13:40:28Z</time></trkpt><trkpt lat="44.89593020893802" lon="9.056412942093958"><ele>198.0</ele><time>2026-05-02T13:40:40Z</time></trkpt><trkpt lat="44.896038705833234" lon="9.056284873061944"><ele>198.0</ele><time>2026-05-02T13:40:42Z</time></trkpt><trkpt lat="44.896090921693194" lon="9.056199174399918"><ele>198.0</ele><time>2026-05-02T13:40:44Z</time></trkpt><trkpt lat="44.89621655206856" lon="9.056334407296813"><ele>198.0</ele><time>2026-05-02T13:40:49Z</time></trkpt><trkpt lat="44.89627273373637" lon="9.056413888046698"><ele>198.0</ele><time>2026-05-02T13:40:50Z</time></trkpt><trkpt lat="44.896329651261496" lon="9.056505544587356"><ele>198.0</ele><time>2026-05-02T13:40:52Z</time></trkpt><trkpt lat="44.89624923333353" lon="9.056661768521302"><ele>198.60000000000002</ele><time>2026-05-02T13:40:56Z</time></trkpt><trkpt lat="44.89619517655441" lon="9.056743931984627"><ele>199.20000000000002</ele><time>2026-05-02T13:40:57Z</time></trkpt><trkpt lat="44.896162518327145" lon="9.056840897425673"><ele>199.8</ele><time>2026-05-02T13:40:58Z</time></trkpt><trkpt lat="44.89611820814825" lon="9.05693791068083"><ele>200.4</ele><time>2026-05-02T13:41:00Z</time></trkpt><trkpt lat="44.89621308660175" lon="9.057109915140781"><ele>201.0</ele><time>2026-05-02T13:41:05Z</time></trkpt><trkpt lat="44.89627722796074" lon="9.057143171822236"><ele>201.0</ele><time>2026-05-02T13:41:06Z</time></trkpt><trkpt lat="44.89634630547355" lon="9.05725408913281"><ele>201.0</ele><time>2026-05-02T13:41:08Z</time></trkpt><trkpt lat="44.89638480286886" lon="9.057337456272675"><ele>201.0</ele><time>2026-05-02T13:41:09Z</time></trkpt><trkpt lat="44.89644008787878" lon="9.057449282097426"><ele>201.0</ele><time>2026-05-02T13:41:10Z</time></trkpt><trkpt lat="44.896491084542696" lon="9.057559474165853"><ele>201.0</ele><time>2026-05-02T13:41:11Z</time></trkpt><trkpt lat="44.896559378819084" lon="9.057688531396321"><ele>202.0</ele><time>2026-05-02T13:41:12Z</time></trkpt><trkpt lat="44.896610197142486" lon="9.057779422798163"><ele>203.0</ele><time>2026-05-02T13:41:13Z</time></trkpt><trkpt lat="44.896664495427316" lon="9.057854240635166"><ele>204.0</ele><time>2026-05-02T13:41:14Z</time></trkpt><trkpt lat="44.89671028244658" lon="9.057950544905204"><ele>205.0</ele><time>2026-05-02T13:41:16Z</time></trkpt><trkpt lat="44.89657988888909" lon="9.05808020857894"><ele>206.0</ele><time>2026-05-02T13:41:19Z</time></trkpt><trkpt lat="44.89651948686003" lon="9.058168019070079"><ele>206.00000000000003</ele><time>2026-05-02T13:41:20Z</time></trkpt><trkpt lat="44.89645965787425" lon="9.058223636552098"><ele>206.0</ele><time>2026-05-02T13:41:21Z</time></trkpt><trkpt lat="44.896399861320795" lon="9.058284107514336"><ele>206.0</ele><time>2026-05-02T13:41:22Z</time></trkpt><trkpt lat="44.89633787482154" lon="9.058338384810948"><ele>206.0</ele><time>2026-05-02T13:41:23Z</time></trkpt><trkpt lat="44.89627357865056" lon="9.058386559025948"><ele>206.00000000000003</ele><time>2026-05-02T13:41:24Z</time></trkpt><trkpt lat="44.89619699752091" lon="9.058417410384155"><ele>206.0</ele><time>2026-05-02T13:41:25Z</time></trkpt><trkpt lat="44.89613115061373" lon="9.058489276385233"><ele>206.75</ele><time>2026-05-02T13:41:26Z</time></trkpt><trkpt lat="44.896048727033225" lon="9.058566199711198"><ele>207.5</ele><time>2026-05-02T13:41:27Z</time></trkpt><trkpt lat="44.89594991329857" lon="9.058677078420311"><ele>208.25</ele><time>2026-05-02T13:41:28Z</time></trkpt><trkpt lat="44.89585765287596" lon="9.0588129611013"><ele>209.0</ele><time>2026-05-02T13:41:29Z</time></trkpt><trkpt lat="44.895778273759746" lon="9.058932284395453"><ele>208.39999999999998</ele><time>2026-05-02T13:41:30Z</time></trkpt><trkpt lat="44.89571049193142" lon="9.059048471120358"><ele>207.8</ele><time>2026-05-02T13:41:31Z</time></trkpt><trkpt lat="44.895628582773256" lon="9.059152064433395"><ele>207.2</ele><time>2026-05-02T13:41:32Z</time></trkpt><trkpt lat="44.89555324233656" lon="9.059242311078004"><ele>206.60000000000002</ele><time>2026-05-02T13:41:33Z</time></trkpt><trkpt lat="44.89548619934811" lon="9.059332254828785"><ele>206.0</ele><time>2026-05-02T13:41:34Z</time></trkpt><trkpt lat="44.89542134816873" lon="9.059416307258406"><ele>206.00000000000003</ele><time>2026-05-02T13:41:35Z</time></trkpt><trkpt lat="44.8953656680559" lon="9.059491306465928"><ele>206.0</ele><time>2026-05-02T13:41:36Z</time></trkpt><trkpt lat="44.895299796422364" lon="9.059533972222697"><ele>206.0</ele><time>2026-05-02T13:41:37Z</time></trkpt><trkpt lat="44.89521184282874" lon="9.059600734764574"><ele>206.0</ele><time>2026-05-02T13:41:39Z</time></trkpt><trkpt lat="44.89514522998947" lon="9.05962424454363"><ele>206.00000000000003</ele><time>2026-05-02T13:41:41Z</time></trkpt><trkpt lat="44.89507859661944" lon="9.059707069611981"><ele>206.0</ele><time>2026-05-02T13:41:45Z</time></trkpt><trkpt lat="44.89505374657488" lon="9.059882783273094"><ele>205.25</ele><time>2026-05-02T13:41:47Z</time></trkpt><trkpt lat="44.89502251678795" lon="9.060032803396341"><ele>204.5</ele><time>2026-05-02T13:41:48Z</time></trkpt><trkpt lat="44.89496939449587" lon="9.060188391593675"><ele>203.75</ele><time>2026-05-02T13:41:49Z</time></trkpt><trkpt lat="44.894932986687195" lon="9.060373902023233"><ele>203.0</ele><time>2026-05-02T13:41:50Z</time></trkpt><trkpt lat="44.894905870496345" lon="9.060580850358146"><ele>203.0</ele><time>2026-05-02T13:41:51Z</time></trkpt><trkpt lat="44.894893144495526" lon="9.060764408546005"><ele>203.0</ele><time>2026-05-02T13:41:52Z</time></trkpt><trkpt lat="44.894885675142994" lon="9.060952262826762"><ele>203.0</ele><time>2026-05-02T13:41:53Z</time></trkpt><trkpt lat="44.89489048181182" lon="9.06114642408115"><ele>203.0</ele><time>2026-05-02T13:41:54Z</time></trkpt><trkpt lat="44.89487800635509" lon="9.061327555279142"><ele>203.5</ele><time>2026-05-02T13:41:55Z</time></trkpt><trkpt lat="44.89485130304408" lon="9.061509669682152"><ele>204.0</ele><time>2026-05-02T13:41:56Z</time></trkpt><trkpt lat="44.89478792618248" lon="9.06167252435555"><ele>204.5</ele><time>2026-05-02T13:41:57Z</time></trkpt><trkpt lat="44.89472572490885" lon="9.061852605435133"><ele>205.0</ele><time>2026-05-02T13:41:58Z</time></trkpt><trkpt lat="44.89465079126931" lon="9.062050148854818"><ele>206.66666666666666</ele><time>2026-05-02T13:41:59Z</time></trkpt><trkpt lat="44.89457780791638" lon="9.062245257653746"><ele>208.33333333333331</ele><time>2026-05-02T13:42:00Z</time></trkpt><trkpt lat="44.89449826694962" lon="9.062456990654619"><ele>210.0</ele><time>2026-05-02T13:42:01Z</time></trkpt><trkpt lat="44.89443037025138" lon="9.062640935558644"><ele>211.0</ele><time>2026-05-02T13:42:02Z</time></trkpt><trkpt lat="44.89437885601319" lon="9.062837106876003"><ele>212.0</ele><time>2026-05-02T13:42:03Z</time></trkpt><trkpt lat="44.89431982600811" lon="9.063028553989032"><ele>213.0</ele><time>2026-05-02T13:42:04Z</time></trkpt><trkpt lat="44.89427380047516" lon="9.063242365181518"><ele>210.66666666666669</ele><time>2026-05-02T13:42:05Z</time></trkpt><trkpt lat="44.894241415896964" lon="9.063472951628968"><ele>208.33333333333334</ele><time>2026-05-02T13:42:06Z</time></trkpt><trkpt lat="44.89421824496108" lon="9.063685209425335"><ele>206.0</ele><time>2026-05-02T13:42:07Z</time></trkpt><trkpt lat="44.89419538505345" lon="9.063884575081511"><ele>206.0</ele><time>2026-05-02T13:42:08Z</time></trkpt><trkpt lat="44.89416433711484" lon="9.064099676855"><ele>206.0</ele><time>2026-05-02T13:42:09Z</time></trkpt><trkpt lat="44.894144389664795" lon="9.064297467475656"><ele>206.0</ele><time>2026-05-02T13:42:10Z</time></trkpt><trkpt lat="44.89411252862844" lon="9.064516903487924"><ele>206.66666666666669</ele><time>2026-05-02T13:42:11Z</time></trkpt><trkpt lat="44.8941241514927" lon="9.06470988897727"><ele>207.33333333333331</ele><time>2026-05-02T13:42:12Z</time></trkpt><trkpt lat="44.89414801852126" lon="9.064928065383679"><ele>208.0</ele><time>2026-05-02T13:42:13Z</time></trkpt><trkpt lat="44.89418277995696" lon="9.06516143092044"><ele>209.0</ele><time>2026-05-02T13:42:14Z</time></trkpt><trkpt lat="44.89421681118232" lon="9.065397252742006"><ele>210.0</ele><time>2026-05-02T13:42:15Z</time></trkpt><trkpt lat="44.89423757902657" lon="9.065592360109878"><ele>211.0</ele><time>2026-05-02T13:42:16Z</time></trkpt><trkpt lat="44.89426176907235" lon="9.065807181119604"><ele>210.25</ele><time>2026-05-02T13:42:17Z</time></trkpt><trkpt lat="44.89427542911705" lon="9.066018975552911"><ele>209.5</ele><time>2026-05-02T13:42:18Z</time></trkpt><trkpt lat="44.89424629074977" lon="9.066227335165713"><ele>208.75</ele><time>2026-05-02T13:42:19Z</time></trkpt><trkpt lat="44.89420940139462" lon="9.066411156218663"><ele>208.0</ele><time>2026-05-02T13:42:20Z</time></trkpt><trkpt lat="44.89415857020105" lon="9.066597449325855"><ele>209.33333333333331</ele><time>2026-05-02T13:42:21Z</time></trkpt><trkpt lat="44.894093439810554" lon="9.066807104442926"><ele>210.66666666666669</ele><time>2026-05-02T13:42:22Z</time></trkpt><trkpt lat="44.89403803959443" lon="9.067031490328432"><ele>212.0</ele><time>2026-05-02T13:42:23Z</time></trkpt><trkpt lat="44.89398212273408" lon="9.06723297733082"><ele>212.0</ele><time>2026-05-02T13:42:24Z</time></trkpt><trkpt lat="44.893954167913485" lon="9.0674170034382"><ele>212.0</ele><time>2026-05-02T13:42:25Z</time></trkpt><trkpt lat="44.893958212944916" lon="9.067601831754892"><ele>212.0</ele><time>2026-05-02T13:42:26Z</time></trkpt><trkpt lat="44.89399494158579" lon="9.06781278447094"><ele>212.0</ele><time>2026-05-02T13:42:27Z</time></trkpt><trkpt lat="44.89405750267447" lon="9.068048699268504"><ele>210.66666666666669</ele><time>2026-05-02T13:42:28Z</time></trkpt><trkpt lat="44.89410982494009" lon="9.068290033987"><ele>209.33333333333331</ele><time>2026-05-02T13:42:29Z</time></trkpt><trkpt lat="44.894149781269604" lon="9.068519557226901"><ele>208.0</ele><time>2026-05-02T13:42:30Z</time></trkpt><trkpt lat="44.89418891533396" lon="9.06870865477536"><ele>208.0</ele><time>2026-05-02T13:42:31Z</time></trkpt><trkpt lat="44.894244765295454" lon="9.068924387874999"><ele>208.0</ele><time>2026-05-02T13:42:32Z</time></trkpt><trkpt lat="44.89431656196937" lon="9.069134410800523"><ele>208.0</ele><time>2026-05-02T13:42:33Z</time></trkpt><trkpt lat="44.894383384759735" lon="9.069303848055448"><ele>212.0</ele><time>2026-05-02T13:42:34Z</time></trkpt><trkpt lat="44.89443476695627" lon="9.06947006789491"><ele>216.0</ele><time>2026-05-02T13:42:35Z</time></trkpt><trkpt lat="44.89444640480561" lon="9.069633733001503"><ele>220.0</ele><time>2026-05-02T13:42:36Z</time></trkpt><trkpt lat="44.89444407210069" lon="9.069808573629357"><ele>224.0</ele><time>2026-05-02T13:42:37Z</time></trkpt><trkpt lat="44.89443359444682" lon="9.07000458346792"><ele>224.0</ele><time>2026-05-02T13:42:38Z</time></trkpt><trkpt lat="44.894424721329656" lon="9.07021490431053"><ele>224.0</ele><time>2026-05-02T13:42:39Z</time></trkpt><trkpt lat="44.894355140207864" lon="9.07039274011534"><ele>224.0</ele><time>2026-05-02T13:42:40Z</time></trkpt><trkpt lat="44.89431487457685" lon="9.070579455362452"><ele>224.0</ele><time>2026-05-02T13:42:41Z</time></trkpt><trkpt lat="44.89427314649295" lon="9.070770888707715"><ele>224.33333333333334</ele><time>2026-05-02T13:42:42Z</time></trkpt><trkpt lat="44.894287857388065" lon="9.070977596357698"><ele>224.66666666666669</ele><time>2026-05-02T13:42:43Z</time></trkpt><trkpt lat="44.89432226045416" lon="9.07120275867761"><ele>225.0</ele><time>2026-05-02T13:42:44Z</time></trkpt><trkpt lat="44.89432909072713" lon="9.07143648750051"><ele>223.75</ele><time>2026-05-02T13:42:45Z</time></trkpt><trkpt lat="44.89434932974808" lon="9.071649414955845"><ele>222.5</ele><time>2026-05-02T13:42:46Z</time></trkpt><trkpt lat="44.89434545109187" lon="9.071870613146032"><ele>221.25</ele><time>2026-05-02T13:42:47Z</time></trkpt><trkpt lat="44.89433915068327" lon="9.072060636169503"><ele>220.0</ele><time>2026-05-02T13:42:48Z</time></trkpt><trkpt lat="44.89435059618819" lon="9.072231513763342"><ele>220.0</ele><time>2026-05-02T13:42:49Z</time></trkpt><trkpt lat="44.89439370867059" lon="9.07240997458696"><ele>220.0</ele><time>2026-05-02T13:42:50Z</time></trkpt><trkpt lat="44.89447466013583" lon="9.07259226160353"><ele>220.0</ele><time>2026-05-02T13:42:51Z</time></trkpt><trkpt lat="44.89458448522713" lon="9.0727448865448"><ele>220.0</ele><time>2026-05-02T13:42:52Z</time></trkpt><trkpt lat="44.89469759653087" lon="9.07291171385188"><ele>219.66666666666666</ele><time>2026-05-02T13:42:53Z</time></trkpt><trkpt lat="44.89478880439087" lon="9.07311031802192"><ele>219.33333333333331</ele><time>2026-05-02T13:42:54Z</time></trkpt><trkpt lat="44.89483498362932" lon="9.0733225572651"><ele>219.0</ele><time>2026-05-02T13:42:55Z</time></trkpt><trkpt lat="44.8948894500028" lon="9.073545226410618"><ele>220.5</ele><time>2026-05-02T13:42:56Z</time></trkpt><trkpt lat="44.89493821611303" lon="9.073727320111804"><ele>222.0</ele><time>2026-05-02T13:42:57Z</time></trkpt><trkpt lat="44.89495984919842" lon="9.073898667620714"><ele>223.5</ele><time>2026-05-02T13:42:58Z</time></trkpt><trkpt lat="44.89495281150716" lon="9.074074169740571"><ele>225.0</ele><time>2026-05-02T13:42:59Z</time></trkpt><trkpt lat="44.89493752266531" lon="9.074247317948267"><ele>226.0</ele><time>2026-05-02T13:43:00Z</time></trkpt><trkpt lat="44.89484635824591" lon="9.074406614442006"><ele>227.0</ele><time>2026-05-02T13:43:01Z</time></trkpt><trkpt lat="44.8947677712672" lon="9.074603626866471"><ele>228.0</ele><time>2026-05-02T13:43:02Z</time></trkpt><trkpt lat="44.894675025878534" lon="9.074798140691106"><ele>228.25</ele><time>2026-05-02T13:43:03Z</time></trkpt><trkpt lat="44.894606891952336" lon="9.074967809122208"><ele>228.5</ele><time>2026-05-02T13:43:04Z</time></trkpt><trkpt lat="44.89456274894289" lon="9.075148018633296"><ele>228.75</ele><time>2026-05-02T13:43:05Z</time></trkpt><trkpt lat="44.894542855322136" lon="9.075356335848216"><ele>229.0</ele><time>2026-05-02T13:43:06Z</time></trkpt><trkpt lat="44.8945445414706" lon="9.07560243539013"><ele>229.5</ele><time>2026-05-02T13:43:07Z</time></trkpt><trkpt lat="44.89455652073121" lon="9.075822678684254"><ele>230.0</ele><time>2026-05-02T13:43:08Z</time></trkpt><trkpt lat="44.89456768453486" lon="9.076008262286727"><ele>230.5</ele><time>2026-05-02T13:43:09Z</time></trkpt><trkpt lat="44.89459195804133" lon="9.076172295723984"><ele>231.0</ele><time>2026-05-02T13:43:10Z</time></trkpt><trkpt lat="44.89464991624678" lon="9.076338652020548"><ele>231.0</ele><time>2026-05-02T13:43:11Z</time></trkpt><trkpt lat="44.89473804888547" lon="9.07647057210864"><ele>231.0</ele><time>2026-05-02T13:43:12Z</time></trkpt><trkpt lat="44.894831416428644" lon="9.076579447048022"><ele>231.0</ele><time>2026-05-02T13:43:13Z</time></trkpt><trkpt lat="44.89494326274127" lon="9.076689194460421"><ele>231.0</ele><time>2026-05-02T13:43:14Z</time></trkpt><trkpt lat="44.895062809236926" lon="9.076779168622966"><ele>232.66666666666666</ele><time>2026-05-02T13:43:15Z</time></trkpt><trkpt lat="44.89515717881007" lon="9.07685319165085"><ele>234.33333333333331</ele><time>2026-05-02T13:43:16Z</time></trkpt><trkpt lat="44.89522139230261" lon="9.076928074105906"><ele>236.0</ele><time>2026-05-02T13:43:17Z</time></trkpt><trkpt lat="44.89525922314904" lon="9.077000950598217"><ele>237.66666666666666</ele><time>2026-05-02T13:43:18Z</time></trkpt><trkpt lat="44.895276151366694" lon="9.077092437264332"><ele>239.33333333333331</ele><time>2026-05-02T13:43:52Z</time></trkpt><trkpt lat="44.8953082507178" lon="9.077173836038737"><ele>241.0</ele><time>2026-05-02T13:44:00Z</time></trkpt><trkpt lat="44.89509048639104" lon="9.077267367086526"><ele>237.99999999999997</ele><time>2026-05-02T13:44:06Z</time></trkpt><trkpt lat="44.895020713138045" lon="9.07727730239865"><ele>235.0</ele><time>2026-05-02T13:44:08Z</time></trkpt><trkpt lat="44.89495905050786" lon="9.077308779023433"><ele>232.0</ele><time>2026-05-02T13:44:10Z</time></trkpt><trkpt lat="44.894878347410774" lon="9.077326844338097"><ele>229.0</ele><time>2026-05-02T13:44:12Z</time></trkpt><trkpt lat="44.8947942542733" lon="9.077318735407944"><ele>225.99999999999997</ele><time>2026-05-02T13:44:14Z</time></trkpt><trkpt lat="44.89467242634538" lon="9.077370816867896"><ele>223.0</ele><time>2026-05-02T13:44:16Z</time></trkpt><trkpt lat="44.89460660044267" lon="9.077412904344927"><ele>222.33333333333331</ele><time>2026-05-02T13:44:17Z</time></trkpt><trkpt lat="44.89454187315696" lon="9.077455573132008"><ele>221.66666666666666</ele><time>2026-05-02T13:44:18Z</time></trkpt><trkpt lat="44.89447835544169" lon="9.077477825305968"><ele>221.0</ele><time>2026-05-02T13:44:19Z</time></trkpt><trkpt lat="44.894373906504526" lon="9.07749249206606"><ele>220.33333333333331</ele><time>2026-05-02T13:44:21Z</time></trkpt><trkpt lat="44.89427195930323" lon="9.077446156503258"><ele>219.66666666666666</ele><time>2026-05-02T13:44:23Z</time></trkpt><trkpt lat="44.89422047301515" lon="9.077390289714423"><ele>219.0</ele><time>2026-05-02T13:44:24Z</time></trkpt><trkpt lat="44.894175128131856" lon="9.07728247553059"><ele>218.25</ele><time>2026-05-02T13:44:26Z</time></trkpt><trkpt lat="44.894104004919654" lon="9.077286775495802"><ele>217.5</ele><time>2026-05-02T13:44:31Z</time></trkpt><trkpt lat="44.89403029627321" lon="9.077351130954408"><ele>216.75</ele><time>2026-05-02T13:44:42Z</time></trkpt><trkpt lat="44.893893348879914" lon="9.077053700346035"><ele>216.0</ele><time>2026-05-02T13:44:47Z</time></trkpt><trkpt lat="44.893868156836604" lon="9.076960405597237"><ele>216.0</ele><time>2026-05-02T13:44:48Z</time></trkpt><trkpt lat="44.893844115604196" lon="9.076778040033709"><ele>216.0</ele><time>2026-05-02T13:44:50Z</time></trkpt><trkpt lat="44.893840696261734" lon="9.076678920252112"><ele>216.0</ele><time>2026-05-02T13:44:51Z</time></trkpt><trkpt lat="44.89384210561907" lon="9.076579498781562"><ele>216.0</ele><time>2026-05-02T13:44:52Z</time></trkpt><trkpt lat="44.893813834071814" lon="9.07647297756193"><ele>216.0</ele><time>2026-05-02T13:44:54Z</time></trkpt><trkpt lat="44.893726796274926" lon="9.076430124133008"><ele>216.0</ele><time>2026-05-02T13:44:56Z</time></trkpt><trkpt lat="44.89365741288156" lon="9.076437398566624"><ele>216.25</ele><time>2026-05-02T13:44:57Z</time></trkpt><trkpt lat="44.89358352933039" lon="9.07649218706297"><ele>216.5</ele><time>2026-05-02T13:44:58Z</time></trkpt><trkpt lat="44.893471491599975" lon="9.076571728730759"><ele>216.75</ele><time>2026-05-02T13:44:59Z</time></trkpt><trkpt lat="44.8933415564031" lon="9.076631471699967"><ele>217.0</ele><time>2026-05-02T13:45:00Z</time></trkpt><trkpt lat="44.89318246155692" lon="9.076672700880508"><ele>217.0</ele><time>2026-05-02T13:45:01Z</time></trkpt><trkpt lat="44.89303588170482" lon="9.076712435918285"><ele>217.0</ele><time>2026-05-02T13:45:02Z</time></trkpt><trkpt lat="44.8929026270125" lon="9.076740989398575"><ele>217.0</ele><time>2026-05-02T13:45:03Z</time></trkpt><trkpt lat="44.89280742578052" lon="9.07676651498829"><ele>217.0</ele><time>2026-05-02T13:45:04Z</time></trkpt><trkpt lat="44.89271346808265" lon="9.076819687042345"><ele>217.0</ele><time>2026-05-02T13:45:05Z</time></trkpt><trkpt lat="44.892631484320745" lon="9.076884360354587"><ele>217.0</ele><time>2026-05-02T13:45:06Z</time></trkpt><trkpt lat="44.892532005483716" lon="9.07696299180541"><ele>217.0</ele><time>2026-05-02T13:45:07Z</time></trkpt><trkpt lat="44.89245030799976" lon="9.077028533903578"><ele>217.0</ele><time>2026-05-02T13:45:08Z</time></trkpt><trkpt lat="44.89238563687833" lon="9.077097939155783"><ele>217.0</ele><time>2026-05-02T13:45:09Z</time></trkpt><trkpt lat="44.892324669385715" lon="9.077193338418983"><ele>221.0</ele><time>2026-05-02T13:45:10Z</time></trkpt><trkpt lat="44.89224707632028" lon="9.077274979748005"><ele>225.0</ele><time>2026-05-02T13:45:11Z</time></trkpt><trkpt lat="44.89215899342392" lon="9.077346294767949"><ele>229.0</ele><time>2026-05-02T13:45:12Z</time></trkpt><trkpt lat="44.892024142426145" lon="9.07741738357682"><ele>233.0</ele><time>2026-05-02T13:45:13Z</time></trkpt><trkpt lat="44.891899314390535" lon="9.077441620507285"><ele>233.4</ele><time>2026-05-02T13:45:14Z</time></trkpt><trkpt lat="44.89180050306023" lon="9.07745956078124"><ele>233.8</ele><time>2026-05-02T13:45:15Z</time></trkpt><trkpt lat="44.8916970501417" lon="9.077475608770095"><ele>234.2</ele><time>2026-05-02T13:45:16Z</time></trkpt><trkpt lat="44.89163050210042" lon="9.077437754906304"><ele>234.6</ele><time>2026-05-02T13:45:17Z</time></trkpt><trkpt lat="44.891538862316985" lon="9.077375610324228"><ele>235.0</ele><time>2026-05-02T13:45:18Z</time></trkpt><trkpt lat="44.8914468838423" lon="9.077320117024748"><ele>238.0</ele><time>2026-05-02T13:45:19Z</time></trkpt><trkpt lat="44.891375558789065" lon="9.077321379711497"><ele>241.0</ele><time>2026-05-02T13:45:20Z</time></trkpt><trkpt lat="44.891294429393895" lon="9.077345630929596"><ele>244.0</ele><time>2026-05-02T13:45:21Z</time></trkpt><trkpt lat="44.89118587417176" lon="9.077388410595153"><ele>247.0</ele><time>2026-05-02T13:45:22Z</time></trkpt><trkpt lat="44.89105856906049" lon="9.077406615134691"><ele>250.0</ele><time>2026-05-02T13:45:23Z</time></trkpt><trkpt lat="44.89095322202156" lon="9.07739933424265"><ele>250.8</ele><time>2026-05-02T13:45:24Z</time></trkpt><trkpt lat="44.89088744968481" lon="9.07739361801106"><ele>251.6</ele><time>2026-05-02T13:45:25Z</time></trkpt><trkpt lat="44.89077425429831" lon="9.077450897045596"><ele>252.39999999999998</ele><time>2026-05-02T13:45:27Z</time></trkpt><trkpt lat="44.8907035490016" lon="9.077497715017746"><ele>253.2</ele><time>2026-05-02T13:45:29Z</time></trkpt><trkpt lat="44.89062866982799" lon="9.077496662651416"><ele>254.0</ele><time>2026-05-02T13:45:32Z</time></trkpt><trkpt lat="44.89051247616511" lon="9.07753974675105"><ele>254.0</ele><time>2026-05-02T13:45:34Z</time></trkpt><trkpt lat="44.89040860972448" lon="9.077560022615089"><ele>253.99999999999997</ele><time>2026-05-02T13:45:35Z</time></trkpt><trkpt lat="44.8902984143503" lon="9.077602038142969"><ele>253.99999999999997</ele><time>2026-05-02T13:45:36Z</time></trkpt><trkpt lat="44.89020847028274" lon="9.077671962193977"><ele>254.0</ele><time>2026-05-02T13:45:37Z</time></trkpt><trkpt lat="44.8901305333346" lon="9.077740435430394"><ele>254.0</ele><time>2026-05-02T13:45:38Z</time></trkpt><trkpt lat="44.89004397096647" lon="9.077844337066669"><ele>256.2</ele><time>2026-05-02T13:45:39Z</time></trkpt><trkpt lat="44.88996005358359" lon="9.077930309050721"><ele>258.4</ele><time>2026-05-02T13:45:40Z</time></trkpt><trkpt lat="44.88987511778038" lon="9.077993300787348"><ele>260.6</ele><time>2026-05-02T13:45:41Z</time></trkpt><trkpt lat="44.88978824465341" lon="9.078053736253937"><ele>262.8</ele><time>2026-05-02T13:45:42Z</time></trkpt><trkpt lat="44.8897091118001" lon="9.078119880892265"><ele>265.0</ele><time>2026-05-02T13:45:43Z</time></trkpt><trkpt lat="44.88964538890249" lon="9.078155004057871"><ele>265.0</ele><time>2026-05-02T13:45:44Z</time></trkpt><trkpt lat="44.88953981588022" lon="9.078117136626354"><ele>265.0</ele><time>2026-05-02T13:45:46Z</time></trkpt><trkpt lat="44.88947183734087" lon="9.078037695814313"><ele>265.0</ele><time>2026-05-02T13:45:47Z</time></trkpt><trkpt lat="44.88938972805938" lon="9.077928567741763"><ele>265.0</ele><time>2026-05-02T13:45:48Z</time></trkpt><trkpt lat="44.8893088741753" lon="9.077827433055555"><ele>265.0</ele><time>2026-05-02T13:45:49Z</time></trkpt><trkpt lat="44.88925201530952" lon="9.077715097873664"><ele>267.6</ele><time>2026-05-02T13:45:50Z</time></trkpt><trkpt lat="44.88920794409904" lon="9.07756918599069"><ele>270.2</ele><time>2026-05-02T13:45:51Z</time></trkpt><trkpt lat="44.889162179109185" lon="9.077416635218366"><ele>272.8</ele><time>2026-05-02T13:45:52Z</time></trkpt><trkpt lat="44.88909750011184" lon="9.077297523798665"><ele>275.4</ele><time>2026-05-02T13:45:53Z</time></trkpt><trkpt lat="44.88903006407099" lon="9.07722411518598"><ele>278.0</ele><time>2026-05-02T13:45:54Z</time></trkpt><trkpt lat="44.88895218188151" lon="9.077173927068063"><ele>281.2</ele><time>2026-05-02T13:45:55Z</time></trkpt><trkpt lat="44.888832066877534" lon="9.077118059569049"><ele>284.4</ele><time>2026-05-02T13:45:56Z</time></trkpt><trkpt lat="44.888736186506016" lon="9.077061288616989"><ele>287.59999999999997</ele><time>2026-05-02T13:45:57Z</time></trkpt><trkpt lat="44.88866670085689" lon="9.076960866269964"><ele>290.8</ele><time>2026-05-02T13:45:59Z</time></trkpt><trkpt lat="44.88865091095971" lon="9.07682645701049"><ele>294.0</ele><time>2026-05-02T13:46:02Z</time></trkpt><trkpt lat="44.88858302461374" lon="9.076711288766012"><ele>294.0</ele><time>2026-05-02T13:46:04Z</time></trkpt><trkpt lat="44.88862961179982" lon="9.076809496510965"><ele>294.0</ele><time>2026-05-02T13:46:36Z</time></trkpt><trkpt lat="44.88865216984935" lon="9.076924611923175"><ele>294.0</ele><time>2026-05-02T13:46:39Z</time></trkpt><trkpt lat="44.88869803835159" lon="9.077020053914229"><ele>294.0</ele><time>2026-05-02T13:46:42Z</time></trkpt><trkpt lat="44.88866110015595" lon="9.077112206217834"><ele>294.0</ele><time>2026-05-02T13:46:46Z</time></trkpt><trkpt lat="44.88859351646394" lon="9.07711434105812"><ele>294.0</ele><time>2026-05-02T13:46:49Z</time></trkpt><trkpt lat="44.88847232275549" lon="9.077104051191307"><ele>295.4</ele><time>2026-05-02T13:46:51Z</time></trkpt><trkpt lat="44.88837327198927" lon="9.077100974468426"><ele>296.79999999999995</ele><time>2026-05-02T13:46:52Z</time></trkpt><trkpt lat="44.88828813803133" lon="9.077088324360409"><ele>298.20000000000005</ele><time>2026-05-02T13:46:53Z</time></trkpt><trkpt lat="44.88822004529705" lon="9.077068871686857"><ele>299.6</ele><time>2026-05-02T13:46:54Z</time></trkpt><trkpt lat="44.888152928607155" lon="9.07704020159349"><ele>301.0</ele><time>2026-05-02T13:46:55Z</time></trkpt><trkpt lat="44.88801793257047" lon="9.077014754083235"><ele>301.0</ele><time>2026-05-02T13:46:57Z</time></trkpt><trkpt lat="44.88787967053169" lon="9.076925598494977"><ele>301.0</ele><time>2026-05-02T13:46:59Z</time></trkpt><trkpt lat="44.88783242743151" lon="9.076847583101106"><ele>301.0</ele><time>2026-05-02T13:47:00Z</time></trkpt><trkpt lat="44.88777868691382" lon="9.076764494493851"><ele>301.0</ele><time>2026-05-02T13:47:01Z</time></trkpt><trkpt lat="44.88772907307502" lon="9.076707800356992"><ele>301.0</ele><time>2026-05-02T13:47:02Z</time></trkpt><trkpt lat="44.88761761543563" lon="9.076614956159817"><ele>304.16666666666663</ele><time>2026-05-02T13:47:04Z</time></trkpt><trkpt lat="44.88753282914425" lon="9.07654878216873"><ele>307.3333333333333</ele><time>2026-05-02T13:47:05Z</time></trkpt><trkpt lat="44.887459652010854" lon="9.076514344157145"><ele>310.5</ele><time>2026-05-02T13:47:06Z</time></trkpt><trkpt lat="44.887365364616635" lon="9.076513167605588"><ele>313.6666666666667</ele><time>2026-05-02T13:47:08Z</time></trkpt><trkpt lat="44.88734010596204" lon="9.076667286607899"><ele>316.83333333333337</ele><time>2026-05-02T13:47:11Z</time></trkpt><trkpt lat="44.88732121610527" lon="9.076756102477772"><ele>320.0</ele><time>2026-05-02T13:47:12Z</time></trkpt><trkpt lat="44.88727791834309" lon="9.076872788186705"><ele>320.0</ele><time>2026-05-02T13:47:13Z</time></trkpt><trkpt lat="44.88723581041386" lon="9.076956767897375"><ele>320.0</ele><time>2026-05-02T13:47:14Z</time></trkpt><trkpt lat="44.887101387375154" lon="9.077032994716916"><ele>320.0</ele><time>2026-05-02T13:47:16Z</time></trkpt><trkpt lat="44.88701083135274" lon="9.077089395124771"><ele>320.0</ele><time>2026-05-02T13:47:17Z</time></trkpt><trkpt lat="44.88694879528004" lon="9.077136841641487"><ele>320.0</ele><time>2026-05-02T13:47:18Z</time></trkpt><trkpt lat="44.88686990398219" lon="9.077186261262659"><ele>320.0</ele><time>2026-05-02T13:47:19Z</time></trkpt><trkpt lat="44.88678282723555" lon="9.077235745868437"><ele>320.0</ele><time>2026-05-02T13:47:20Z</time></trkpt><trkpt lat="44.886701631459125" lon="9.077276544121242"><ele>320.0</ele><time>2026-05-02T13:47:21Z</time></trkpt><trkpt lat="44.88663174143578" lon="9.077304875804813"><ele>320.0</ele><time>2026-05-02T13:47:22Z</time></trkpt><trkpt lat="44.88660026734318" lon="9.077396428075007"><ele>320.0</ele><time>2026-05-02T13:47:46Z</time></trkpt><trkpt lat="44.88654964428292" lon="9.077564719930955"><ele>326.4</ele><time>2026-05-02T13:47:48Z</time></trkpt><trkpt lat="44.88651372101422" lon="9.077664842156361"><ele>332.8</ele><time>2026-05-02T13:47:49Z</time></trkpt><trkpt lat="44.88647178991557" lon="9.077809503684913"><ele>339.20000000000005</ele><time>2026-05-02T13:47:50Z</time></trkpt><trkpt lat="44.886446830982635" lon="9.077949152012813"><ele>345.6</ele><time>2026-05-02T13:47:51Z</time></trkpt><trkpt lat="44.88642747970825" lon="9.078075303390271"><ele>352.0</ele><time>2026-05-02T13:47:52Z</time></trkpt><trkpt lat="44.88640198348641" lon="9.07824846781471"><ele>352.0</ele><time>2026-05-02T13:47:54Z</time></trkpt><trkpt lat="44.88639937721531" lon="9.07834148449404"><ele>352.0</ele><time>2026-05-02T13:47:55Z</time></trkpt><trkpt lat="44.88641402567593" lon="9.078470900528561"><ele>352.0</ele><time>2026-05-02T13:47:56Z</time></trkpt><trkpt lat="44.88643953082989" lon="9.078636766510881"><ele>352.0</ele><time>2026-05-02T13:47:57Z</time></trkpt><trkpt lat="44.88645650923789" lon="9.078821819298426"><ele>352.0</ele><time>2026-05-02T13:47:58Z</time></trkpt><trkpt lat="44.88646399005646" lon="9.07897366936199"><ele>351.8</ele><time>2026-05-02T13:47:59Z</time></trkpt><trkpt lat="44.88646630913011" lon="9.07912701909155"><ele>351.6</ele><time>2026-05-02T13:48:00Z</time></trkpt><trkpt lat="44.88646736739293" lon="9.079259711051934"><ele>351.40000000000003</ele><time>2026-05-02T13:48:01Z</time></trkpt><trkpt lat="44.88648296867996" lon="9.079405609066935"><ele>351.20000000000005</ele><time>2026-05-02T13:48:02Z</time></trkpt><trkpt lat="44.88647885937149" lon="9.07954649012563"><ele>351.0</ele><time>2026-05-02T13:48:03Z</time></trkpt><trkpt lat="44.88648437784558" lon="9.079676738388432"><ele>351.0</ele><time>2026-05-02T13:48:04Z</time></trkpt><trkpt lat="44.886494785800885" lon="9.079808714115789"><ele>351.0</ele><time>2026-05-02T13:48:05Z</time></trkpt><trkpt lat="44.88651133048234" lon="9.079951087389977"><ele>351.0</ele><time>2026-05-02T13:48:06Z</time></trkpt><trkpt lat="44.886519863729134" lon="9.080109596400659"><ele>351.0</ele><time>2026-05-02T13:48:07Z</time></trkpt><trkpt lat="44.8865330995503" lon="9.080261760203157"><ele>351.0</ele><time>2026-05-02T13:48:08Z</time></trkpt><trkpt lat="44.88653237089193" lon="9.08041389979952"><ele>352.75</ele><time>2026-05-02T13:48:09Z</time></trkpt><trkpt lat="44.886540934263486" lon="9.080589498115728"><ele>354.5</ele><time>2026-05-02T13:48:10Z</time></trkpt><trkpt lat="44.88653560041739" lon="9.080765716459306"><ele>356.25</ele><time>2026-05-02T13:48:11Z</time></trkpt><trkpt lat="44.88652923867587" lon="9.080946224642869"><ele>358.0</ele><time>2026-05-02T13:48:12Z</time></trkpt><trkpt lat="44.88653118609737" lon="9.081099870907574"><ele>359.59999999999997</ele><time>2026-05-02T13:48:13Z</time></trkpt><trkpt lat="44.88650599978607" lon="9.081197856505526"><ele>361.2</ele><time>2026-05-02T13:48:14Z</time></trkpt><trkpt lat="44.886459802011636" lon="9.081295138411699"><ele>362.8</ele><time>2026-05-02T13:48:15Z</time></trkpt><trkpt lat="44.88638803663583" lon="9.08144419517972"><ele>364.4</ele><time>2026-05-02T13:48:16Z</time></trkpt><trkpt lat="44.88634567614873" lon="9.081600337866144"><ele>366.0</ele><time>2026-05-02T13:48:17Z</time></trkpt><trkpt lat="44.88627950073461" lon="9.08174667990315"><ele>368.4</ele><time>2026-05-02T13:48:18Z</time></trkpt><trkpt lat="44.88621155538185" lon="9.081913278866761"><ele>370.8</ele><time>2026-05-02T13:48:19Z</time></trkpt><trkpt lat="44.88616368502339" lon="9.082063766013409"><ele>373.2</ele><time>2026-05-02T13:48:20Z</time></trkpt><trkpt lat="44.88611751484915" lon="9.082175398573444"><ele>375.59999999999997</ele><time>2026-05-02T13:48:21Z</time></trkpt><trkpt lat="44.88608339826091" lon="9.082281295021657"><ele>378.0</ele><time>2026-05-02T13:48:22Z</time></trkpt><trkpt lat="44.88607366695761" lon="9.082383511499884"><ele>379.0</ele><time>2026-05-02T13:48:23Z</time></trkpt><trkpt lat="44.88609308383974" lon="9.082509980386016"><ele>380.0</ele><time>2026-05-02T13:48:24Z</time></trkpt><trkpt lat="44.88610352606414" lon="9.08265333593345"><ele>381.0</ele><time>2026-05-02T13:48:25Z</time></trkpt><trkpt lat="44.886094916458546" lon="9.082801595410446"><ele>382.0</ele><time>2026-05-02T13:48:26Z</time></trkpt><trkpt lat="44.88609247454979" lon="9.082982698685521"><ele>383.0</ele><time>2026-05-02T13:48:27Z</time></trkpt><trkpt lat="44.886059643088394" lon="9.083201773955663"><ele>382.6666666666667</ele><time>2026-05-02T13:48:28Z</time></trkpt><trkpt lat="44.88603361362619" lon="9.083362048606443"><ele>382.33333333333337</ele><time>2026-05-02T13:48:29Z</time></trkpt><trkpt lat="44.88603810086081" lon="9.083459011174467"><ele>382.0</ele><time>2026-05-02T13:48:30Z</time></trkpt><trkpt lat="44.88603704624456" lon="9.083572124565075"><ele>381.6666666666667</ele><time>2026-05-02T13:48:32Z</time></trkpt><trkpt lat="44.88598572740599" lon="9.083682719862033"><ele>381.3333333333333</ele><time>2026-05-02T13:48:35Z</time></trkpt><trkpt lat="44.88592970927043" lon="9.083740026228853"><ele>381.0</ele><time>2026-05-02T13:48:36Z</time></trkpt><trkpt lat="44.88587241930471" lon="9.083785780589986"><ele>381.0</ele><time>2026-05-02T13:48:37Z</time></trkpt><trkpt lat="44.88578293041507" lon="9.08386659935061"><ele>381.0</ele><time>2026-05-02T13:48:39Z</time></trkpt><trkpt lat="44.885700577109674" lon="9.083964262511904"><ele>381.0</ele><time>2026-05-02T13:48:41Z</time></trkpt><trkpt lat="44.88565718033641" lon="9.084066812607672"><ele>381.0</ele><time>2026-05-02T13:48:42Z</time></trkpt><trkpt lat="44.88560298681627" lon="9.084212036832767"><ele>381.0</ele><time>2026-05-02T13:48:43Z</time></trkpt><trkpt lat="44.88554579720265" lon="9.084351982529547"><ele>382.4</ele><time>2026-05-02T13:48:44Z</time></trkpt><trkpt lat="44.885478027085426" lon="9.084483251426063"><ele>383.8</ele><time>2026-05-02T13:48:45Z</time></trkpt><trkpt lat="44.88540684974053" lon="9.084605089058627"><ele>385.2</ele><time>2026-05-02T13:48:46Z</time></trkpt><trkpt lat="44.88536292435276" lon="9.084714086564626"><ele>386.59999999999997</ele><time>2026-05-02T13:48:47Z</time></trkpt><trkpt lat="44.88530544450721" lon="9.084782104429369"><ele>388.0</ele><time>2026-05-02T13:48:48Z</time></trkpt><trkpt lat="44.885263033752075" lon="9.084868206451906"><ele>387.2</ele><time>2026-05-02T13:48:49Z</time></trkpt><trkpt lat="44.88520441796919" lon="9.084951478036535"><ele>386.4</ele><time>2026-05-02T13:48:51Z</time></trkpt><trkpt lat="44.885156369819725" lon="9.085030715045635"><ele>385.59999999999997</ele><time>2026-05-02T13:48:55Z</time></trkpt><trkpt lat="44.88508708224716" lon="9.085099324384824"><ele>384.79999999999995</ele><time>2026-05-02T13:48:57Z</time></trkpt><trkpt lat="44.88504331509391" lon="9.085169047828709"><ele>384.0</ele><time>2026-05-02T13:48:58Z</time></trkpt><trkpt lat="44.88525099190316" lon="9.085600333319189"><ele>384.0</ele><time>2026-05-02T13:49:00Z</time></trkpt><trkpt lat="44.885302879756935" lon="9.085687600413701"><ele>384.0</ele><time>2026-05-02T13:49:01Z</time></trkpt><trkpt lat="44.885343670317056" lon="9.085801138690616"><ele>384.0</ele><time>2026-05-02T13:49:02Z</time></trkpt><trkpt lat="44.885378173915086" lon="9.085919013861037"><ele>384.0</ele><time>2026-05-02T13:49:03Z</time></trkpt><trkpt lat="44.88538471398558" lon="9.086031577330882"><ele>384.0</ele><time>2026-05-02T13:49:04Z</time></trkpt><trkpt lat="44.885405729238585" lon="9.086128158224124"><ele>384.0</ele><time>2026-05-02T13:49:05Z</time></trkpt><trkpt lat="44.88545888714307" lon="9.086259467383245"><ele>383.79999999999995</ele><time>2026-05-02T13:49:07Z</time></trkpt><trkpt lat="44.8855349088779" lon="9.086366698735668"><ele>383.59999999999997</ele><time>2026-05-02T13:49:09Z</time></trkpt><trkpt lat="44.885605084104455" lon="9.086399349750593"><ele>383.4</ele><time>2026-05-02T13:49:10Z</time></trkpt><trkpt lat="44.885669103914665" lon="9.086460118393624"><ele>383.2</ele><time>2026-05-02T13:49:11Z</time></trkpt><trkpt lat="44.885764035706536" lon="9.086535920214677"><ele>383.0</ele><time>2026-05-02T13:49:13Z</time></trkpt><trkpt lat="44.88586604734173" lon="9.086580999968252"><ele>379.0</ele><time>2026-05-02T13:49:15Z</time></trkpt><trkpt lat="44.88592958514739" lon="9.086644158223868"><ele>375.0</ele><time>2026-05-02T13:49:16Z</time></trkpt><trkpt lat="44.88599466658588" lon="9.08668978273173"><ele>371.0</ele><time>2026-05-02T13:49:17Z</time></trkpt><trkpt lat="44.88609876981357" lon="9.08679319369001"><ele>367.0</ele><time>2026-05-02T13:49:19Z</time></trkpt><trkpt lat="44.88618087852387" lon="9.086903358048513"><ele>363.0</ele><time>2026-05-02T13:49:21Z</time></trkpt><trkpt lat="44.886280047030986" lon="9.08698285712674"><ele>362.99999999999994</ele><time>2026-05-02T13:49:23Z</time></trkpt><trkpt lat="44.886330296096965" lon="9.08703782405343"><ele>363.0</ele><time>2026-05-02T13:49:24Z</time></trkpt><trkpt lat="44.886381463793775" lon="9.08709073881237"><ele>363.0</ele><time>2026-05-02T13:49:25Z</time></trkpt><trkpt lat="44.886463751736265" lon="9.08711577547725"><ele>363.0</ele><time>2026-05-02T13:49:27Z</time></trkpt><trkpt lat="44.886516899514895" lon="9.087167358504304"><ele>363.0</ele><time>2026-05-02T13:49:28Z</time></trkpt><trkpt lat="44.88661177947765" lon="9.087213181516983"><ele>362.99999999999994</ele><time>2026-05-02T13:49:29Z</time></trkpt><trkpt lat="44.88668257629852" lon="9.087204261187589"><ele>363.0</ele><time>2026-05-02T13:49:30Z</time></trkpt><trkpt lat="44.886749608483804" lon="9.08721418552683"><ele>360.0</ele><time>2026-05-02T13:49:31Z</time></trkpt><trkpt lat="44.886923318342234" lon="9.087216371603121"><ele>357.0</ele><time>2026-05-02T13:49:33Z</time></trkpt><trkpt lat="44.88701171407298" lon="9.087198271527953"><ele>354.0</ele><time>2026-05-02T13:49:34Z</time></trkpt><trkpt lat="44.88709384705947" lon="9.08721944536166"><ele>351.0</ele><time>2026-05-02T13:49:35Z</time></trkpt><trkpt lat="44.88717979108135" lon="9.087217753276818"><ele>348.0</ele><time>2026-05-02T13:49:36Z</time></trkpt><trkpt lat="44.887253468394455" lon="9.08724577674504"><ele>348.0</ele><time>2026-05-02T13:49:37Z</time></trkpt><trkpt lat="44.88731521109337" lon="9.087295672233418"><ele>348.0</ele><time>2026-05-02T13:49:38Z</time></trkpt><trkpt lat="44.887362394438014" lon="9.087360217545262"><ele>348.0</ele><time>2026-05-02T13:49:39Z</time></trkpt><trkpt lat="44.88740699680436" lon="9.08746238614671"><ele>348.0</ele><time>2026-05-02T13:49:41Z</time></trkpt><trkpt lat="44.88744816260512" lon="9.087593727703302"><ele>348.0</ele><time>2026-05-02T13:49:42Z</time></trkpt><trkpt lat="44.88745676208125" lon="9.087715453754681"><ele>348.0</ele><time>2026-05-02T13:49:43Z</time></trkpt><trkpt lat="44.88744696428426" lon="9.08781795392096"><ele>349.1666666666667</ele><time>2026-05-02T13:49:44Z</time></trkpt><trkpt lat="44.88745132807205" lon="9.087915585497292"><ele>350.3333333333333</ele><time>2026-05-02T13:49:45Z</time></trkpt><trkpt lat="44.887479239306806" lon="9.088010002907893"><ele>351.5</ele><time>2026-05-02T13:49:46Z</time></trkpt><trkpt lat="44.88749124850573" lon="9.088154329349502"><ele>352.66666666666663</ele><time>2026-05-02T13:49:47Z</time></trkpt><trkpt lat="44.88751944681105" lon="9.088292931855047"><ele>353.8333333333333</ele><time>2026-05-02T13:49:48Z</time></trkpt><trkpt lat="44.88754554407071" lon="9.088383062279574"><ele>355.0</ele><time>2026-05-02T13:49:49Z</time></trkpt><trkpt lat="44.88761893673234" lon="9.088518817831483"><ele>355.0</ele><time>2026-05-02T13:49:51Z</time></trkpt><trkpt lat="44.88766687832398" lon="9.088601099855019"><ele>355.0</ele><time>2026-05-02T13:49:52Z</time></trkpt><trkpt lat="44.88770780807487" lon="9.088687133179237"><ele>355.0</ele><time>2026-05-02T13:49:53Z</time></trkpt><trkpt lat="44.887757467404384" lon="9.088788728169918"><ele>355.0</ele><time>2026-05-02T13:49:54Z</time></trkpt><trkpt lat="44.88784405884113" lon="9.088933777310777"><ele>355.0</ele><time>2026-05-02T13:49:56Z</time></trkpt><trkpt lat="44.88793057383251" lon="9.088951673337865"><ele>355.0</ele><time>2026-05-02T13:49:57Z</time></trkpt><trkpt lat="44.88803248387591" lon="9.089002140120314"><ele>355.0</ele><time>2026-05-02T13:49:58Z</time></trkpt><trkpt lat="44.88812599919263" lon="9.089039611721343"><ele>355.0</ele><time>2026-05-02T13:49:59Z</time></trkpt><trkpt lat="44.888192022206695" lon="9.089067441675265"><ele>355.0</ele><time>2026-05-02T13:50:00Z</time></trkpt><trkpt lat="44.888258169735266" lon="9.089085340388065"><ele>355.0</ele><time>2026-05-02T13:50:01Z</time></trkpt><trkpt lat="44.88836191192374" lon="9.089189716464075"><ele>355.16666666666663</ele><time>2026-05-02T13:50:03Z</time></trkpt><trkpt lat="44.888409768502775" lon="9.08926591677867"><ele>355.3333333333333</ele><time>2026-05-02T13:50:04Z</time></trkpt><trkpt lat="44.88847644675359" lon="9.089363571521787"><ele>355.5</ele><time>2026-05-02T13:50:05Z</time></trkpt><trkpt lat="44.888563043884304" lon="9.089480997582235"><ele>355.6666666666667</ele><time>2026-05-02T13:50:06Z</time></trkpt><trkpt lat="44.888611568795305" lon="9.089564920156585"><ele>355.83333333333337</ele><time>2026-05-02T13:50:07Z</time></trkpt><trkpt lat="44.88868406073494" lon="9.08958804174499"><ele>356.0</ele><time>2026-05-02T13:50:09Z</time></trkpt><trkpt lat="44.88874350972483" lon="9.089628596783443"><ele>356.0</ele><time>2026-05-02T13:50:12Z</time></trkpt><trkpt lat="44.88879844774248" lon="9.089738891988791"><ele>356.0</ele><time>2026-05-02T13:50:14Z</time></trkpt><trkpt lat="44.888841438188294" lon="9.089890745579964"><ele>356.0</ele><time>2026-05-02T13:50:16Z</time></trkpt><trkpt lat="44.88885632256861" lon="9.090029013187582"><ele>356.0</ele><time>2026-05-02T13:50:18Z</time></trkpt><trkpt lat="44.888889897032" lon="9.090188859431896"><ele>356.0</ele><time>2026-05-02T13:50:20Z</time></trkpt><trkpt lat="44.88892876607554" lon="9.090349938164252"><ele>357.6666666666667</ele><time>2026-05-02T13:50:22Z</time></trkpt><trkpt lat="44.88895526048822" lon="9.090508199116085"><ele>359.33333333333337</ele><time>2026-05-02T13:50:24Z</time></trkpt><trkpt lat="44.888964259147436" lon="9.09059641936283"><ele>361.0</ele><time>2026-05-02T13:50:25Z</time></trkpt><trkpt lat="44.888970507983466" lon="9.090704453613169"><ele>362.6666666666667</ele><time>2026-05-02T13:50:27Z</time></trkpt><trkpt lat="44.88903146859227" lon="9.090670546196124"><ele>364.3333333333333</ele><time>2026-05-02T13:50:49Z</time></trkpt><trkpt lat="44.8890035725386" lon="9.090558906629125"><ele>366.0</ele><time>2026-05-02T13:50:51Z</time></trkpt><trkpt lat="44.88897504331575" lon="9.090415213942896"><ele>366.0</ele><time>2026-05-02T13:50:52Z</time></trkpt><trkpt lat="44.888954508684414" lon="9.090262799248807"><ele>366.0</ele><time>2026-05-02T13:50:53Z</time></trkpt><trkpt lat="44.88893569633027" lon="9.090168514176792"><ele>366.0</ele><time>2026-05-02T13:50:54Z</time></trkpt><trkpt lat="44.88893550096899" lon="9.090025589818953"><ele>366.0</ele><time>2026-05-02T13:50:56Z</time></trkpt><trkpt lat="44.88890724548275" lon="9.089918917778963"><ele>366.0</ele><time>2026-05-02T13:50:58Z</time></trkpt><trkpt lat="44.888848189370705" lon="9.08985761209927"><ele>366.0</ele><time>2026-05-02T13:51:00Z</time></trkpt><trkpt lat="44.888806118651885" lon="9.089789396003615"><ele>366.0</ele><time>2026-05-02T13:51:03Z</time></trkpt><trkpt lat="44.88874598378505" lon="9.089675301741304"><ele>366.0</ele><time>2026-05-02T13:51:06Z</time></trkpt><trkpt lat="44.8886927210886" lon="9.089625098928146"><ele>366.0</ele><time>2026-05-02T13:51:08Z</time></trkpt><trkpt lat="44.88866329083341" lon="9.089725667548333"><ele>366.0</ele><time>2026-05-02T13:51:20Z</time></trkpt><trkpt lat="44.88867095344929" lon="9.089882594521407"><ele>366.0</ele><time>2026-05-02T13:51:22Z</time></trkpt><trkpt lat="44.8886966690125" lon="9.089974458140967"><ele>366.0</ele><time>2026-05-02T13:51:23Z</time></trkpt><trkpt lat="44.88865606559734" lon="9.090092856530662"><ele>366.0</ele><time>2026-05-02T13:51:25Z</time></trkpt><trkpt lat="44.88867809240519" lon="9.090227372056903"><ele>366.0</ele><time>2026-05-02T13:51:27Z</time></trkpt><trkpt lat="44.88864152173626" lon="9.090383253391835"><ele>366.0</ele><time>2026-05-02T13:51:29Z</time></trkpt><trkpt lat="44.888615287420656" lon="9.090507310866567"><ele>366.0</ele><time>2026-05-02T13:51:31Z</time></trkpt><trkpt lat="44.88860934961005" lon="9.090628675388492"><ele>366.0</ele><time>2026-05-02T13:53:07Z</time></trkpt><trkpt lat="44.88859039585913" lon="9.090738983231772"><ele>365.6666666666667</ele><time>2026-05-02T13:53:35Z</time></trkpt><trkpt lat="44.88853181187451" lon="9.09081412876714"><ele>365.3333333333333</ele><time>2026-05-02T13:54:27Z</time></trkpt><trkpt lat="44.88847600765845" lon="9.090859379596763"><ele>365.0</ele><time>2026-05-02T13:54:29Z</time></trkpt><trkpt lat="44.888387674849355" lon="9.090859648494236"><ele>364.66666666666663</ele><time>2026-05-02T13:54:31Z</time></trkpt><trkpt lat="44.88830857507002" lon="9.090832661650495"><ele>364.3333333333333</ele><time>2026-05-02T13:54:33Z</time></trkpt><trkpt lat="44.88824156487205" lon="9.09081381690223"><ele>364.0</ele><time>2026-05-02T13:54:35Z</time></trkpt><trkpt lat="44.88816709699374" lon="9.090737816092085"><ele>370.5</ele><time>2026-05-02T13:54:37Z</time></trkpt><trkpt lat="44.88805481766584" lon="9.090681813237923"><ele>377.0</ele><time>2026-05-02T13:54:39Z</time></trkpt><trkpt lat="44.88798946572223" lon="9.090627563897414"><ele>383.5</ele><time>2026-05-02T13:54:58Z</time></trkpt><trkpt lat="44.887910632583214" lon="9.090532410711855"><ele>390.0</ele><time>2026-05-02T13:55:01Z</time></trkpt><trkpt lat="44.88786217555352" lon="9.090475386575543"><ele>396.50000000000006</ele><time>2026-05-02T13:55:04Z</time></trkpt><trkpt lat="44.8878137661011" lon="9.090397614964804"><ele>403.0</ele><time>2026-05-02T13:55:06Z</time></trkpt><trkpt lat="44.887773881709265" lon="9.090285455687043"><ele>403.00000000000006</ele><time>2026-05-02T13:55:08Z</time></trkpt><trkpt lat="44.88774704577289" lon="9.09015014615961"><ele>403.0</ele><time>2026-05-02T13:55:11Z</time></trkpt><trkpt lat="44.8877331008489" lon="9.090048822191896"><ele>403.0</ele><time>2026-05-02T13:55:13Z</time></trkpt><trkpt lat="44.88766350180939" lon="9.090038602587892"><ele>403.0</ele><time>2026-05-02T13:55:15Z</time></trkpt><trkpt lat="44.887570590423884" lon="9.089998370616097"><ele>403.00000000000006</ele><time>2026-05-02T13:55:17Z</time></trkpt><trkpt lat="44.887489003836066" lon="9.089927350720009"><ele>403.0</ele><time>2026-05-02T13:55:19Z</time></trkpt><trkpt lat="44.88737944185959" lon="9.089886232661236"><ele>403.1666666666667</ele><time>2026-05-02T13:55:21Z</time></trkpt><trkpt lat="44.88731577372098" lon="9.089846123192107"><ele>403.33333333333337</ele><time>2026-05-02T13:55:22Z</time></trkpt><trkpt lat="44.887264307643804" lon="9.089788736261204"><ele>403.5</ele><time>2026-05-02T13:55:23Z</time></trkpt><trkpt lat="44.88716411536023" lon="9.089722222247943"><ele>403.66666666666663</ele><time>2026-05-02T13:55:25Z</time></trkpt><trkpt lat="44.887081742795246" lon="9.089668060581415"><ele>403.8333333333333</ele><time>2026-05-02T13:55:27Z</time></trkpt><trkpt lat="44.887002962496084" lon="9.089591921851941"><ele>404.0</ele><time>2026-05-02T13:55:31Z</time></trkpt><trkpt lat="44.88694018723394" lon="9.089516979398386"><ele>404.0</ele><time>2026-05-02T13:55:32Z</time></trkpt><trkpt lat="44.886887738294384" lon="9.089467426282424"><ele>404.0</ele><time>2026-05-02T13:55:33Z</time></trkpt><trkpt lat="44.88682169902515" lon="9.08942667407252"><ele>404.0</ele><time>2026-05-02T13:55:34Z</time></trkpt><trkpt lat="44.88676458529699" lon="9.089372916377418"><ele>404.0</ele><time>2026-05-02T13:55:35Z</time></trkpt><trkpt lat="44.88669941563952" lon="9.089327413790937"><ele>404.0</ele><time>2026-05-02T13:55:36Z</time></trkpt><trkpt lat="44.8866332670519" lon="9.089288887054288"><ele>404.0</ele><time>2026-05-02T13:55:37Z</time></trkpt><trkpt lat="44.88656662384215" lon="9.0892383343781"><ele>404.0</ele><time>2026-05-02T13:55:39Z</time></trkpt><trkpt lat="44.886494990049634" lon="9.089192795232728"><ele>408.3333333333333</ele><time>2026-05-02T13:55:41Z</time></trkpt><trkpt lat="44.88640853190928" lon="9.089152602859786"><ele>412.66666666666663</ele><time>2026-05-02T13:55:43Z</time></trkpt><trkpt lat="44.88632689683023" lon="9.089076985765074"><ele>417.0</ele><time>2026-05-02T13:55:45Z</time></trkpt><trkpt lat="44.88627061870556" lon="9.089017535412973"><ele>421.33333333333337</ele><time>2026-05-02T13:55:47Z</time></trkpt><trkpt lat="44.88619495482362" lon="9.088965471522176"><ele>425.6666666666667</ele><time>2026-05-02T13:55:49Z</time></trkpt><trkpt lat="44.88611877956946" lon="9.08894528148773"><ele>430.0</ele><time>2026-05-02T13:55:51Z</time></trkpt><trkpt lat="44.88604680351102" lon="9.088894076890856"><ele>430.0</ele><time>2026-05-02T13:55:54Z</time></trkpt><trkpt lat="44.88598342590336" lon="9.088809110372573"><ele>430.0</ele><time>2026-05-02T13:55:56Z</time></trkpt><trkpt lat="44.88588998871528" lon="9.088715336691207"><ele>430.0</ele><time>2026-05-02T13:55:58Z</time></trkpt><trkpt lat="44.88581206979721" lon="9.088654465408341"><ele>430.0</ele><time>2026-05-02T13:55:59Z</time></trkpt><trkpt lat="44.885710914973814" lon="9.088617438178503"><ele>430.0</ele><time>2026-05-02T13:56:01Z</time></trkpt><trkpt lat="44.8856500189672" lon="9.08857965109209"><ele>435.1428571428571</ele><time>2026-05-02T13:56:02Z</time></trkpt><trkpt lat="44.885592675582046" lon="9.088534600757468"><ele>440.28571428571433</ele><time>2026-05-02T13:56:03Z</time></trkpt><trkpt lat="44.885502981659805" lon="9.08848842048391"><ele>445.42857142857144</ele><time>2026-05-02T13:56:05Z</time></trkpt><trkpt lat="44.885439617267394" lon="9.088514685937605"><ele>450.57142857142856</ele><time>2026-05-02T13:56:06Z</time></trkpt><trkpt lat="44.885365912459505" lon="9.088514511295186"><ele>455.71428571428567</ele><time>2026-05-02T13:56:07Z</time></trkpt><trkpt lat="44.88530159126979" lon="9.088498772220678"><ele>460.8571428571429</ele><time>2026-05-02T13:56:08Z</time></trkpt><trkpt lat="44.88522814523094" lon="9.088447400994086"><ele>466.0</ele><time>2026-05-02T13:56:09Z</time></trkpt><trkpt lat="44.885157405693526" lon="9.088385224941169"><ele>466.00000000000006</ele><time>2026-05-02T13:56:10Z</time></trkpt><trkpt lat="44.88510452062184" lon="9.088327278669222"><ele>466.0</ele><time>2026-05-02T13:56:11Z</time></trkpt><trkpt lat="44.88502163217982" lon="9.088292398350253"><ele>466.0</ele><time>2026-05-02T13:56:13Z</time></trkpt><trkpt lat="44.88493687368223" lon="9.08823194472712"><ele>466.0</ele><time>2026-05-02T13:56:15Z</time></trkpt><trkpt lat="44.88488648679773" lon="9.088176690824264"><ele>466.00000000000006</ele><time>2026-05-02T13:56:18Z</time></trkpt><trkpt lat="44.88482479275762" lon="9.088142472622962"><ele>466.0</ele><time>2026-05-02T13:56:25Z</time></trkpt><trkpt lat="44.88474430408687" lon="9.08810922890359"><ele>467.1666666666667</ele><time>2026-05-02T13:56:27Z</time></trkpt><trkpt lat="44.88463143964895" lon="9.088054307047816"><ele>468.33333333333337</ele><time>2026-05-02T13:56:29Z</time></trkpt><trkpt lat="44.88455880355813" lon="9.088059497006405"><ele>469.5</ele><time>2026-05-02T13:56:30Z</time></trkpt><trkpt lat="44.88446868712806" lon="9.088056205881927"><ele>470.66666666666663</ele><time>2026-05-02T13:56:32Z</time></trkpt><trkpt lat="44.88441156984596" lon="9.088101850523817"><ele>471.8333333333333</ele><time>2026-05-02T13:56:34Z</time></trkpt><trkpt lat="44.88434777633265" lon="9.088209015644443"><ele>473.0</ele><time>2026-05-02T13:56:36Z</time></trkpt><trkpt lat="44.884269375321004" lon="9.08831527234751"><ele>480.8333333333333</ele><time>2026-05-02T13:56:38Z</time></trkpt><trkpt lat="44.88422189158592" lon="9.08842108626682"><ele>488.66666666666663</ele><time>2026-05-02T13:56:40Z</time></trkpt><trkpt lat="44.884159360834325" lon="9.088483755883892"><ele>496.5</ele><time>2026-05-02T13:56:43Z</time></trkpt><trkpt lat="44.88413680126666" lon="9.08858709223227"><ele>504.33333333333337</ele><time>2026-05-02T13:56:45Z</time></trkpt><trkpt lat="44.884066819611654" lon="9.088678255398566"><ele>512.1666666666667</ele><time>2026-05-02T13:56:47Z</time></trkpt><trkpt lat="44.88400637805489" lon="9.088736469695208"><ele>520.0</ele><time>2026-05-02T13:56:49Z</time></trkpt><trkpt lat="44.88392811941319" lon="9.088724522406778"><ele>520.0</ele><time>2026-05-02T13:56:56Z</time></trkpt><trkpt lat="44.88389039762834" lon="9.088820299520675"><ele>520.0</ele><time>2026-05-02T13:57:04Z</time></trkpt><trkpt lat="44.88386854585644" lon="9.088904080782799"><ele>520.0</ele><time>2026-05-02T13:57:07Z</time></trkpt><trkpt lat="44.88385443573591" lon="9.08905559646176"><ele>520.0</ele><time>2026-05-02T13:57:16Z</time></trkpt><trkpt lat="44.88381682784528" lon="9.089186464797518"><ele>520.0</ele><time>2026-05-02T13:57:18Z</time></trkpt><trkpt lat="44.88376591792959" lon="9.08925206789286"><ele>520.0</ele><time>2026-05-02T13:57:20Z</time></trkpt><trkpt lat="44.88372379675987" lon="9.089359634342108"><ele>520.8333333333334</ele><time>2026-05-02T13:57:22Z</time></trkpt><trkpt lat="44.883642840632845" lon="9.08948196310661"><ele>521.6666666666667</ele><time>2026-05-02T13:57:24Z</time></trkpt><trkpt lat="44.883578053216084" lon="9.089546787436397"><ele>522.5</ele><time>2026-05-02T13:57:25Z</time></trkpt><trkpt lat="44.88350768736717" lon="9.089611289419784"><ele>523.3333333333334</ele><time>2026-05-02T13:57:26Z</time></trkpt><trkpt lat="44.883447740046215" lon="9.089675211354535"><ele>524.1666666666666</ele><time>2026-05-02T13:57:27Z</time></trkpt><trkpt lat="44.883394487469374" lon="9.089739489596015"><ele>525.0</ele><time>2026-05-02T13:57:28Z</time></trkpt><trkpt lat="44.88332313273732" lon="9.089818158989088"><ele>525.1666666666666</ele><time>2026-05-02T13:57:30Z</time></trkpt><trkpt lat="44.88323880558846" lon="9.089864255527644"><ele>525.3333333333334</ele><time>2026-05-02T13:57:32Z</time></trkpt><trkpt lat="44.88316568072494" lon="9.089894384964316"><ele>525.5</ele><time>2026-05-02T13:57:34Z</time></trkpt><trkpt lat="44.883095102250905" lon="9.089905349093767"><ele>525.6666666666667</ele><time>2026-05-02T13:57:37Z</time></trkpt><trkpt lat="44.883024369892354" lon="9.089933540308403"><ele>525.8333333333334</ele><time>2026-05-02T13:57:40Z</time></trkpt><trkpt lat="44.882972301947085" lon="9.089992210856296"><ele>526.0</ele><time>2026-05-02T13:57:43Z</time></trkpt><trkpt lat="44.88289105653002" lon="9.090016290093132"><ele>528.1666666666667</ele><time>2026-05-02T13:57:45Z</time></trkpt><trkpt lat="44.88279539233792" lon="9.090030610245275"><ele>530.3333333333334</ele><time>2026-05-02T13:57:47Z</time></trkpt><trkpt lat="44.88270576063927" lon="9.090060744287863"><ele>532.5</ele><time>2026-05-02T13:57:50Z</time></trkpt><trkpt lat="44.882630605936406" lon="9.090084968173777"><ele>534.6666666666666</ele><time>2026-05-02T13:57:51Z</time></trkpt><trkpt lat="44.882549422260205" lon="9.090116157940905"><ele>536.8333333333333</ele><time>2026-05-02T13:57:52Z</time></trkpt><trkpt lat="44.8824576378127" lon="9.090108533423995"><ele>539.0</ele><time>2026-05-02T13:57:54Z</time></trkpt><trkpt lat="44.88235406858964" lon="9.0901063780889"><ele>539.0</ele><time>2026-05-02T13:57:56Z</time></trkpt><trkpt lat="44.88227017576602" lon="9.09010462568687"><ele>539.0</ele><time>2026-05-02T13:57:58Z</time></trkpt><trkpt lat="44.88217908910609" lon="9.090169429917456"><ele>539.0</ele><time>2026-05-02T13:58:00Z</time></trkpt><trkpt lat="44.882083993460824" lon="9.090218627543287"><ele>539.0</ele><time>2026-05-02T13:58:01Z</time></trkpt><trkpt lat="44.882005543430104" lon="9.090257221148047"><ele>539.0</ele><time>2026-05-02T13:58:02Z</time></trkpt><trkpt lat="44.88193005528197" lon="9.090282151757126"><ele>539.0</ele><time>2026-05-02T13:58:03Z</time></trkpt><trkpt lat="44.88185430766912" lon="9.090307420752096"><ele>539.0</ele><time>2026-05-02T13:58:05Z</time></trkpt><trkpt lat="44.88179274544568" lon="9.090327338088734"><ele>539.0</ele><time>2026-05-02T13:58:06Z</time></trkpt><trkpt lat="44.881733995109265" lon="9.090363619866421"><ele>539.0</ele><time>2026-05-02T13:58:07Z</time></trkpt><trkpt lat="44.881659727105735" lon="9.090383901205135"><ele>539.0</ele><time>2026-05-02T13:58:10Z</time></trkpt><trkpt lat="44.88159674132562" lon="9.090381183780599"><ele>539.0</ele><time>2026-05-02T13:58:14Z</time></trkpt><trkpt lat="44.88152909625457" lon="9.09039675487543"><ele>539.0</ele><time>2026-05-02T13:58:22Z</time></trkpt><trkpt lat="44.88146423892249" lon="9.090394937628435"><ele>539.0</ele><time>2026-05-02T13:58:26Z</time></trkpt><trkpt lat="44.88138148411717" lon="9.09037709417904"><ele>539.3333333333333</ele><time>2026-05-02T13:58:29Z</time></trkpt><trkpt lat="44.88130475617684" lon="9.090368883907818"><ele>539.6666666666666</ele><time>2026-05-02T13:58:33Z</time></trkpt><trkpt lat="44.88123188660027" lon="9.0903585510927"><ele>540.0</ele><time>2026-05-02T13:58:37Z</time></trkpt><trkpt lat="44.881191350737" lon="9.09024390729539"><ele>540.3333333333334</ele><time>2026-05-02T13:58:40Z</time></trkpt><trkpt lat="44.881118785738984" lon="9.090186819665028"><ele>540.6666666666667</ele><time>2026-05-02T13:58:44Z</time></trkpt><trkpt lat="44.8810517305182" lon="9.090169692515515"><ele>541.0</ele><time>2026-05-02T13:58:46Z</time></trkpt><trkpt lat="44.88096294086348" lon="9.090145989533944"><ele>539.8333333333334</ele><time>2026-05-02T13:58:52Z</time></trkpt><trkpt lat="44.8808753950645" lon="9.090093644888167"><ele>538.6666666666667</ele><time>2026-05-02T13:58:54Z</time></trkpt><trkpt lat="44.880809746004154" lon="9.090013190770266"><ele>537.5</ele><time>2026-05-02T13:58:56Z</time></trkpt><trkpt lat="44.88073495067796" lon="9.089968556722354"><ele>536.3333333333334</ele><time>2026-05-02T13:58:58Z</time></trkpt><trkpt lat="44.8806543702984" lon="9.089985614390685"><ele>535.1666666666666</ele><time>2026-05-02T13:59:00Z</time></trkpt><trkpt lat="44.88057403518641" lon="9.089986439042331"><ele>534.0</ele><time>2026-05-02T13:59:02Z</time></trkpt><trkpt lat="44.88051304352092" lon="9.090019565992645"><ele>534.0</ele><time>2026-05-02T13:59:03Z</time></trkpt><trkpt lat="44.880424106869896" lon="9.090062005111593"><ele>534.0</ele><time>2026-05-02T13:59:05Z</time></trkpt><trkpt lat="44.88032660744755" lon="9.089977699154696"><ele>534.0</ele><time>2026-05-02T13:59:07Z</time></trkpt><trkpt lat="44.88028676918494" lon="9.089831279698858"><ele>534.0</ele><time>2026-05-02T13:59:09Z</time></trkpt><trkpt lat="44.88024729114504" lon="9.089761786349886"><ele>534.0</ele><time>2026-05-02T13:59:10Z</time></trkpt><trkpt lat="44.88017656759318" lon="9.089666385046584"><ele>530.8333333333334</ele><time>2026-05-02T13:59:12Z</time></trkpt><trkpt lat="44.880091457021145" lon="9.089579960562636"><ele>527.6666666666666</ele><time>2026-05-02T13:59:14Z</time></trkpt><trkpt lat="44.8800138686094" lon="9.08958017449667"><ele>524.5</ele><time>2026-05-02T13:59:16Z</time></trkpt><trkpt lat="44.8799411178582" lon="9.089645101680356"><ele>521.3333333333333</ele><time>2026-05-02T13:59:18Z</time></trkpt><trkpt lat="44.87992092550902" lon="9.089740194591025"><ele>518.1666666666666</ele><time>2026-05-02T13:59:19Z</time></trkpt><trkpt lat="44.879900750944444" lon="9.089880800358701"><ele>515.0</ele><time>2026-05-02T13:59:20Z</time></trkpt><trkpt lat="44.879880402992406" lon="9.09002641529367"><ele>515.0</ele><time>2026-05-02T13:59:21Z</time></trkpt><trkpt lat="44.87985872534009" lon="9.09015345774118"><ele>515.0</ele><time>2026-05-02T13:59:22Z</time></trkpt><trkpt lat="44.87983828787526" lon="9.090275544290373"><ele>515.0</ele><time>2026-05-02T13:59:23Z</time></trkpt><trkpt lat="44.87982493341508" lon="9.090366978461084"><ele>515.0</ele><time>2026-05-02T13:59:24Z</time></trkpt><trkpt lat="44.879820994336065" lon="9.090485218566743"><ele>515.0</ele><time>2026-05-02T13:59:25Z</time></trkpt><trkpt lat="44.87985195856053" lon="9.090594313673378"><ele>515.0</ele><time>2026-05-02T13:59:26Z</time></trkpt><trkpt lat="44.87986689176525" lon="9.090697816273089"><ele>514.3333333333333</ele><time>2026-05-02T13:59:28Z</time></trkpt><trkpt lat="44.879843900238846" lon="9.090781599520742"><ele>513.6666666666666</ele><time>2026-05-02T13:59:46Z</time></trkpt><trkpt lat="44.879870079281794" lon="9.09092842457013"><ele>513.0</ele><time>2026-05-02T13:59:48Z</time></trkpt><trkpt lat="44.87987238838429" lon="9.091020289896814"><ele>512.3333333333334</ele><time>2026-05-02T13:59:49Z</time></trkpt><trkpt lat="44.87988254796699" lon="9.091133972570484"><ele>511.6666666666667</ele><time>2026-05-02T13:59:51Z</time></trkpt><trkpt lat="44.879884042190916" lon="9.091238197390943"><ele>511.0</ele><time>2026-05-02T13:59:52Z</time></trkpt><trkpt lat="44.87988191239471" lon="9.091338500682731"><ele>511.0</ele><time>2026-05-02T13:59:53Z</time></trkpt><trkpt lat="44.87987636571629" lon="9.091444992157314"><ele>511.0</ele><time>2026-05-02T13:59:54Z</time></trkpt><trkpt lat="44.87988178316258" lon="9.091573635728478"><ele>511.0</ele><time>2026-05-02T13:59:55Z</time></trkpt><trkpt lat="44.87987250546877" lon="9.091707874827838"><ele>511.0</ele><time>2026-05-02T13:59:56Z</time></trkpt><trkpt lat="44.87985938842789" lon="9.09183885655444"><ele>511.0</ele><time>2026-05-02T13:59:57Z</time></trkpt><trkpt lat="44.879843181217936" lon="9.091969485110917"><ele>509.83333333333337</ele><time>2026-05-02T13:59:58Z</time></trkpt><trkpt lat="44.87982378182685" lon="9.092084059347386"><ele>508.6666666666667</ele><time>2026-05-02T13:59:59Z</time></trkpt><trkpt lat="44.87980163383737" lon="9.092202478760205"><ele>507.5</ele><time>2026-05-02T14:00:00Z</time></trkpt><trkpt lat="44.879775558980796" lon="9.092327361726774"><ele>506.33333333333337</ele><time>2026-05-02T14:00:01Z</time></trkpt><trkpt lat="44.879750772507876" lon="9.092429797474791"><ele>505.1666666666667</ele><time>2026-05-02T14:00:02Z</time></trkpt><trkpt lat="44.87972256403249" lon="9.09251067489945"><ele>504.0</ele><time>2026-05-02T14:00:03Z</time></trkpt><trkpt lat="44.87969357492124" lon="9.092601763999635"><ele>503.8333333333333</ele><time>2026-05-02T14:00:04Z</time></trkpt><trkpt lat="44.87964613350218" lon="9.092691925107891"><ele>503.66666666666663</ele><time>2026-05-02T14:00:05Z</time></trkpt><trkpt lat="44.879575450248026" lon="9.092748487194287"><ele>503.5</ele><time>2026-05-02T14:00:06Z</time></trkpt><trkpt lat="44.87948219737101" lon="9.092745688351426"><ele>503.3333333333333</ele><time>2026-05-02T14:00:07Z</time></trkpt><trkpt lat="44.87941346413582" lon="9.092789304810747"><ele>503.16666666666663</ele><time>2026-05-02T14:00:08Z</time></trkpt><trkpt lat="44.879346140068456" lon="9.092775072643336"><ele>503.0</ele><time>2026-05-02T14:00:10Z</time></trkpt><trkpt lat="44.879190882006625" lon="9.092882514487785"><ele>503.59999999999997</ele><time>2026-05-02T14:04:46Z</time></trkpt><trkpt lat="44.87910797520692" lon="9.09290015022602"><ele>504.19999999999993</ele><time>2026-05-02T14:04:47Z</time></trkpt><trkpt lat="44.879028251998754" lon="9.092905892090029"><ele>504.8</ele><time>2026-05-02T14:04:48Z</time></trkpt><trkpt lat="44.87894044532363" lon="9.092951607417577"><ele>505.4</ele><time>2026-05-02T14:04:50Z</time></trkpt><trkpt lat="44.87889047138545" lon="9.09301226634317"><ele>506.0</ele><time>2026-05-02T14:04:51Z</time></trkpt><trkpt lat="44.87882253284149" lon="9.093179969805384"><ele>508.0</ele><time>2026-05-02T14:04:53Z</time></trkpt><trkpt lat="44.87880019833732" lon="9.093320982110953"><ele>510.0</ele><time>2026-05-02T14:04:54Z</time></trkpt><trkpt lat="44.878754712010625" lon="9.09347892941516"><ele>512.0</ele><time>2026-05-02T14:04:55Z</time></trkpt><trkpt lat="44.87871941810378" lon="9.093645155363202"><ele>514.0</ele><time>2026-05-02T14:04:56Z</time></trkpt><trkpt lat="44.87870323767664" lon="9.093797603734375"><ele>514.0</ele><time>2026-05-02T14:04:57Z</time></trkpt><trkpt lat="44.878675986672036" lon="9.093899518149595"><ele>514.0</ele><time>2026-05-02T14:04:58Z</time></trkpt><trkpt lat="44.87866128710899" lon="9.093995672081348"><ele>514.0</ele><time>2026-05-02T14:04:59Z</time></trkpt><trkpt lat="44.87866499952322" lon="9.094084965880555"><ele>514.0</ele><time>2026-05-02T14:05:00Z</time></trkpt><trkpt lat="44.87871789305348" lon="9.094206999062061"><ele>514.0</ele><time>2026-05-02T14:05:01Z</time></trkpt><trkpt lat="44.8787946608954" lon="9.094354048805862"><ele>514.0</ele><time>2026-05-02T14:05:02Z</time></trkpt><trkpt lat="44.87887563028486" lon="9.094505935532975"><ele>514.5</ele><time>2026-05-02T14:05:03Z</time></trkpt><trkpt lat="44.87894036798268" lon="9.094683837811136"><ele>515.0</ele><time>2026-05-02T14:05:04Z</time></trkpt><trkpt lat="44.87900300143941" lon="9.094818385810012"><ele>515.5</ele><time>2026-05-02T14:05:05Z</time></trkpt><trkpt lat="44.87907476198172" lon="9.094970522581162"><ele>516.0</ele><time>2026-05-02T14:05:06Z</time></trkpt><trkpt lat="44.87914277630792" lon="9.095114717138646"><ele>513.25</ele><time>2026-05-02T14:05:07Z</time></trkpt><trkpt lat="44.87921265989156" lon="9.095266060167397"><ele>510.5</ele><time>2026-05-02T14:05:08Z</time></trkpt><trkpt lat="44.879289438873585" lon="9.095399108607554"><ele>507.75</ele><time>2026-05-02T14:05:09Z</time></trkpt><trkpt lat="44.879341997256496" lon="9.095528015705343"><ele>505.0</ele><time>2026-05-02T14:05:10Z</time></trkpt><trkpt lat="44.8794015777925" lon="9.095646020404121"><ele>503.33333333333337</ele><time>2026-05-02T14:05:11Z</time></trkpt><trkpt lat="44.87945165298711" lon="9.095765853154065"><ele>501.6666666666667</ele><time>2026-05-02T14:05:12Z</time></trkpt><trkpt lat="44.879476664395" lon="9.095878473045538"><ele>500.0</ele><time>2026-05-02T14:05:13Z</time></trkpt><trkpt lat="44.87947873172799" lon="9.095973783694516"><ele>498.33333333333337</ele><time>2026-05-02T14:05:14Z</time></trkpt><trkpt lat="44.879431373283694" lon="9.096110200216788"><ele>496.6666666666667</ele><time>2026-05-02T14:05:16Z</time></trkpt><trkpt lat="44.87940022052041" lon="9.096209922176216"><ele>495.0</ele><time>2026-05-02T14:05:17Z</time></trkpt><trkpt lat="44.879391477501095" lon="9.096353692801845"><ele>495.0</ele><time>2026-05-02T14:05:18Z</time></trkpt><trkpt lat="44.879385315782045" lon="9.096525461725875"><ele>495.0</ele><time>2026-05-02T14:05:19Z</time></trkpt><trkpt lat="44.879379415459205" lon="9.096700481947513"><ele>495.0</ele><time>2026-05-02T14:05:20Z</time></trkpt><trkpt lat="44.879376984061835" lon="9.096827756205942"><ele>495.0</ele><time>2026-05-02T14:05:21Z</time></trkpt><trkpt lat="44.87939090491553" lon="9.096939108590465"><ele>495.0</ele><time>2026-05-02T14:05:22Z</time></trkpt><trkpt lat="44.87942867229771" lon="9.097041872721727"><ele>495.6</ele><time>2026-05-02T14:05:23Z</time></trkpt><trkpt lat="44.87950294915006" lon="9.097133109590633"><ele>496.2</ele><time>2026-05-02T14:05:24Z</time></trkpt><trkpt lat="44.879594790094366" lon="9.097238951345537"><ele>496.79999999999995</ele><time>2026-05-02T14:05:25Z</time></trkpt><trkpt lat="44.879644918383136" lon="9.097384436874744"><ele>497.4</ele><time>2026-05-02T14:05:26Z</time></trkpt><trkpt lat="44.87968770502951" lon="9.09752728140957"><ele>498.0</ele><time>2026-05-02T14:05:27Z</time></trkpt><trkpt lat="44.87974363835588" lon="9.097676520435007"><ele>501.75</ele><time>2026-05-02T14:05:28Z</time></trkpt><trkpt lat="44.87978039178446" lon="9.097880813130468"><ele>505.5</ele><time>2026-05-02T14:05:29Z</time></trkpt><trkpt lat="44.879805464865946" lon="9.098057135763561"><ele>509.25</ele><time>2026-05-02T14:05:30Z</time></trkpt><trkpt lat="44.87982445354044" lon="9.098199179443045"><ele>513.0</ele><time>2026-05-02T14:05:31Z</time></trkpt><trkpt lat="44.87984716170969" lon="9.098345567947247"><ele>516.1999999999999</ele><time>2026-05-02T14:05:32Z</time></trkpt><trkpt lat="44.879880598482636" lon="9.098494981829816"><ele>519.4</ele><time>2026-05-02T14:05:33Z</time></trkpt><trkpt lat="44.879933437881284" lon="9.098627998646988"><ele>522.5999999999999</ele><time>2026-05-02T14:05:34Z</time></trkpt><trkpt lat="44.87998049138237" lon="9.098759082430577"><ele>525.8</ele><time>2026-05-02T14:05:35Z</time></trkpt><trkpt lat="44.88001721767198" lon="9.098882891026014"><ele>529.0</ele><time>2026-05-02T14:05:36Z</time></trkpt><trkpt lat="44.880052048593356" lon="9.09902942621919"><ele>530.6666666666667</ele><time>2026-05-02T14:05:38Z</time></trkpt><trkpt lat="44.88004774528054" lon="9.099119978650812"><ele>532.3333333333334</ele><time>2026-05-02T14:05:39Z</time></trkpt><trkpt lat="44.879963280569676" lon="9.099244881500432"><ele>534.0</ele><time>2026-05-02T14:05:41Z</time></trkpt><trkpt lat="44.87989673022609" lon="9.099258151268536"><ele>535.6666666666666</ele><time>2026-05-02T14:05:42Z</time></trkpt><trkpt lat="44.87984056636327" lon="9.0993227029116"><ele>537.3333333333333</ele><time>2026-05-02T14:05:43Z</time></trkpt><trkpt lat="44.8797667023959" lon="9.099383273697802"><ele>539.0</ele><time>2026-05-02T14:05:44Z</time></trkpt><trkpt lat="44.87967486246232" lon="9.099450486504342"><ele>539.0</ele><time>2026-05-02T14:05:45Z</time></trkpt><trkpt lat="44.87958370841004" lon="9.099523580197319"><ele>539.0</ele><time>2026-05-02T14:05:46Z</time></trkpt><trkpt lat="44.879507674556066" lon="9.099578041587314"><ele>539.0</ele><time>2026-05-02T14:05:47Z</time></trkpt><trkpt lat="44.87942376269184" lon="9.099618062734654"><ele>539.0</ele><time>2026-05-02T14:05:48Z</time></trkpt><trkpt lat="44.87933795338881" lon="9.099647601226275"><ele>539.0</ele><time>2026-05-02T14:05:49Z</time></trkpt><trkpt lat="44.879266549683535" lon="9.09968307168962"><ele>539.0</ele><time>2026-05-02T14:05:50Z</time></trkpt><trkpt lat="44.87918007945817" lon="9.099690296346271"><ele>540.1666666666666</ele><time>2026-05-02T14:05:51Z</time></trkpt><trkpt lat="44.87911524000051" lon="9.099684490111512"><ele>541.3333333333333</ele><time>2026-05-02T14:05:52Z</time></trkpt><trkpt lat="44.879029944700044" lon="9.09964606305922"><ele>542.5</ele><time>2026-05-02T14:05:54Z</time></trkpt><trkpt lat="44.878957478006235" lon="9.099624268557694"><ele>543.6666666666666</ele><time>2026-05-02T14:05:55Z</time></trkpt><trkpt lat="44.878878384006036" lon="9.099638055790898"><ele>544.8333333333334</ele><time>2026-05-02T14:05:56Z</time></trkpt><trkpt lat="44.87878060344132" lon="9.09971090925222"><ele>546.0</ele><time>2026-05-02T14:05:58Z</time></trkpt><trkpt lat="44.87870128270613" lon="9.099749688297976"><ele>547.6666666666666</ele><time>2026-05-02T14:06:00Z</time></trkpt><trkpt lat="44.87876024475137" lon="9.100141060535066"><ele>549.3333333333333</ele><time>2026-05-02T14:06:03Z</time></trkpt><trkpt lat="44.878793065561084" lon="9.100297997378933"><ele>551.0</ele><time>2026-05-02T14:06:04Z</time></trkpt><trkpt lat="44.87879862412216" lon="9.10044655774809"><ele>551.0</ele><time>2026-05-02T14:06:05Z</time></trkpt><trkpt lat="44.87883254983728" lon="9.100537228895474"><ele>551.0</ele><time>2026-05-02T14:06:06Z</time></trkpt><trkpt lat="44.87888448744687" lon="9.100616416624021"><ele>551.0</ele><time>2026-05-02T14:06:07Z</time></trkpt><trkpt lat="44.878966348262395" lon="9.100666170545757"><ele>551.0</ele><time>2026-05-02T14:06:09Z</time></trkpt><trkpt lat="44.87894795417627" lon="9.100782188232673"><ele>551.0</ele><time>2026-05-02T14:06:11Z</time></trkpt><trkpt lat="44.878966903446354" lon="9.10089217676698"><ele>551.0</ele><time>2026-05-02T14:06:13Z</time></trkpt><trkpt lat="44.879019308802505" lon="9.100962822493187"><ele>553.4</ele><time>2026-05-02T14:06:14Z</time></trkpt><trkpt lat="44.87900416439944" lon="9.101070155036753"><ele>555.8</ele><time>2026-05-02T14:06:16Z</time></trkpt><trkpt lat="44.879047521083294" lon="9.101191952392949"><ele>558.1999999999999</ele><time>2026-05-02T14:06:18Z</time></trkpt><trkpt lat="44.879082040044615" lon="9.101326767587908"><ele>560.6</ele><time>2026-05-02T14:06:20Z</time></trkpt><trkpt lat="44.87915373985653" lon="9.101466522868202"><ele>563.0</ele><time>2026-05-02T14:06:22Z</time></trkpt><trkpt lat="44.87919716523344" lon="9.101541984584319"><ele>561.3333333333333</ele><time>2026-05-02T14:06:23Z</time></trkpt><trkpt lat="44.87924575562919" lon="9.10163531223809"><ele>559.6666666666666</ele><time>2026-05-02T14:06:24Z</time></trkpt><trkpt lat="44.879343157531" lon="9.101737657503108"><ele>558.0</ele><time>2026-05-02T14:06:26Z</time></trkpt><trkpt lat="44.87941824099344" lon="9.101807242846444"><ele>556.3333333333334</ele><time>2026-05-02T14:06:27Z</time></trkpt><trkpt lat="44.879486146202254" lon="9.10187136154917"><ele>554.6666666666667</ele><time>2026-05-02T14:06:28Z</time></trkpt><trkpt lat="44.87952932449682" lon="9.101940782652017"><ele>553.0</ele><time>2026-05-02T14:06:29Z</time></trkpt><trkpt lat="44.879603355422226" lon="9.102002737229329"><ele>553.0</ele><time>2026-05-02T14:06:30Z</time></trkpt><trkpt lat="44.87968581278661" lon="9.102065190183403"><ele>553.0</ele><time>2026-05-02T14:06:31Z</time></trkpt><trkpt lat="44.87973917564828" lon="9.102171583914203"><ele>553.0</ele><time>2026-05-02T14:06:33Z</time></trkpt><trkpt lat="44.879781670897046" lon="9.102240559106008"><ele>553.0</ele><time>2026-05-02T14:06:34Z</time></trkpt><trkpt lat="44.87981334174609" lon="9.102352671051063"><ele>553.0</ele><time>2026-05-02T14:06:35Z</time></trkpt><trkpt lat="44.879831264289415" lon="9.102486739340442"><ele>553.0</ele><time>2026-05-02T14:06:36Z</time></trkpt><trkpt lat="44.879807771415436" lon="9.102572256158824"><ele>556.4</ele><time>2026-05-02T14:06:37Z</time></trkpt><trkpt lat="44.87977761203578" lon="9.1026560965908"><ele>559.8</ele><time>2026-05-02T14:06:38Z</time></trkpt><trkpt lat="44.879718316061414" lon="9.102722133208767"><ele>563.2</ele><time>2026-05-02T14:06:39Z</time></trkpt><trkpt lat="44.879646012988914" lon="9.102784489288421"><ele>566.6</ele><time>2026-05-02T14:06:40Z</time></trkpt><trkpt lat="44.87952344571244" lon="9.102888315101039"><ele>570.0</ele><time>2026-05-02T14:06:42Z</time></trkpt><trkpt lat="44.87944718014057" lon="9.102947057163249"><ele>570.0</ele><time>2026-05-02T14:06:44Z</time></trkpt><trkpt lat="44.879418883228425" lon="9.103047733907117"><ele>570.0</ele><time>2026-05-02T14:06:45Z</time></trkpt><trkpt lat="44.879404125564704" lon="9.103182695722937"><ele>570.0</ele><time>2026-05-02T14:06:46Z</time></trkpt><trkpt lat="44.879364965329344" lon="9.103312639215842"><ele>570.0</ele><time>2026-05-02T14:06:47Z</time></trkpt><trkpt lat="44.879334309659974" lon="9.103459359238942"><ele>570.0</ele><time>2026-05-02T14:06:48Z</time></trkpt><trkpt lat="44.87928305010961" lon="9.1035791787275"><ele>576.5</ele><time>2026-05-02T14:06:50Z</time></trkpt><trkpt lat="44.87920533830502" lon="9.103569858057911"><ele>583.0</ele><time>2026-05-02T14:06:52Z</time></trkpt><trkpt lat="44.87919158163869" lon="9.103374076588352"><ele>589.5</ele><time>2026-05-02T14:06:54Z</time></trkpt><trkpt lat="44.87922115383242" lon="9.10327369529385"><ele>596.0</ele><time>2026-05-02T14:06:55Z</time></trkpt><trkpt lat="44.879232983736784" lon="9.103172405896492"><ele>602.5</ele><time>2026-05-02T14:06:56Z</time></trkpt><trkpt lat="44.87918865502697" lon="9.103081890519075"><ele>609.0</ele><time>2026-05-02T14:06:58Z</time></trkpt><trkpt lat="44.87913348132371" lon="9.103134887429192"><ele>609.0</ele><time>2026-05-02T14:07:00Z</time></trkpt><trkpt lat="44.87913166186553" lon="9.103270182481745"><ele>609.0</ele><time>2026-05-02T14:07:02Z</time></trkpt><trkpt lat="44.87910768350692" lon="9.10342907200807"><ele>609.0</ele><time>2026-05-02T14:07:04Z</time></trkpt><trkpt lat="44.8790418474304" lon="9.103559290341927"><ele>609.0</ele><time>2026-05-02T14:07:06Z</time></trkpt><trkpt lat="44.878976922845766" lon="9.103611388600319"><ele>609.0</ele><time>2026-05-02T14:07:08Z</time></trkpt><trkpt lat="44.8788747239294" lon="9.103614227125258"><ele>609.0</ele><time>2026-05-02T14:07:11Z</time></trkpt><trkpt lat="44.87878821666458" lon="9.103660387077815"><ele>609.0</ele><time>2026-05-02T14:07:12Z</time></trkpt><trkpt lat="44.87872836361141" lon="9.103702141594146"><ele>609.0</ele><time>2026-05-02T14:07:13Z</time></trkpt><trkpt lat="44.878624181553974" lon="9.103721558367592"><ele>609.0</ele><time>2026-05-02T14:07:15Z</time></trkpt><trkpt lat="44.87853385073969" lon="9.103718262303346"><ele>609.0</ele><time>2026-05-02T14:07:16Z</time></trkpt><trkpt lat="44.87845336138308" lon="9.103684725655143"><ele>609.0</ele><time>2026-05-02T14:07:17Z</time></trkpt><trkpt lat="44.87835922604351" lon="9.10366052770796"><ele>613.0</ele><time>2026-05-02T14:07:19Z</time></trkpt><trkpt lat="44.87831266231411" lon="9.103737244650235"><ele>617.0</ele><time>2026-05-02T14:07:20Z</time></trkpt><trkpt lat="44.87827784589138" lon="9.103846653655108"><ele>621.0</ele><time>2026-05-02T14:07:21Z</time></trkpt><trkpt lat="44.878240479243786" lon="9.103925147312347"><ele>625.0</ele><time>2026-05-02T14:07:22Z</time></trkpt><trkpt lat="44.8781667016911" lon="9.103972194812885"><ele>629.0</ele><time>2026-05-02T14:07:23Z</time></trkpt><trkpt lat="44.87805850800844" lon="9.104023647931184"><ele>633.0</ele><time>2026-05-02T14:07:24Z</time></trkpt><trkpt lat="44.87795342029387" lon="9.104049227960221"><ele>633.1666666666666</ele><time>2026-05-02T14:07:25Z</time></trkpt><trkpt lat="44.8778644816948" lon="9.10411028891391"><ele>633.3333333333334</ele><time>2026-05-02T14:07:26Z</time></trkpt><trkpt lat="44.87777813804997" lon="9.104130137079702"><ele>633.5</ele><time>2026-05-02T14:07:27Z</time></trkpt><trkpt lat="44.877685352025004" lon="9.104180266744645"><ele>633.6666666666667</ele><time>2026-05-02T14:07:28Z</time></trkpt><trkpt lat="44.87761315506928" lon="9.104206351992037"><ele>633.8333333333334</ele><time>2026-05-02T14:07:29Z</time></trkpt><trkpt lat="44.877548792550655" lon="9.10423369015954"><ele>634.0</ele><time>2026-05-02T14:07:30Z</time></trkpt><trkpt lat="44.87748319290576" lon="9.104260274038252"><ele>634.0</ele><time>2026-05-02T14:07:31Z</time></trkpt><trkpt lat="44.87737704104369" lon="9.10431432790817"><ele>634.0</ele><time>2026-05-02T14:07:33Z</time></trkpt><trkpt lat="44.87732527666711" lon="9.104489982751645"><ele>634.0</ele><time>2026-05-02T14:07:35Z</time></trkpt><trkpt lat="44.87727742713115" lon="9.104624264872594"><ele>634.0</ele><time>2026-05-02T14:07:36Z</time></trkpt><trkpt lat="44.87722784439871" lon="9.104743024299"><ele>634.0</ele><time>2026-05-02T14:07:37Z</time></trkpt><trkpt lat="44.877164116655685" lon="9.104867741898996"><ele>634.0</ele><time>2026-05-02T14:07:38Z</time></trkpt><trkpt lat="44.877105081425405" lon="9.104955842731693"><ele>634.0</ele><time>2026-05-02T14:07:39Z</time></trkpt><trkpt lat="44.87705358931486" lon="9.105045080828486"><ele>634.0</ele><time>2026-05-02T14:07:40Z</time></trkpt><trkpt lat="44.87699265525104" lon="9.105136749945931"><ele>634.0</ele><time>2026-05-02T14:07:41Z</time></trkpt><trkpt lat="44.87693233289724" lon="9.105273009366787"><ele>636.2</ele><time>2026-05-02T14:07:42Z</time></trkpt><trkpt lat="44.876891384656" lon="9.105354513011545"><ele>638.4</ele><time>2026-05-02T14:07:43Z</time></trkpt><trkpt lat="44.87686494807712" lon="9.105491400675207"><ele>640.6</ele><time>2026-05-02T14:07:45Z</time></trkpt><trkpt lat="44.87692431160918" lon="9.105665320111218"><ele>642.8</ele><time>2026-05-02T14:07:47Z</time></trkpt><trkpt lat="44.87693054210653" lon="9.105765433640116"><ele>645.0</ele><time>2026-05-02T14:07:48Z</time></trkpt><trkpt lat="44.87692922384769" lon="9.105905153106866"><ele>646.6666666666666</ele><time>2026-05-02T14:07:50Z</time></trkpt><trkpt lat="44.87688994797228" lon="9.106004759766378"><ele>648.3333333333334</ele><time>2026-05-02T14:07:52Z</time></trkpt><trkpt lat="44.87685045510526" lon="9.106099145787367"><ele>650.0</ele><time>2026-05-02T14:07:55Z</time></trkpt><trkpt lat="44.876852979041125" lon="9.106230215914346"><ele>651.6666666666667</ele><time>2026-05-02T14:07:58Z</time></trkpt><trkpt lat="44.876866692048644" lon="9.1063234719795"><ele>653.3333333333334</ele><time>2026-05-02T14:08:00Z</time></trkpt><trkpt lat="44.87687447007253" lon="9.106412415629789"><ele>655.0</ele><time>2026-05-02T14:08:03Z</time></trkpt><trkpt lat="44.87685134505937" lon="9.106547638607115"><ele>654.6</ele><time>2026-05-02T14:08:05Z</time></trkpt><trkpt lat="44.87684102262287" lon="9.106665469991851"><ele>654.2</ele><time>2026-05-02T14:08:07Z</time></trkpt><trkpt lat="44.87680852157532" lon="9.106787321126227"><ele>653.8</ele><time>2026-05-02T14:08:09Z</time></trkpt><trkpt lat="44.87679879044725" lon="9.106886009326582"><ele>653.4</ele><time>2026-05-02T14:08:11Z</time></trkpt><trkpt lat="44.87673745942149" lon="9.106924459182952"><ele>653.0</ele><time>2026-05-02T14:08:13Z</time></trkpt><trkpt lat="44.87658854841607" lon="9.106921169027936"><ele>648.1999999999999</ele><time>2026-05-02T14:08:15Z</time></trkpt><trkpt lat="44.87648433774676" lon="9.106924324129256"><ele>643.4</ele><time>2026-05-02T14:08:17Z</time></trkpt><trkpt lat="44.87638312549724" lon="9.106959672839093"><ele>638.5999999999999</ele><time>2026-05-02T14:08:19Z</time></trkpt><trkpt lat="44.8763038203173" lon="9.106925667177096"><ele>633.8</ele><time>2026-05-02T14:08:20Z</time></trkpt><trkpt lat="44.876169273640535" lon="9.106882987484575"><ele>629.0</ele><time>2026-05-02T14:08:22Z</time></trkpt><trkpt lat="44.87608828355927" lon="9.10688158443243"><ele>629.0</ele><time>2026-05-02T14:08:23Z</time></trkpt><trkpt lat="44.8759699071384" lon="9.10682785207038"><ele>629.0</ele><time>2026-05-02T14:08:25Z</time></trkpt><trkpt lat="44.875904768260966" lon="9.106799025243522"><ele>629.0</ele><time>2026-05-02T14:08:26Z</time></trkpt><trkpt lat="44.87584386171202" lon="9.106756291206938"><ele>629.0</ele><time>2026-05-02T14:08:27Z</time></trkpt><trkpt lat="44.87574251927972" lon="9.106755943766121"><ele>629.0</ele><time>2026-05-02T14:08:29Z</time></trkpt><trkpt lat="44.87567367679311" lon="9.10678804509838"><ele>629.0</ele><time>2026-05-02T14:08:31Z</time></trkpt><trkpt lat="44.875625515268794" lon="9.106901820159417"><ele>625.4</ele><time>2026-05-02T14:08:33Z</time></trkpt><trkpt lat="44.875575643372514" lon="9.107033576093192"><ele>621.8</ele><time>2026-05-02T14:08:35Z</time></trkpt><trkpt lat="44.87554854165914" lon="9.107151430344864"><ele>618.2</ele><time>2026-05-02T14:08:37Z</time></trkpt><trkpt lat="44.8754714967121" lon="9.107170092906758"><ele>614.6</ele><time>2026-05-02T14:08:40Z</time></trkpt><trkpt lat="44.875391193835384" lon="9.107069947584804"><ele>611.0</ele><time>2026-05-02T14:08:42Z</time></trkpt><trkpt lat="44.875306490604" lon="9.10703967205757"><ele>611.0</ele><time>2026-05-02T14:08:44Z</time></trkpt><trkpt lat="44.875189011955364" lon="9.10706313250031"><ele>611.0</ele><time>2026-05-02T14:08:46Z</time></trkpt><trkpt lat="44.87511748505989" lon="9.107109649697694"><ele>611.0</ele><time>2026-05-02T14:08:47Z</time></trkpt><trkpt lat="44.874994538534395" lon="9.107140444247696"><ele>611.0</ele><time>2026-05-02T14:08:49Z</time></trkpt><trkpt lat="44.87492677437674" lon="9.107140178531736"><ele>611.0</ele><time>2026-05-02T14:08:50Z</time></trkpt><trkpt lat="44.87486100041952" lon="9.107125924380833"><ele>606.8333333333333</ele><time>2026-05-02T14:08:52Z</time></trkpt><trkpt lat="44.87478484010421" lon="9.107125906108061"><ele>602.6666666666666</ele><time>2026-05-02T14:08:54Z</time></trkpt><trkpt lat="44.87471955146923" lon="9.107111650866809"><ele>598.5</ele><time>2026-05-02T14:08:56Z</time></trkpt><trkpt lat="44.874630352325845" lon="9.107091492918075"><ele>594.3333333333334</ele><time>2026-05-02T14:08:58Z</time></trkpt><trkpt lat="44.874552360095144" lon="9.107054784513258"><ele>590.1666666666667</ele><time>2026-05-02T14:09:00Z</time></trkpt><trkpt lat="44.87447323429594" lon="9.107022609294251"><ele>586.0</ele><time>2026-05-02T14:09:02Z</time></trkpt><trkpt lat="44.874410537266115" lon="9.106987881713348"><ele>586.0</ele><time>2026-05-02T14:09:04Z</time></trkpt><trkpt lat="44.87433948851327" lon="9.1069331497166"><ele>586.0</ele><time>2026-05-02T14:09:06Z</time></trkpt><trkpt lat="44.87425767199775" lon="9.106819022174824"><ele>586.0</ele><time>2026-05-02T14:09:08Z</time></trkpt><trkpt lat="44.874201094492705" lon="9.106752349798294"><ele>586.0</ele><time>2026-05-02T14:09:09Z</time></trkpt><trkpt lat="44.87410027863253" lon="9.106672298374816"><ele>586.0</ele><time>2026-05-02T14:09:11Z</time></trkpt><trkpt lat="44.874016449928995" lon="9.106593833054779"><ele>578.4</ele><time>2026-05-02T14:09:13Z</time></trkpt><trkpt lat="44.87395207169021" lon="9.106529295097294"><ele>570.8</ele><time>2026-05-02T14:09:14Z</time></trkpt><trkpt lat="44.873873467422186" lon="9.106469538496617"><ele>563.1999999999999</ele><time>2026-05-02T14:09:15Z</time></trkpt><trkpt lat="44.87380499987412" lon="9.106436199655123"><ele>555.6</ele><time>2026-05-02T14:09:16Z</time></trkpt><trkpt lat="44.87368865859877" lon="9.106385746985985"><ele>548.0</ele><time>2026-05-02T14:09:18Z</time></trkpt><trkpt lat="44.873571406762814" lon="9.106309696193376"><ele>548.0</ele><time>2026-05-02T14:09:20Z</time></trkpt><trkpt lat="44.87345919741371" lon="9.106286200408608"><ele>548.0</ele><time>2026-05-02T14:09:22Z</time></trkpt><trkpt lat="44.87337429642184" lon="9.106314379831934"><ele>548.0</ele><time>2026-05-02T14:09:23Z</time></trkpt><trkpt lat="44.87331237052667" lon="9.106336408413457"><ele>548.0</ele><time>2026-05-02T14:09:24Z</time></trkpt><trkpt lat="44.87320728645885" lon="9.106381136069711"><ele>548.0</ele><time>2026-05-02T14:09:26Z</time></trkpt><trkpt lat="44.87309483918444" lon="9.106434711646122"><ele>549.3333333333333</ele><time>2026-05-02T14:09:28Z</time></trkpt><trkpt lat="44.87303460843075" lon="9.106477631692952"><ele>550.6666666666666</ele><time>2026-05-02T14:09:29Z</time></trkpt><trkpt lat="44.8729816950727" lon="9.10652632003691"><ele>552.0</ele><time>2026-05-02T14:09:30Z</time></trkpt><trkpt lat="44.87287873766759" lon="9.106607440012093"><ele>553.3333333333334</ele><time>2026-05-02T14:09:32Z</time></trkpt><trkpt lat="44.87281682292584" lon="9.106624681615832"><ele>554.6666666666667</ele><time>2026-05-02T14:09:33Z</time></trkpt><trkpt lat="44.87275259451992" lon="9.106642250558552"><ele>556.0</ele><time>2026-05-02T14:09:34Z</time></trkpt><trkpt lat="44.8726572933285" lon="9.106682886054003"><ele>556.2</ele><time>2026-05-02T14:09:36Z</time></trkpt><trkpt lat="44.87259730254147" lon="9.106712495499227"><ele>556.4000000000001</ele><time>2026-05-02T14:09:37Z</time></trkpt><trkpt lat="44.87249266959757" lon="9.106768786111445"><ele>556.6</ele><time>2026-05-02T14:09:39Z</time></trkpt><trkpt lat="44.87240035939461" lon="9.106826528352094"><ele>556.8000000000001</ele><time>2026-05-02T14:09:41Z</time></trkpt><trkpt lat="44.87230728287606" lon="9.106860855745856"><ele>557.0</ele><time>2026-05-02T14:09:43Z</time></trkpt><trkpt lat="44.87218608585678" lon="9.106843182692028"><ele>557.0</ele><time>2026-05-02T14:09:45Z</time></trkpt><trkpt lat="44.87209026317646" lon="9.106828539679901"><ele>557.0</ele><time>2026-05-02T14:09:47Z</time></trkpt><trkpt lat="44.872021373066374" lon="9.106855866176163"><ele>557.0</ele><time>2026-05-02T14:09:49Z</time></trkpt><trkpt lat="44.87196453035057" lon="9.106914217159481"><ele>557.0</ele><time>2026-05-02T14:09:51Z</time></trkpt><trkpt lat="44.87186644038933" lon="9.107031978985965"><ele>557.0</ele><time>2026-05-02T14:09:53Z</time></trkpt><trkpt lat="44.871793241359924" lon="9.10711900410387"><ele>554.0</ele><time>2026-05-02T14:09:55Z</time></trkpt><trkpt lat="44.87169848386458" lon="9.107221269360553"><ele>551.0</ele><time>2026-05-02T14:09:57Z</time></trkpt><trkpt lat="44.871637932073405" lon="9.107281015116603"><ele>548.0</ele><time>2026-05-02T14:09:58Z</time></trkpt><trkpt lat="44.871574562883595" lon="9.10733912646988"><ele>545.0</ele><time>2026-05-02T14:09:59Z</time></trkpt><trkpt lat="44.87152210213138" lon="9.107389390038598"><ele>542.0</ele><time>2026-05-02T14:10:00Z</time></trkpt><trkpt lat="44.871411701496676" lon="9.10739625220012"><ele>539.0</ele><time>2026-05-02T14:10:02Z</time></trkpt><trkpt lat="44.87133070050376" lon="9.107349877678798"><ele>539.0</ele><time>2026-05-02T14:10:03Z</time></trkpt><trkpt lat="44.871215907662254" lon="9.107319872736499"><ele>539.0</ele><time>2026-05-02T14:10:04Z</time></trkpt><trkpt lat="44.87112612222642" lon="9.107307911031599"><ele>539.0</ele><time>2026-05-02T14:10:05Z</time></trkpt><trkpt lat="44.871032925304085" lon="9.107281806524268"><ele>539.0</ele><time>2026-05-02T14:10:06Z</time></trkpt><trkpt lat="44.87093062608059" lon="9.107262430189525"><ele>539.0</ele><time>2026-05-02T14:10:07Z</time></trkpt><trkpt lat="44.87083520223777" lon="9.107257465230237"><ele>536.8333333333333</ele><time>2026-05-02T14:10:08Z</time></trkpt><trkpt lat="44.87075885425355" lon="9.107272140105994"><ele>534.6666666666666</ele><time>2026-05-02T14:10:09Z</time></trkpt><trkpt lat="44.87069627085221" lon="9.107290387490924"><ele>532.5</ele><time>2026-05-02T14:10:10Z</time></trkpt><trkpt lat="44.870619548591925" lon="9.107279196600736"><ele>530.3333333333334</ele><time>2026-05-02T14:10:11Z</time></trkpt><trkpt lat="44.87055390765773" lon="9.10723094255969"><ele>528.1666666666667</ele><time>2026-05-02T14:10:12Z</time></trkpt><trkpt lat="44.87046794421539" lon="9.107205652896296"><ele>526.0</ele><time>2026-05-02T14:10:13Z</time></trkpt><trkpt lat="44.87039875564269" lon="9.10724603901822"><ele>526.0</ele><time>2026-05-02T14:10:14Z</time></trkpt><trkpt lat="44.87030377411595" lon="9.10729218653456"><ele>526.0</ele><time>2026-05-02T14:10:15Z</time></trkpt><trkpt lat="44.87017991951417" lon="9.107267674171137"><ele>526.0</ele><time>2026-05-02T14:10:17Z</time></trkpt><trkpt lat="44.87010815241827" lon="9.107234152190118"><ele>526.0</ele><time>2026-05-02T14:10:18Z</time></trkpt><trkpt lat="44.87003431843017" lon="9.107178259656612"><ele>526.0</ele><time>2026-05-02T14:10:19Z</time></trkpt><trkpt lat="44.86998227893078" lon="9.107114400827289"><ele>528.5</ele><time>2026-05-02T14:10:20Z</time></trkpt><trkpt lat="44.869917948652265" lon="9.107003276700935"><ele>531.0</ele><time>2026-05-02T14:10:21Z</time></trkpt><trkpt lat="44.86985180675712" lon="9.106940250882898"><ele>533.5</ele><time>2026-05-02T14:10:22Z</time></trkpt><trkpt lat="44.869761155463294" lon="9.106905195832539"><ele>536.0</ele><time>2026-05-02T14:10:24Z</time></trkpt><trkpt lat="44.869699470743925" lon="9.106925587626234"><ele>538.5</ele><time>2026-05-02T14:10:25Z</time></trkpt><trkpt lat="44.86962596488539" lon="9.106939757255093"><ele>541.0</ele><time>2026-05-02T14:10:26Z</time></trkpt><trkpt lat="44.86955589020848" lon="9.106940461010472"><ele>541.0</ele><time>2026-05-02T14:10:27Z</time></trkpt><trkpt lat="44.869462155124666" lon="9.106946394369206"><ele>541.0</ele><time>2026-05-02T14:10:28Z</time></trkpt><trkpt lat="44.86937249579088" lon="9.106949478919876"><ele>541.0</ele><time>2026-05-02T14:10:29Z</time></trkpt><trkpt lat="44.86929613434861" lon="9.106966247980832"><ele>541.0</ele><time>2026-05-02T14:10:30Z</time></trkpt><trkpt lat="44.869219622990926" lon="9.107022246142096"><ele>541.0</ele><time>2026-05-02T14:10:32Z</time></trkpt><trkpt lat="44.869159735726214" lon="9.107093546977675"><ele>541.0</ele><time>2026-05-02T14:10:34Z</time></trkpt><trkpt lat="44.86908582041436" lon="9.107173455693786"><ele>543.3333333333334</ele><time>2026-05-02T14:10:36Z</time></trkpt><trkpt lat="44.86904445809402" lon="9.107249735569882"><ele>545.6666666666667</ele><time>2026-05-02T14:10:37Z</time></trkpt><trkpt lat="44.86898535840426" lon="9.10729921871265"><ele>548.0</ele><time>2026-05-02T14:10:38Z</time></trkpt><trkpt lat="44.86891999553896" lon="9.107346778757655"><ele>550.3333333333334</ele><time>2026-05-02T14:10:39Z</time></trkpt><trkpt lat="44.868871498833585" lon="9.107413025329079"><ele>552.6666666666666</ele><time>2026-05-02T14:10:40Z</time></trkpt><trkpt lat="44.86879742785668" lon="9.10751047274451"><ele>555.0</ele><time>2026-05-02T14:10:42Z</time></trkpt><trkpt lat="44.868735400923356" lon="9.107566356783716"><ele>555.8</ele><time>2026-05-02T14:10:44Z</time></trkpt><trkpt lat="44.8686249946694" lon="9.107524984578719"><ele>556.6</ele><time>2026-05-02T14:10:47Z</time></trkpt><trkpt lat="44.868518855357706" lon="9.107521872419442"><ele>557.4</ele><time>2026-05-02T14:10:49Z</time></trkpt><trkpt lat="44.8684278945387" lon="9.107495740285763"><ele>558.2</ele><time>2026-05-02T14:10:51Z</time></trkpt><trkpt lat="44.8683760887503" lon="9.107421996957292"><ele>559.0</ele><time>2026-05-02T14:10:52Z</time></trkpt><trkpt lat="44.86831545493412" lon="9.107349340050613"><ele>554.8</ele><time>2026-05-02T14:10:53Z</time></trkpt><trkpt lat="44.86821572460656" lon="9.107270990656087"><ele>550.5999999999999</ele><time>2026-05-02T14:10:55Z</time></trkpt><trkpt lat="44.86813142542335" lon="9.107177145119582"><ele>546.4</ele><time>2026-05-02T14:10:57Z</time></trkpt><trkpt lat="44.868077724101035" lon="9.10712751514176"><ele>542.1999999999999</ele><time>2026-05-02T14:10:58Z</time></trkpt><trkpt lat="44.868016997505514" lon="9.107078973657329"><ele>538.0</ele><time>2026-05-02T14:10:59Z</time></trkpt><trkpt lat="44.867934588521365" lon="9.107009976862848"><ele>538.0</ele><time>2026-05-02T14:11:01Z</time></trkpt><trkpt lat="44.867861404187245" lon="9.106953645655775"><ele>538.0</ele><time>2026-05-02T14:11:03Z</time></trkpt><trkpt lat="44.86777459956592" lon="9.106895392231355"><ele>538.0</ele><time>2026-05-02T14:11:06Z</time></trkpt><trkpt lat="44.8677345248411" lon="9.106800652505713"><ele>538.0</ele><time>2026-05-02T14:11:09Z</time></trkpt><trkpt lat="44.8676937859336" lon="9.106703902219651"><ele>538.0</ele><time>2026-05-02T14:11:12Z</time></trkpt><trkpt lat="44.86765861695871" lon="9.106629594087261"><ele>538.0</ele><time>2026-05-02T14:11:15Z</time></trkpt><trkpt lat="44.867621473560064" lon="9.106556839494909"><ele>531.8333333333334</ele><time>2026-05-02T14:11:17Z</time></trkpt><trkpt lat="44.867580754422995" lon="9.10643084481127"><ele>525.6666666666667</ele><time>2026-05-02T14:11:20Z</time></trkpt><trkpt lat="44.8675430146687" lon="9.10632592968381"><ele>519.5</ele><time>2026-05-02T14:11:22Z</time></trkpt><trkpt lat="44.86751526463947" lon="9.106218219839478"><ele>513.3333333333334</ele><time>2026-05-02T14:11:24Z</time></trkpt><trkpt lat="44.867437355064226" lon="9.106122617285923"><ele>507.1666666666667</ele><time>2026-05-02T14:11:27Z</time></trkpt><trkpt lat="44.86737269441084" lon="9.106088895921465"><ele>501.0</ele><time>2026-05-02T14:11:28Z</time></trkpt><trkpt lat="44.867268912028806" lon="9.106075316804631"><ele>501.0</ele><time>2026-05-02T14:11:30Z</time></trkpt><trkpt lat="44.86717497346229" lon="9.105972107268045"><ele>501.0</ele><time>2026-05-02T14:11:32Z</time></trkpt><trkpt lat="44.86711174405801" lon="9.10593110549456"><ele>501.0</ele><time>2026-05-02T14:11:33Z</time></trkpt><trkpt lat="44.86703744429565" lon="9.105877448523199"><ele>501.0</ele><time>2026-05-02T14:11:34Z</time></trkpt><trkpt lat="44.866975735287" lon="9.105834954167518"><ele>501.0</ele><time>2026-05-02T14:11:35Z</time></trkpt><trkpt lat="44.86691097060544" lon="9.10576877177319"><ele>501.0</ele><time>2026-05-02T14:11:36Z</time></trkpt><trkpt lat="44.866846924962545" lon="9.105700958244917"><ele>498.0</ele><time>2026-05-02T14:11:37Z</time></trkpt><trkpt lat="44.86679107153151" lon="9.10564584439145"><ele>495.0</ele><time>2026-05-02T14:11:38Z</time></trkpt><trkpt lat="44.86673107774473" lon="9.105579639307072"><ele>492.0</ele><time>2026-05-02T14:11:40Z</time></trkpt><trkpt lat="44.866663230103505" lon="9.105572355482144"><ele>489.0</ele><time>2026-05-02T14:12:50Z</time></trkpt><trkpt lat="44.866580298453435" lon="9.105493756233242"><ele>486.0</ele><time>2026-05-02T14:12:52Z</time></trkpt><trkpt lat="44.86651729435089" lon="9.105443631615902"><ele>483.0</ele><time>2026-05-02T14:12:53Z</time></trkpt><trkpt lat="44.86645047193102" lon="9.105389119135308"><ele>482.3333333333333</ele><time>2026-05-02T14:12:54Z</time></trkpt><trkpt lat="44.866390906932935" lon="9.10533833247348"><ele>481.66666666666663</ele><time>2026-05-02T14:12:55Z</time></trkpt><trkpt lat="44.86632937931629" lon="9.105278167017493"><ele>481.0</ele><time>2026-05-02T14:12:56Z</time></trkpt><trkpt lat="44.86627944810663" lon="9.105141880936568"><ele>480.3333333333333</ele><time>2026-05-02T14:12:58Z</time></trkpt><trkpt lat="44.86628775225646" lon="9.105049268514424"><ele>479.66666666666663</ele><time>2026-05-02T14:12:59Z</time></trkpt><trkpt lat="44.86630763180193" lon="9.10493062863835"><ele>479.0</ele><time>2026-05-02T14:13:00Z</time></trkpt><trkpt lat="44.86632963425833" lon="9.10481088579038"><ele>475.4</ele><time>2026-05-02T14:13:01Z</time></trkpt><trkpt lat="44.86635051705425" lon="9.104690339834455"><ele>471.79999999999995</ele><time>2026-05-02T14:13:02Z</time></trkpt><trkpt lat="44.86636905488829" lon="9.10457165199632"><ele>468.20000000000005</ele><time>2026-05-02T14:13:03Z</time></trkpt><trkpt lat="44.866391664639565" lon="9.104432385549389"><ele>464.6</ele><time>2026-05-02T14:13:05Z</time></trkpt><trkpt lat="44.86632367533382" lon="9.104315265263054"><ele>461.0</ele><time>2026-05-02T14:13:07Z</time></trkpt><trkpt lat="44.8662543602387" lon="9.104258646101819"><ele>460.99999999999994</ele><time>2026-05-02T14:13:08Z</time></trkpt><trkpt lat="44.86619765566667" lon="9.104195631966094"><ele>461.0</ele><time>2026-05-02T14:13:09Z</time></trkpt><trkpt lat="44.86613504348521" lon="9.104155957840405"><ele>461.0</ele><time>2026-05-02T14:13:10Z</time></trkpt><trkpt lat="44.86607625359998" lon="9.104086424268083"><ele>461.0</ele><time>2026-05-02T14:13:11Z</time></trkpt><trkpt lat="44.86595588072864" lon="9.104031664385063"><ele>460.99999999999994</ele><time>2026-05-02T14:13:13Z</time></trkpt><trkpt lat="44.86587303692994" lon="9.103975082536852"><ele>461.0</ele><time>2026-05-02T14:13:14Z</time></trkpt><trkpt lat="44.86580251706979" lon="9.103950001507549"><ele>460.99999999999994</ele><time>2026-05-02T14:13:15Z</time></trkpt><trkpt lat="44.86573922702765" lon="9.103920249361918"><ele>461.0</ele><time>2026-05-02T14:13:16Z</time></trkpt><trkpt lat="44.865638129090506" lon="9.103907192127044"><ele>461.0</ele><time>2026-05-02T14:13:18Z</time></trkpt><trkpt lat="44.865527431979515" lon="9.10396474589273"><ele>461.0</ele><time>2026-05-02T14:13:20Z</time></trkpt><trkpt lat="44.86545952046022" lon="9.104016252100688"><ele>460.99999999999994</ele><time>2026-05-02T14:13:21Z</time></trkpt><trkpt lat="44.865391105344386" lon="9.104075496247349"><ele>461.0</ele><time>2026-05-02T14:13:22Z</time></trkpt><trkpt lat="44.865333481759194" lon="9.104144515517193"><ele>460.99999999999994</ele><time>2026-05-02T14:13:23Z</time></trkpt><trkpt lat="44.865266547545886" lon="9.104208176320096"><ele>461.0</ele><time>2026-05-02T14:13:24Z</time></trkpt><trkpt lat="44.86520501392241" lon="9.104246121591759"><ele>461.0</ele><time>2026-05-02T14:13:25Z</time></trkpt><trkpt lat="44.8651435710741" lon="9.104316017870744"><ele>461.0</ele><time>2026-05-02T14:13:26Z</time></trkpt><trkpt lat="44.86510115602962" lon="9.104419938996351"><ele>460.99999999999994</ele><time>2026-05-02T14:13:27Z</time></trkpt><trkpt lat="44.86507244689983" lon="9.104513091045048"><ele>461.0</ele><time>2026-05-02T14:13:28Z</time></trkpt><trkpt lat="44.86503633729178" lon="9.1045961139288"><ele>458.3333333333333</ele><time>2026-05-02T14:13:29Z</time></trkpt><trkpt lat="44.86499234357203" lon="9.104665144676868"><ele>455.66666666666663</ele><time>2026-05-02T14:13:30Z</time></trkpt><trkpt lat="44.86494848814527" lon="9.104758266359726"><ele>453.0</ele><time>2026-05-02T14:13:31Z</time></trkpt><trkpt lat="44.864910594218934" lon="9.104844695906944"><ele>450.33333333333337</ele><time>2026-05-02T14:13:32Z</time></trkpt><trkpt lat="44.864880541067684" lon="9.104922932424486"><ele>447.6666666666667</ele><time>2026-05-02T14:13:33Z</time></trkpt><trkpt lat="44.864797001108855" lon="9.105038293383895"><ele>445.0</ele><time>2026-05-02T14:13:35Z</time></trkpt><trkpt lat="44.86464665378349" lon="9.105080539948634"><ele>445.0</ele><time>2026-05-02T14:13:37Z</time></trkpt><trkpt lat="44.86455113606077" lon="9.105052881349067"><ele>445.0</ele><time>2026-05-02T14:13:38Z</time></trkpt><trkpt lat="44.86445129738916" lon="9.105033740816683"><ele>445.0</ele><time>2026-05-02T14:13:39Z</time></trkpt><trkpt lat="44.86435566654986" lon="9.105023239659145"><ele>445.0</ele><time>2026-05-02T14:13:40Z</time></trkpt><trkpt lat="44.86426614405201" lon="9.105031588836804"><ele>445.0</ele><time>2026-05-02T14:13:41Z</time></trkpt><trkpt lat="44.86418740747021" lon="9.105046805226738"><ele>441.1666666666667</ele><time>2026-05-02T14:13:42Z</time></trkpt><trkpt lat="44.86411584843637" lon="9.105074192184812"><ele>437.33333333333337</ele><time>2026-05-02T14:13:43Z</time></trkpt><trkpt lat="44.86403656566272" lon="9.105105700726543"><ele>433.5</ele><time>2026-05-02T14:13:44Z</time></trkpt><trkpt lat="44.8639307046426" lon="9.105133807221947"><ele>429.66666666666663</ele><time>2026-05-02T14:13:46Z</time></trkpt><trkpt lat="44.86386877671248" lon="9.105116975092693"><ele>425.8333333333333</ele><time>2026-05-02T14:13:47Z</time></trkpt><trkpt lat="44.86379430581984" lon="9.105064214865855"><ele>422.0</ele><time>2026-05-02T14:13:48Z</time></trkpt><trkpt lat="44.863694947651325" lon="9.105012402094786"><ele>421.99999999999994</ele><time>2026-05-02T14:13:49Z</time></trkpt><trkpt lat="44.86359956584701" lon="9.104976448421546"><ele>422.0</ele><time>2026-05-02T14:13:50Z</time></trkpt><trkpt lat="44.863512503512936" lon="9.104918858182021"><ele>422.0</ele><time>2026-05-02T14:13:51Z</time></trkpt><trkpt lat="44.863434293322676" lon="9.104869511519329"><ele>422.0</ele><time>2026-05-02T14:13:52Z</time></trkpt><trkpt lat="44.86337831792986" lon="9.104817538187996"><ele>421.99999999999994</ele><time>2026-05-02T14:13:53Z</time></trkpt><trkpt lat="44.86332704786152" lon="9.104762822119135"><ele>422.0</ele><time>2026-05-02T14:13:54Z</time></trkpt><trkpt lat="44.86327332271147" lon="9.104819958667516"><ele>420.49999999999994</ele><time>2026-05-02T14:13:57Z</time></trkpt><trkpt lat="44.86330291261736" lon="9.104917476255219"><ele>419.0</ele><time>2026-05-02T14:13:59Z</time></trkpt><trkpt lat="44.86333740191714" lon="9.105015672411268"><ele>417.5</ele><time>2026-05-02T14:14:01Z</time></trkpt><trkpt lat="44.86336669529311" lon="9.105150430979126"><ele>416.0</ele><time>2026-05-02T14:14:03Z</time></trkpt><trkpt lat="44.86337381274233" lon="9.105251263929077"><ele>414.49999999999994</ele><time>2026-05-02T14:14:04Z</time></trkpt><trkpt lat="44.86338416814906" lon="9.105346135394011"><ele>413.0</ele><time>2026-05-02T14:14:05Z</time></trkpt><trkpt lat="44.86339945102638" lon="9.105444307605374"><ele>412.99999999999994</ele><time>2026-05-02T14:14:06Z</time></trkpt><trkpt lat="44.863405117829195" lon="9.105534637346086"><ele>413.0</ele><time>2026-05-02T14:14:07Z</time></trkpt><trkpt lat="44.86341221889657" lon="9.105628053885274"><ele>413.0</ele><time>2026-05-02T14:14:08Z</time></trkpt><trkpt lat="44.86343560495927" lon="9.105724379017815"><ele>413.0</ele><time>2026-05-02T14:14:09Z</time></trkpt><trkpt lat="44.86347012217321" lon="9.105824947471495"><ele>412.99999999999994</ele><time>2026-05-02T14:14:10Z</time></trkpt><trkpt lat="44.86352210624476" lon="9.105943382406737"><ele>413.0</ele><time>2026-05-02T14:14:11Z</time></trkpt><trkpt lat="44.863546887369026" lon="9.10604951255516"><ele>412.85714285714283</ele><time>2026-05-02T14:14:12Z</time></trkpt><trkpt lat="44.863565867086635" lon="9.106161108548333"><ele>412.7142857142857</ele><time>2026-05-02T14:14:13Z</time></trkpt><trkpt lat="44.86358512256533" lon="9.106248624276601"><ele>412.57142857142856</ele><time>2026-05-02T14:14:14Z</time></trkpt><trkpt lat="44.863605703491935" lon="9.106334167718042"><ele>412.42857142857144</ele><time>2026-05-02T14:14:15Z</time></trkpt><trkpt lat="44.86364149008108" lon="9.106427708729097"><ele>412.2857142857143</ele><time>2026-05-02T14:14:16Z</time></trkpt><trkpt lat="44.863681365200975" lon="9.106513803295048"><ele>412.1428571428571</ele><time>2026-05-02T14:14:17Z</time></trkpt><trkpt lat="44.863727512375256" lon="9.106603467715594"><ele>412.0</ele><time>2026-05-02T14:14:18Z</time></trkpt><trkpt lat="44.863762132484055" lon="9.106690300788644"><ele>408.6</ele><time>2026-05-02T14:14:19Z</time></trkpt><trkpt lat="44.86379472555607" lon="9.106773290280904"><ele>405.20000000000005</ele><time>2026-05-02T14:14:20Z</time></trkpt><trkpt lat="44.863826789935295" lon="9.106938217326643"><ele>401.8</ele><time>2026-05-02T14:14:22Z</time></trkpt><trkpt lat="44.86389918605532" lon="9.107100716093385"><ele>398.4</ele><time>2026-05-02T14:14:24Z</time></trkpt><trkpt lat="44.86395867888883" lon="9.107192301839993"><ele>395.0</ele><time>2026-05-02T14:14:25Z</time></trkpt><trkpt lat="44.86399630475265" lon="9.10727857444964"><ele>395.0</ele><time>2026-05-02T14:14:26Z</time></trkpt><trkpt lat="44.864023676898306" lon="9.107379258893765"><ele>395.0</ele><time>2026-05-02T14:14:27Z</time></trkpt><trkpt lat="44.86401388057081" lon="9.107513499829034"><ele>395.0</ele><time>2026-05-02T14:14:28Z</time></trkpt><trkpt lat="44.86400307539156" lon="9.107690882528118"><ele>395.0</ele><time>2026-05-02T14:14:29Z</time></trkpt><trkpt lat="44.86398596673215" lon="9.107826225229067"><ele>395.0</ele><time>2026-05-02T14:14:30Z</time></trkpt><trkpt lat="44.86396129710286" lon="9.107924832231479"><ele>393.66666666666663</ele><time>2026-05-02T14:14:31Z</time></trkpt><trkpt lat="44.863947660027605" lon="9.10801767541623"><ele>392.3333333333333</ele><time>2026-05-02T14:14:32Z</time></trkpt><trkpt lat="44.863871508835665" lon="9.1080533738604"><ele>391.0</ele><time>2026-05-02T14:14:33Z</time></trkpt><trkpt lat="44.863803190454156" lon="9.108121665996372"><ele>389.66666666666663</ele><time>2026-05-02T14:14:34Z</time></trkpt><trkpt lat="44.86373951429367" lon="9.108204333567592"><ele>388.3333333333333</ele><time>2026-05-02T14:14:35Z</time></trkpt><trkpt lat="44.86366917266762" lon="9.10823076967379"><ele>387.0</ele><time>2026-05-02T14:14:36Z</time></trkpt><trkpt lat="44.86358279991774" lon="9.108177599842351"><ele>387.0</ele><time>2026-05-02T14:14:37Z</time></trkpt><trkpt lat="44.86348506912178" lon="9.108105047604422"><ele>387.0</ele><time>2026-05-02T14:14:38Z</time></trkpt><trkpt lat="44.86338201363139" lon="9.108040894070369"><ele>387.0</ele><time>2026-05-02T14:14:39Z</time></trkpt><trkpt lat="44.86328410356929" lon="9.10802145712263"><ele>387.0</ele><time>2026-05-02T14:14:40Z</time></trkpt><trkpt lat="44.863208314158484" lon="9.108020835071294"><ele>387.0</ele><time>2026-05-02T14:14:41Z</time></trkpt><trkpt lat="44.863136113651876" lon="9.108063631343342"><ele>384.25</ele><time>2026-05-02T14:14:42Z</time></trkpt><trkpt lat="44.86307109127822" lon="9.108156180358893"><ele>381.5</ele><time>2026-05-02T14:14:43Z</time></trkpt><trkpt lat="44.863031248872964" lon="9.10829703545094"><ele>378.75</ele><time>2026-05-02T14:14:44Z</time></trkpt><trkpt lat="44.86301259364379" lon="9.10847715810615"><ele>376.0</ele><time>2026-05-02T14:14:45Z</time></trkpt><trkpt lat="44.863013663016915" lon="9.1086718513473"><ele>374.0</ele><time>2026-05-02T14:14:46Z</time></trkpt><trkpt lat="44.863000283988505" lon="9.108857664630138"><ele>372.0</ele><time>2026-05-02T14:14:47Z</time></trkpt><trkpt lat="44.86297989711588" lon="9.109007274960355"><ele>370.0</ele><time>2026-05-02T14:14:48Z</time></trkpt><trkpt lat="44.862941379653876" lon="9.109142898402201"><ele>368.0</ele><time>2026-05-02T14:14:49Z</time></trkpt><trkpt lat="44.86289406600629" lon="9.109276234627565"><ele>367.0</ele><time>2026-05-02T14:14:50Z</time></trkpt><trkpt lat="44.86287605096524" lon="9.10941807933339"><ele>366.0</ele><time>2026-05-02T14:14:51Z</time></trkpt><trkpt lat="44.86286091572617" lon="9.10955803883566"><ele>365.0</ele><time>2026-05-02T14:14:52Z</time></trkpt><trkpt lat="44.862877972578325" lon="9.10971186532123"><ele>364.0</ele><time>2026-05-02T14:14:53Z</time></trkpt><trkpt lat="44.86287657959564" lon="9.109840734438855"><ele>363.0</ele><time>2026-05-02T14:14:54Z</time></trkpt><trkpt lat="44.86286703684139" lon="9.109950720741676"><ele>360.4</ele><time>2026-05-02T14:14:55Z</time></trkpt><trkpt lat="44.862802218537915" lon="9.110013495563008"><ele>357.79999999999995</ele><time>2026-05-02T14:14:56Z</time></trkpt><trkpt lat="44.86270746120962" lon="9.110043862832265"><ele>355.2</ele><time>2026-05-02T14:14:57Z</time></trkpt><trkpt lat="44.8625876202052" lon="9.11004212141952"><ele>352.6</ele><time>2026-05-02T14:14:58Z</time></trkpt><trkpt lat="44.86250121055688" lon="9.110105731577276"><ele>350.0</ele><time>2026-05-02T14:14:59Z</time></trkpt><trkpt lat="44.86244315650145" lon="9.110237523841048"><ele>346.75</ele><time>2026-05-02T14:15:00Z</time></trkpt><trkpt lat="44.86238848493685" lon="9.110386651464275"><ele>343.5</ele><time>2026-05-02T14:15:01Z</time></trkpt><trkpt lat="44.862335770321515" lon="9.110541358235956"><ele>340.25</ele><time>2026-05-02T14:15:02Z</time></trkpt><trkpt lat="44.862301605515256" lon="9.110674724081905"><ele>337.0</ele><time>2026-05-02T14:15:03Z</time></trkpt><trkpt lat="44.86217230186094" lon="9.110741856495812"><ele>337.0</ele><time>2026-05-02T14:15:05Z</time></trkpt><trkpt lat="44.86208578930488" lon="9.110716151380691"><ele>337.0</ele><time>2026-05-02T14:15:06Z</time></trkpt><trkpt lat="44.861994417238385" lon="9.110640822056084"><ele>337.0</ele><time>2026-05-02T14:15:07Z</time></trkpt><trkpt lat="44.86188023805917" lon="9.110541688694367"><ele>337.0</ele><time>2026-05-02T14:15:08Z</time></trkpt><trkpt lat="44.861757422378346" lon="9.110461504207969"><ele>334.5</ele><time>2026-05-02T14:15:09Z</time></trkpt><trkpt lat="44.8616441657406" lon="9.110371131477638"><ele>332.0</ele><time>2026-05-02T14:15:10Z</time></trkpt><trkpt lat="44.86154367688189" lon="9.110293116735448"><ele>329.5</ele><time>2026-05-02T14:15:11Z</time></trkpt><trkpt lat="44.861423345848294" lon="9.110262620938162"><ele>327.0</ele><time>2026-05-02T14:15:12Z</time></trkpt><trkpt lat="44.86130179956598" lon="9.11025482925874"><ele>327.0</ele><time>2026-05-02T14:15:13Z</time></trkpt><trkpt lat="44.86120118708631" lon="9.11018395777067"><ele>327.0</ele><time>2026-05-02T14:15:14Z</time></trkpt><trkpt lat="44.86110869179373" lon="9.110182669235709"><ele>327.0</ele><time>2026-05-02T14:15:15Z</time></trkpt><trkpt lat="44.86102294251633" lon="9.11015805567617"><ele>327.0</ele><time>2026-05-02T14:15:16Z</time></trkpt><trkpt lat="44.860928315013744" lon="9.110230722608696"><ele>327.0</ele><time>2026-05-02T14:15:17Z</time></trkpt><trkpt lat="44.860810416957555" lon="9.11027856643151"><ele>324.5</ele><time>2026-05-02T14:15:18Z</time></trkpt><trkpt lat="44.86069442167808" lon="9.110344778596977"><ele>322.0</ele><time>2026-05-02T14:15:19Z</time></trkpt><trkpt lat="44.86058779532748" lon="9.11041382535314"><ele>319.5</ele><time>2026-05-02T14:15:20Z</time></trkpt><trkpt lat="44.86049230024266" lon="9.110505159502438"><ele>317.0</ele><time>2026-05-02T14:15:21Z</time></trkpt><trkpt lat="44.860392417811916" lon="9.11057537985952"><ele>317.0</ele><time>2026-05-02T14:15:22Z</time></trkpt><trkpt lat="44.860291833355305" lon="9.110650298835827"><ele>317.0</ele><time>2026-05-02T14:15:23Z</time></trkpt><trkpt lat="44.86018985197219" lon="9.11071461577125"><ele>317.0</ele><time>2026-05-02T14:15:24Z</time></trkpt><trkpt lat="44.86009613346962" lon="9.110774424397409"><ele>317.0</ele><time>2026-05-02T14:15:25Z</time></trkpt><trkpt lat="44.85998551181408" lon="9.110790712556597"><ele>317.0</ele><time>2026-05-02T14:15:26Z</time></trkpt><trkpt lat="44.85987258958288" lon="9.11083182737362"><ele>313.75</ele><time>2026-05-02T14:15:27Z</time></trkpt><trkpt lat="44.85975419152113" lon="9.110846645524006"><ele>310.5</ele><time>2026-05-02T14:15:28Z</time></trkpt><trkpt lat="44.85963966359012" lon="9.110863548358966"><ele>307.25</ele><time>2026-05-02T14:15:29Z</time></trkpt><trkpt lat="44.8595210540636" lon="9.110868935143717"><ele>304.0</ele><time>2026-05-02T14:15:30Z</time></trkpt><trkpt lat="44.85941724266704" lon="9.110907515971812"><ele>304.0</ele><time>2026-05-02T14:15:31Z</time></trkpt><trkpt lat="44.85934090679707" lon="9.110968471159167"><ele>304.0</ele><time>2026-05-02T14:15:32Z</time></trkpt><trkpt lat="44.85926945196715" lon="9.111007713871643"><ele>304.0</ele><time>2026-05-02T14:15:33Z</time></trkpt><trkpt lat="44.85917476219903" lon="9.111064682751083"><ele>304.0</ele><time>2026-05-02T14:15:35Z</time></trkpt><trkpt lat="44.85920350944856" lon="9.111241862997124"><ele>304.0</ele><time>2026-05-02T14:15:43Z</time></trkpt><trkpt lat="44.85926388881793" lon="9.11129213850312"><ele>304.0</ele><time>2026-05-02T14:15:45Z</time></trkpt><trkpt lat="44.8593157672497" lon="9.111361964993321"><ele>304.0</ele><time>2026-05-02T14:15:47Z</time></trkpt><trkpt lat="44.85919768859437" lon="9.111318028260666"><ele>304.0</ele><time>2026-05-02T14:15:54Z</time></trkpt><trkpt lat="44.8591917662578" lon="9.111164091469165"><ele>304.0</ele><time>2026-05-02T14:15:55Z</time></trkpt><trkpt lat="44.85913223379901" lon="9.111093395983943"><ele>304.0</ele><time>2026-05-02T14:15:57Z</time></trkpt><trkpt lat="44.85916057205576" lon="9.111183815046385"><ele>300.0</ele><time>2026-05-02T14:15:58Z</time></trkpt><trkpt lat="44.85886949519443" lon="9.111407711061206"><ele>296.0</ele><time>2026-05-02T14:15:59Z</time></trkpt><trkpt lat="44.85910406177553" lon="9.11114668664427"><ele>295.0</ele><time>2026-05-02T14:16:01Z</time></trkpt><trkpt lat="44.85861686006665" lon="9.111709980786515"><ele>295.0</ele><time>2026-05-02T14:16:05Z</time></trkpt><trkpt lat="44.858656236177" lon="9.111795534848598"><ele>295.0</ele><time>2026-05-02T14:16:08Z</time></trkpt><trkpt lat="44.85863991478614" lon="9.1118897578176"><ele>295.0</ele><time>2026-05-02T14:16:10Z</time></trkpt><trkpt lat="44.85866538540051" lon="9.112023387914679"><ele>295.0</ele><time>2026-05-02T14:16:22Z</time></trkpt><trkpt lat="44.85876198223593" lon="9.112075098926415"><ele>295.0</ele><time>2026-05-02T14:16:24Z</time></trkpt><trkpt lat="44.85884966342111" lon="9.112111005240584"><ele>295.0</ele><time>2026-05-02T14:16:27Z</time></trkpt><trkpt lat="44.8589131348539" lon="9.112211166880943"><ele>295.0</ele><time>2026-05-02T14:16:29Z</time></trkpt><trkpt lat="44.858955829695994" lon="9.112336810330243"><ele>295.0</ele><time>2026-05-02T14:16:31Z</time></trkpt><trkpt lat="44.85895227271976" lon="9.11247447373813"><ele>295.0</ele><time>2026-05-02T14:16:33Z</time></trkpt><trkpt lat="44.85900719035325" lon="9.11257616145569"><ele>295.0</ele><time>2026-05-02T14:16:35Z</time></trkpt><trkpt lat="44.85900512516951" lon="9.112670980607268"><ele>295.0</ele><time>2026-05-02T14:16:41Z</time></trkpt><trkpt lat="44.85893418527341" lon="9.112788449295564"><ele>294.8333333333333</ele><time>2026-05-02T14:16:46Z</time></trkpt><trkpt lat="44.85888509998657" lon="9.112859588009064"><ele>294.66666666666663</ele><time>2026-05-02T14:16:48Z</time></trkpt><trkpt lat="44.85881208187675" lon="9.11291051254031"><ele>294.5</ele><time>2026-05-02T14:16:57Z</time></trkpt><trkpt lat="44.85873326741401" lon="9.112892552950296"><ele>294.3333333333333</ele><time>2026-05-02T14:16:59Z</time></trkpt><trkpt lat="44.85865985381515" lon="9.112956393828858"><ele>294.1666666666667</ele><time>2026-05-02T14:17:05Z</time></trkpt><trkpt lat="44.858573877910935" lon="9.113046292133223"><ele>294.0</ele><time>2026-05-02T14:17:07Z</time></trkpt><trkpt lat="44.85850225118991" lon="9.113170335603261"><ele>296.59999999999997</ele><time>2026-05-02T14:17:09Z</time></trkpt><trkpt lat="44.858417334937286" lon="9.113302663872847"><ele>299.2</ele><time>2026-05-02T14:17:11Z</time></trkpt><trkpt lat="44.858354624329884" lon="9.113344308688692"><ele>301.79999999999995</ele><time>2026-05-02T14:17:12Z</time></trkpt><trkpt lat="44.85830284955837" lon="9.113413638161761"><ele>304.4</ele><time>2026-05-02T14:17:14Z</time></trkpt><trkpt lat="44.85822134920403" lon="9.113388898651907"><ele>307.0</ele><time>2026-05-02T14:17:37Z</time></trkpt><trkpt lat="44.8580987064108" lon="9.113392623541642"><ele>306.99999999999994</ele><time>2026-05-02T14:17:39Z</time></trkpt><trkpt lat="44.85802689247138" lon="9.113416508618828"><ele>307.0</ele><time>2026-05-02T14:17:40Z</time></trkpt><trkpt lat="44.85796698644761" lon="9.113454908727338"><ele>307.0</ele><time>2026-05-02T14:17:41Z</time></trkpt><trkpt lat="44.85789473399897" lon="9.113512537033717"><ele>307.0</ele><time>2026-05-02T14:18:07Z</time></trkpt><trkpt lat="44.85783369220724" lon="9.11354728673309"><ele>307.0</ele><time>2026-05-02T14:18:19Z</time></trkpt><trkpt lat="44.85776024375602" lon="9.113580350953756"><ele>306.99999999999994</ele><time>2026-05-02T14:18:22Z</time></trkpt><trkpt lat="44.85767860445454" lon="9.113576692247415"><ele>307.0</ele><time>2026-05-02T14:18:24Z</time></trkpt><trkpt lat="44.857582195384126" lon="9.11357114538339"><ele>309.66666666666663</ele><time>2026-05-02T14:18:26Z</time></trkpt><trkpt lat="44.857505059281706" lon="9.113576762882184"><ele>312.3333333333333</ele><time>2026-05-02T14:18:28Z</time></trkpt><trkpt lat="44.85743434464811" lon="9.113593905958002"><ele>315.0</ele><time>2026-05-02T14:18:30Z</time></trkpt><trkpt lat="44.85731151151126" lon="9.113633575844704"><ele>317.6666666666667</ele><time>2026-05-02T14:19:08Z</time></trkpt><trkpt lat="44.85724897345758" lon="9.113668231611245"><ele>320.33333333333337</ele><time>2026-05-02T14:19:09Z</time></trkpt><trkpt lat="44.857180165618615" lon="9.113724260781826"><ele>323.0</ele><time>2026-05-02T14:19:10Z</time></trkpt><trkpt lat="44.857102330584944" lon="9.113775169939283"><ele>323.0</ele><time>2026-05-02T14:19:11Z</time></trkpt><trkpt lat="44.85701932256772" lon="9.113836871975113"><ele>323.0</ele><time>2026-05-02T14:19:12Z</time></trkpt><trkpt lat="44.8569376876974" lon="9.113896702050125"><ele>323.0</ele><time>2026-05-02T14:19:13Z</time></trkpt><trkpt lat="44.85688317804194" lon="9.113945254925131"><ele>323.0</ele><time>2026-05-02T14:19:14Z</time></trkpt><trkpt lat="44.856799009281566" lon="9.114075293966408"><ele>323.0</ele><time>2026-05-02T14:19:16Z</time></trkpt><trkpt lat="44.85673639570473" lon="9.11419568455049"><ele>326.79999999999995</ele><time>2026-05-02T14:19:18Z</time></trkpt><trkpt lat="44.85672023927755" lon="9.114362766363161"><ele>330.6</ele><time>2026-05-02T14:19:20Z</time></trkpt><trkpt lat="44.85671372129879" lon="9.114455858179557"><ele>334.4</ele><time>2026-05-02T14:19:21Z</time></trkpt><trkpt lat="44.85670470667813" lon="9.114587203814617"><ele>338.20000000000005</ele><time>2026-05-02T14:19:22Z</time></trkpt><trkpt lat="44.85670138869797" lon="9.11469634027367"><ele>342.0</ele><time>2026-05-02T14:19:23Z</time></trkpt><trkpt lat="44.856677670688676" lon="9.114833314119988"><ele>343.40000000000003</ele><time>2026-05-02T14:19:24Z</time></trkpt><trkpt lat="44.85664889610426" lon="9.114945795413751"><ele>344.8</ele><time>2026-05-02T14:19:25Z</time></trkpt><trkpt lat="44.856618685639525" lon="9.11502672283566"><ele>346.2</ele><time>2026-05-02T14:19:26Z</time></trkpt><trkpt lat="44.856530812497425" lon="9.115146554154629"><ele>347.6</ele><time>2026-05-02T14:19:28Z</time></trkpt><trkpt lat="44.856444076714354" lon="9.11520602663586"><ele>349.0</ele><time>2026-05-02T14:19:30Z</time></trkpt><trkpt lat="44.85631237297366" lon="9.115203592926092"><ele>349.0</ele><time>2026-05-02T14:19:33Z</time></trkpt><trkpt lat="44.856248696696845" lon="9.115220947245799"><ele>349.0</ele><time>2026-05-02T14:19:34Z</time></trkpt><trkpt lat="44.856181028093395" lon="9.115241730606096"><ele>349.0</ele><time>2026-05-02T14:19:35Z</time></trkpt><trkpt lat="44.85610108703165" lon="9.115345208156945"><ele>349.0</ele><time>2026-05-02T14:19:37Z</time></trkpt><trkpt lat="44.85606683172214" lon="9.115430679817441"><ele>349.0</ele><time>2026-05-02T14:19:38Z</time></trkpt><trkpt lat="44.856066026599535" lon="9.115528885173456"><ele>349.0</ele><time>2026-05-02T14:19:39Z</time></trkpt><trkpt lat="44.8560700549372" lon="9.115632656342507"><ele>349.0</ele><time>2026-05-02T14:19:40Z</time></trkpt><trkpt lat="44.856076098463596" lon="9.115727576549821"><ele>349.0</ele><time>2026-05-02T14:19:41Z</time></trkpt><trkpt lat="44.856079186903244" lon="9.115820397126583"><ele>349.0</ele><time>2026-05-02T14:19:42Z</time></trkpt><trkpt lat="44.85606009331647" lon="9.11600317643097"><ele>349.0</ele><time>2026-05-02T14:19:44Z</time></trkpt><trkpt lat="44.85605522918795" lon="9.11609232756693"><ele>349.0</ele><time>2026-05-02T14:19:45Z</time></trkpt><trkpt lat="44.85602305734982" lon="9.116175473627742"><ele>349.0</ele><time>2026-05-02T14:19:50Z</time></trkpt><trkpt lat="44.85597143986837" lon="9.116232490289786"><ele>352.8333333333333</ele><time>2026-05-02T14:19:52Z</time></trkpt><trkpt lat="44.85590753033383" lon="9.116201925288909"><ele>356.66666666666663</ele><time>2026-05-02T14:19:53Z</time></trkpt><trkpt lat="44.85583460711354" lon="9.11615405550623"><ele>360.5</ele><time>2026-05-02T14:19:54Z</time></trkpt><trkpt lat="44.85575814055958" lon="9.116222778543555"><ele>364.3333333333333</ele><time>2026-05-02T14:19:56Z</time></trkpt><trkpt lat="44.855722446992026" lon="9.11636168307915"><ele>368.1666666666667</ele><time>2026-05-02T14:19:58Z</time></trkpt><trkpt lat="44.855701565731366" lon="9.116453010032"><ele>372.0</ele><time>2026-05-02T14:19:59Z</time></trkpt><trkpt lat="44.85567276116436" lon="9.116560461267161"><ele>374.40000000000003</ele><time>2026-05-02T14:20:00Z</time></trkpt><trkpt lat="44.855633836693315" lon="9.116681150566434"><ele>376.8</ele><time>2026-05-02T14:20:01Z</time></trkpt><trkpt lat="44.85558914423082" lon="9.116797050606083"><ele>379.2</ele><time>2026-05-02T14:20:02Z</time></trkpt><trkpt lat="44.855551670884374" lon="9.116900141704182"><ele>381.6</ele><time>2026-05-02T14:20:03Z</time></trkpt><trkpt lat="44.855508318637916" lon="9.11703094847159"><ele>384.0</ele><time>2026-05-02T14:20:04Z</time></trkpt><trkpt lat="44.85546149174667" lon="9.11714053984018"><ele>384.0</ele><time>2026-05-02T14:20:05Z</time></trkpt><trkpt lat="44.85540761001876" lon="9.11723005287414"><ele>384.0</ele><time>2026-05-02T14:20:06Z</time></trkpt><trkpt lat="44.85535413730841" lon="9.11734542741883"><ele>384.0</ele><time>2026-05-02T14:20:07Z</time></trkpt><trkpt lat="44.8553254648396" lon="9.117436585605981"><ele>384.0</ele><time>2026-05-02T14:20:08Z</time></trkpt><trkpt lat="44.855319585987495" lon="9.117545251368522"><ele>384.0</ele><time>2026-05-02T14:20:09Z</time></trkpt><trkpt lat="44.85531139688707" lon="9.117660478195951"><ele>384.0</ele><time>2026-05-02T14:20:10Z</time></trkpt><trkpt lat="44.855310527356494" lon="9.117802430981857"><ele>384.1666666666667</ele><time>2026-05-02T14:20:11Z</time></trkpt><trkpt lat="44.85531585267506" lon="9.117905249854667"><ele>384.33333333333337</ele><time>2026-05-02T14:20:12Z</time></trkpt><trkpt lat="44.85531952929451" lon="9.118029346781192"><ele>384.5</ele><time>2026-05-02T14:20:13Z</time></trkpt><trkpt lat="44.85530862031138" lon="9.118120577728876"><ele>384.6666666666667</ele><time>2026-05-02T14:20:14Z</time></trkpt><trkpt lat="44.85521786636466" lon="9.118150478902038"><ele>384.83333333333337</ele><time>2026-05-02T14:20:17Z</time></trkpt><trkpt lat="44.855111354632754" lon="9.11819376739059"><ele>385.0</ele><time>2026-05-02T14:20:19Z</time></trkpt><trkpt lat="44.85504531467011" lon="9.11821652306265"><ele>389.50000000000006</ele><time>2026-05-02T14:20:20Z</time></trkpt><trkpt lat="44.854978652818936" lon="9.11829327988134"><ele>394.0</ele><time>2026-05-02T14:20:22Z</time></trkpt><trkpt lat="44.85494363343102" lon="9.118382353777564"><ele>398.5</ele><time>2026-05-02T14:20:23Z</time></trkpt><trkpt lat="44.85490920343393" lon="9.118475237812941"><ele>403.0</ele><time>2026-05-02T14:20:24Z</time></trkpt><trkpt lat="44.85487145126911" lon="9.118586901655288"><ele>407.50000000000006</ele><time>2026-05-02T14:20:25Z</time></trkpt><trkpt lat="44.854816895859194" lon="9.118667993075684"><ele>412.0</ele><time>2026-05-02T14:20:27Z</time></trkpt><trkpt lat="44.854695056403045" lon="9.11862073235923"><ele>412.00000000000006</ele><time>2026-05-02T14:20:29Z</time></trkpt><trkpt lat="44.854627546850196" lon="9.118613012189083"><ele>412.0</ele><time>2026-05-02T14:20:30Z</time></trkpt><trkpt lat="44.85453316671178" lon="9.118641167218163"><ele>412.0</ele><time>2026-05-02T14:20:31Z</time></trkpt><trkpt lat="44.85446777039819" lon="9.118703923606445"><ele>412.0</ele><time>2026-05-02T14:20:32Z</time></trkpt><trkpt lat="44.854396647524275" lon="9.118752615402418"><ele>412.00000000000006</ele><time>2026-05-02T14:20:33Z</time></trkpt><trkpt lat="44.85430792836197" lon="9.118792469017391"><ele>412.0</ele><time>2026-05-02T14:20:34Z</time></trkpt><trkpt lat="44.85421216211941" lon="9.118852860417537"><ele>411.83333333333337</ele><time>2026-05-02T14:20:35Z</time></trkpt><trkpt lat="44.854141186297966" lon="9.118916853439929"><ele>411.6666666666667</ele><time>2026-05-02T14:20:36Z</time></trkpt><trkpt lat="44.85409179716408" lon="9.118978304832437"><ele>411.5</ele><time>2026-05-02T14:20:37Z</time></trkpt><trkpt lat="44.85401963929173" lon="9.119037456057363"><ele>411.33333333333337</ele><time>2026-05-02T14:20:38Z</time></trkpt><trkpt lat="44.853954435753" lon="9.119085867320166"><ele>411.1666666666667</ele><time>2026-05-02T14:20:39Z</time></trkpt><trkpt lat="44.85388541394662" lon="9.119147125114964"><ele>411.0</ele><time>2026-05-02T14:20:40Z</time></trkpt><trkpt lat="44.853825941562064" lon="9.119220380859986"><ele>414.4</ele><time>2026-05-02T14:20:41Z</time></trkpt><trkpt lat="44.85377882111301" lon="9.119313662257706"><ele>417.8</ele><time>2026-05-02T14:20:42Z</time></trkpt><trkpt lat="44.853709635946764" lon="9.119502851904315"><ele>421.19999999999993</ele><time>2026-05-02T14:20:44Z</time></trkpt><trkpt lat="44.85365647310989" lon="9.119636255045583"><ele>424.59999999999997</ele><time>2026-05-02T14:20:45Z</time></trkpt><trkpt lat="44.85360460202223" lon="9.119757542662716"><ele>428.0</ele><time>2026-05-02T14:20:46Z</time></trkpt><trkpt lat="44.853570969299184" lon="9.11983985503513"><ele>427.8333333333333</ele><time>2026-05-02T14:20:47Z</time></trkpt><trkpt lat="44.85352365538136" lon="9.120032172507388"><ele>427.66666666666663</ele><time>2026-05-02T14:20:49Z</time></trkpt><trkpt lat="44.85348832316759" lon="9.120112992512857"><ele>427.5</ele><time>2026-05-02T14:20:50Z</time></trkpt><trkpt lat="44.85343716977508" lon="9.120179316862727"><ele>427.33333333333337</ele><time>2026-05-02T14:20:51Z</time></trkpt><trkpt lat="44.8533744375007" lon="9.120247101772817"><ele>427.1666666666667</ele><time>2026-05-02T14:20:52Z</time></trkpt><trkpt lat="44.85330507295695" lon="9.120322976417219"><ele>427.0</ele><time>2026-05-02T14:20:53Z</time></trkpt><trkpt lat="44.85323682635417" lon="9.120410308373101"><ele>428.1666666666667</ele><time>2026-05-02T14:20:54Z</time></trkpt><trkpt lat="44.85318778673034" lon="9.120506268852498"><ele>429.33333333333337</ele><time>2026-05-02T14:20:55Z</time></trkpt><trkpt lat="44.853131325771784" lon="9.12063052558522"><ele>430.5</ele><time>2026-05-02T14:20:56Z</time></trkpt><trkpt lat="44.853076066772715" lon="9.120720334282106"><ele>431.66666666666663</ele><time>2026-05-02T14:20:57Z</time></trkpt><trkpt lat="44.85302324792007" lon="9.120773678628026"><ele>432.8333333333333</ele><time>2026-05-02T14:20:58Z</time></trkpt><trkpt lat="44.852949221281726" lon="9.120845881003698"><ele>434.0</ele><time>2026-05-02T14:20:59Z</time></trkpt><trkpt lat="44.85291188641032" lon="9.120977958927634"><ele>435.49999999999994</ele><time>2026-05-02T14:21:01Z</time></trkpt><trkpt lat="44.852952353989636" lon="9.121063733509802"><ele>437.0</ele><time>2026-05-02T14:21:02Z</time></trkpt><trkpt lat="44.85301024155494" lon="9.121187414960074"><ele>438.5</ele><time>2026-05-02T14:21:04Z</time></trkpt><trkpt lat="44.85299634443449" lon="9.12128654979491"><ele>440.0</ele><time>2026-05-02T14:21:07Z</time></trkpt><trkpt lat="44.85292199599461" lon="9.121320155479317"><ele>441.49999999999994</ele><time>2026-05-02T14:21:10Z</time></trkpt><trkpt lat="44.852816863195024" lon="9.121385189268402"><ele>443.0</ele><time>2026-05-02T14:21:12Z</time></trkpt><trkpt lat="44.852761266692646" lon="9.121432241502093"><ele>443.0</ele><time>2026-05-02T14:21:13Z</time></trkpt><trkpt lat="44.85264832383863" lon="9.121511534265897"><ele>442.99999999999994</ele><time>2026-05-02T14:21:15Z</time></trkpt><trkpt lat="44.852582895748235" lon="9.121558362785683"><ele>442.99999999999994</ele><time>2026-05-02T14:21:16Z</time></trkpt><trkpt lat="44.85252078073722" lon="9.12158932717217"><ele>443.0</ele><time>2026-05-02T14:21:18Z</time></trkpt><trkpt lat="44.85243506959905" lon="9.121672038121412"><ele>443.0</ele><time>2026-05-02T14:21:40Z</time></trkpt><trkpt lat="44.85236944080637" lon="9.12175323742941"><ele>446.4</ele><time>2026-05-02T14:21:42Z</time></trkpt><trkpt lat="44.852359335741866" lon="9.121864033648752"><ele>449.79999999999995</ele><time>2026-05-02T14:21:44Z</time></trkpt><trkpt lat="44.852440240639766" lon="9.122030610673212"><ele>453.2</ele><time>2026-05-02T14:21:46Z</time></trkpt><trkpt lat="44.85248771170152" lon="9.12213209611865"><ele>456.6</ele><time>2026-05-02T14:21:47Z</time></trkpt><trkpt lat="44.85252031471999" lon="9.122226222583766"><ele>460.0</ele><time>2026-05-02T14:21:48Z</time></trkpt><trkpt lat="44.852530597324545" lon="9.122331856391542"><ele>462.6</ele><time>2026-05-02T14:21:50Z</time></trkpt><trkpt lat="44.85246609300442" lon="9.122414742031456"><ele>465.2</ele><time>2026-05-02T14:21:53Z</time></trkpt><trkpt lat="44.85234730420248" lon="9.122459189038121"><ele>467.79999999999995</ele><time>2026-05-02T14:21:55Z</time></trkpt><trkpt lat="44.85226220903114" lon="9.122478460034243"><ele>470.4</ele><time>2026-05-02T14:21:56Z</time></trkpt><trkpt lat="44.85218732067945" lon="9.122511747385518"><ele>473.0</ele><time>2026-05-02T14:21:57Z</time></trkpt><trkpt lat="44.85208091429276" lon="9.12254889356339"><ele>473.0</ele><time>2026-05-02T14:21:59Z</time></trkpt><trkpt lat="44.85203412691514" lon="9.12261557524599"><ele>473.0</ele><time>2026-05-02T14:22:03Z</time></trkpt><trkpt lat="44.85215625316938" lon="9.122841975850978"><ele>473.0</ele><time>2026-05-02T14:22:06Z</time></trkpt><trkpt lat="44.852274697075174" lon="9.122903405799327"><ele>473.0</ele><time>2026-05-02T14:22:07Z</time></trkpt><trkpt lat="44.85237488075345" lon="9.123000706245541"><ele>473.0</ele><time>2026-05-02T14:22:08Z</time></trkpt><trkpt lat="44.85246658589288" lon="9.123108730529228"><ele>472.99999999999994</ele><time>2026-05-02T14:22:09Z</time></trkpt><trkpt lat="44.852529558618365" lon="9.123184921953852"><ele>472.99999999999994</ele><time>2026-05-02T14:22:10Z</time></trkpt><trkpt lat="44.85259730478328" lon="9.123271173035805"><ele>473.0</ele><time>2026-05-02T14:22:11Z</time></trkpt><trkpt lat="44.85267862146834" lon="9.123361515753526"><ele>473.0</ele><time>2026-05-02T14:22:12Z</time></trkpt><trkpt lat="44.85276210675176" lon="9.123449015300068"><ele>473.59999999999997</ele><time>2026-05-02T14:22:13Z</time></trkpt><trkpt lat="44.85284092069286" lon="9.123524445949535"><ele>474.19999999999993</ele><time>2026-05-02T14:22:14Z</time></trkpt><trkpt lat="44.8529061011824" lon="9.123590341561682"><ele>474.8</ele><time>2026-05-02T14:22:15Z</time></trkpt><trkpt lat="44.852978452439906" lon="9.123639788357941"><ele>475.4</ele><time>2026-05-02T14:22:16Z</time></trkpt><trkpt lat="44.853102034546495" lon="9.12375286727747"><ele>476.0</ele><time>2026-05-02T14:22:18Z</time></trkpt><trkpt lat="44.8531676375639" lon="9.123778480126758"><ele>476.0</ele><time>2026-05-02T14:22:19Z</time></trkpt><trkpt lat="44.85325200281837" lon="9.123771176410411"><ele>476.0</ele><time>2026-05-02T14:22:20Z</time></trkpt><trkpt lat="44.85336051355717" lon="9.123757458847377"><ele>476.0</ele><time>2026-05-02T14:22:21Z</time></trkpt><trkpt lat="44.853479390967806" lon="9.123773920185508"><ele>476.0</ele><time>2026-05-02T14:22:22Z</time></trkpt><trkpt lat="44.85359743937307" lon="9.123817584917886"><ele>476.0</ele><time>2026-05-02T14:22:23Z</time></trkpt><trkpt lat="44.85369353166211" lon="9.123858122687176"><ele>477.0</ele><time>2026-05-02T14:22:24Z</time></trkpt><trkpt lat="44.85380033000313" lon="9.123916472226336"><ele>478.0</ele><time>2026-05-02T14:22:25Z</time></trkpt><trkpt lat="44.85389910640728" lon="9.12397472135225"><ele>479.0</ele><time>2026-05-02T14:22:26Z</time></trkpt><trkpt lat="44.85399004833306" lon="9.124051739424843"><ele>480.0</ele><time>2026-05-02T14:22:27Z</time></trkpt><trkpt lat="44.8540853816812" lon="9.12411154776999"><ele>481.0</ele><time>2026-05-02T14:22:28Z</time></trkpt><trkpt lat="44.85418371706626" lon="9.124182557324168"><ele>481.0</ele><time>2026-05-02T14:22:29Z</time></trkpt><trkpt lat="44.85427823645094" lon="9.124268014629486"><ele>481.0</ele><time>2026-05-02T14:22:30Z</time></trkpt><trkpt lat="44.85437603848075" lon="9.124333347976801"><ele>481.0</ele><time>2026-05-02T14:22:31Z</time></trkpt><trkpt lat="44.85446023599918" lon="9.124383160978466"><ele>481.0</ele><time>2026-05-02T14:22:32Z</time></trkpt><trkpt lat="44.85454320922045" lon="9.12442436861794"><ele>481.0</ele><time>2026-05-02T14:22:33Z</time></trkpt><trkpt lat="44.85462649300444" lon="9.124477111653077"><ele>478.8</ele><time>2026-05-02T14:22:34Z</time></trkpt><trkpt lat="44.85470194004247" lon="9.124530491190233"><ele>476.6</ele><time>2026-05-02T14:22:35Z</time></trkpt><trkpt lat="44.85476694574643" lon="9.124562514447947"><ele>474.4</ele><time>2026-05-02T14:22:36Z</time></trkpt><trkpt lat="44.854868947270376" lon="9.124593557723395"><ele>472.2</ele><time>2026-05-02T14:22:38Z</time></trkpt><trkpt lat="44.85497436071775" lon="9.124613610370247"><ele>470.0</ele><time>2026-05-02T14:22:40Z</time></trkpt><trkpt lat="44.85499908082976" lon="9.124826930836925"><ele>472.16666666666663</ele><time>2026-05-02T14:22:46Z</time></trkpt><trkpt lat="44.854961716140274" lon="9.124936553963344"><ele>474.3333333333333</ele><time>2026-05-02T14:22:47Z</time></trkpt><trkpt lat="44.854930594514734" lon="9.125025433894518"><ele>476.5</ele><time>2026-05-02T14:22:48Z</time></trkpt><trkpt lat="44.85483839218356" lon="9.125044358458197"><ele>478.66666666666663</ele><time>2026-05-02T14:22:50Z</time></trkpt><trkpt lat="44.85476953289969" lon="9.125011189946775"><ele>480.8333333333333</ele><time>2026-05-02T14:22:51Z</time></trkpt><trkpt lat="44.85470103835955" lon="9.125026629461034"><ele>483.0</ele><time>2026-05-02T14:22:52Z</time></trkpt><trkpt lat="44.85467125951722" lon="9.125169732497792"><ele>483.0</ele><time>2026-05-02T14:23:06Z</time></trkpt><trkpt lat="44.85470887418678" lon="9.125279567162677"><ele>483.0</ele><time>2026-05-02T14:23:07Z</time></trkpt><trkpt lat="44.854726405050236" lon="9.125374871298257"><ele>483.0</ele><time>2026-05-02T14:23:08Z</time></trkpt><trkpt lat="44.85475723161492" lon="9.125452734385401"><ele>483.0</ele><time>2026-05-02T14:23:09Z</time></trkpt><trkpt lat="44.85483342155955" lon="9.125527555538872"><ele>483.0</ele><time>2026-05-02T14:23:13Z</time></trkpt><trkpt lat="44.85492810897336" lon="9.125568953319231"><ele>483.0</ele><time>2026-05-02T14:23:15Z</time></trkpt><trkpt lat="44.85502333141157" lon="9.125628033013788"><ele>481.59999999999997</ele><time>2026-05-02T14:23:17Z</time></trkpt><trkpt lat="44.85513317829782" lon="9.125688203951123"><ele>480.19999999999993</ele><time>2026-05-02T14:23:19Z</time></trkpt><trkpt lat="44.85518514843679" lon="9.125755310965252"><ele>478.8</ele><time>2026-05-02T14:23:21Z</time></trkpt><trkpt lat="44.855165601123375" lon="9.125873720272605"><ele>477.4</ele><time>2026-05-02T14:23:24Z</time></trkpt><trkpt lat="44.85519155788889" lon="9.126011790868283"><ele>476.0</ele><time>2026-05-02T14:23:26Z</time></trkpt><trkpt lat="44.85519627313542" lon="9.126168695033256"><ele>476.0</ele><time>2026-05-02T14:23:28Z</time></trkpt><trkpt lat="44.85519522412036" lon="9.12632853808284"><ele>476.0</ele><time>2026-05-02T14:23:30Z</time></trkpt><trkpt lat="44.8552136146551" lon="9.126420313560999"><ele>476.0</ele><time>2026-05-02T14:23:31Z</time></trkpt><trkpt lat="44.855235192792016" lon="9.126548341128862"><ele>476.0</ele><time>2026-05-02T14:23:33Z</time></trkpt><trkpt lat="44.85530829206677" lon="9.126681661724101"><ele>476.0</ele><time>2026-05-02T14:23:35Z</time></trkpt><trkpt lat="44.85534906846663" lon="9.126751785531852"><ele>474.0</ele><time>2026-05-02T14:23:36Z</time></trkpt><trkpt lat="44.85537247528475" lon="9.126929320641167"><ele>472.0</ele><time>2026-05-02T14:23:38Z</time></trkpt><trkpt lat="44.85545755331242" lon="9.127095340760409"><ele>470.0</ele><time>2026-05-02T14:23:40Z</time></trkpt><trkpt lat="44.85549971589833" lon="9.127178221686261"><ele>468.0</ele><time>2026-05-02T14:23:41Z</time></trkpt><trkpt lat="44.85552016510142" lon="9.12728781009228"><ele>466.0</ele><time>2026-05-02T14:23:42Z</time></trkpt><trkpt lat="44.85552049701941" lon="9.127384756262568"><ele>465.0</ele><time>2026-05-02T14:23:43Z</time></trkpt><trkpt lat="44.85549887268394" lon="9.127493578174372"><ele>464.0</ele><time>2026-05-02T14:23:46Z</time></trkpt><trkpt lat="44.85541046268947" lon="9.127534691837917"><ele>463.0</ele><time>2026-05-02T14:23:49Z</time></trkpt><trkpt lat="44.85530436339281" lon="9.127633590222317"><ele>462.0</ele><time>2026-05-02T14:23:51Z</time></trkpt><trkpt lat="44.85524581252659" lon="9.127685963959806"><ele>461.0</ele><time>2026-05-02T14:23:52Z</time></trkpt><trkpt lat="44.85518340397828" lon="9.127787504465452"><ele>460.99999999999994</ele><time>2026-05-02T14:23:54Z</time></trkpt><trkpt lat="44.855157649976974" lon="9.12787120313529"><ele>461.0</ele><time>2026-05-02T14:24:02Z</time></trkpt><trkpt lat="44.855094247793836" lon="9.127941886204548"><ele>461.0</ele><time>2026-05-02T14:24:15Z</time></trkpt><trkpt lat="44.85517168387896" lon="9.12781858989277"><ele>461.0</ele><time>2026-05-02T14:25:45Z</time></trkpt><trkpt lat="44.85521732989973" lon="9.127719461875623"><ele>460.99999999999994</ele><time>2026-05-02T14:25:48Z</time></trkpt><trkpt lat="44.85526182483895" lon="9.127653155362486"><ele>461.0</ele><time>2026-05-02T14:25:50Z</time></trkpt><trkpt lat="44.85534499942624" lon="9.127552671043032"><ele>460.99999999999994</ele><time>2026-05-02T14:25:53Z</time></trkpt><trkpt lat="44.855417142264" lon="9.127525114678363"><ele>461.0</ele><time>2026-05-02T14:25:55Z</time></trkpt><trkpt lat="44.855447659979006" lon="9.127443678869582"><ele>461.0</ele><time>2026-05-02T14:25:59Z</time></trkpt><trkpt lat="44.85551449939533" lon="9.127483651029932"><ele>461.0</ele><time>2026-05-02T14:26:04Z</time></trkpt><trkpt lat="44.85555093460037" lon="9.127605483483633"><ele>460.99999999999994</ele><time>2026-05-02T14:26:06Z</time></trkpt><trkpt lat="44.85555470898365" lon="9.12771970398445"><ele>461.0</ele><time>2026-05-02T14:26:08Z</time></trkpt><trkpt lat="44.85555409047856" lon="9.127859625308103"><ele>461.0</ele><time>2026-05-02T14:26:10Z</time></trkpt><trkpt lat="44.8555570997075" lon="9.127963771490565"><ele>461.00000000000006</ele><time>2026-05-02T14:26:12Z</time></trkpt><trkpt lat="44.85550575981233" lon="9.128044186904175"><ele>461.0</ele><time>2026-05-02T14:26:14Z</time></trkpt><trkpt lat="44.855438335712535" lon="9.128082792147733"><ele>461.0</ele><time>2026-05-02T14:26:18Z</time></trkpt><trkpt lat="44.85542778261291" lon="9.128179365249014"><ele>461.00000000000006</ele><time>2026-05-02T14:26:20Z</time></trkpt><trkpt lat="44.85545263010543" lon="9.128280345420935"><ele>461.0</ele><time>2026-05-02T14:26:23Z</time></trkpt><trkpt lat="44.855521211489766" lon="9.128320847291638"><ele>461.0</ele><time>2026-05-02T14:26:26Z</time></trkpt><trkpt lat="44.85557305389016" lon="9.12840562440371"><ele>461.16666666666663</ele><time>2026-05-02T14:26:31Z</time></trkpt><trkpt lat="44.85561496546561" lon="9.128485583275369"><ele>461.3333333333333</ele><time>2026-05-02T14:26:35Z</time></trkpt><trkpt lat="44.8556428248428" lon="9.12859575160511"><ele>461.5</ele><time>2026-05-02T14:26:38Z</time></trkpt><trkpt lat="44.8557132383353" lon="9.128661937418027"><ele>461.66666666666663</ele><time>2026-05-02T14:26:40Z</time></trkpt><trkpt lat="44.85577676773844" lon="9.128690004284818"><ele>461.8333333333333</ele><time>2026-05-02T14:26:41Z</time></trkpt><trkpt lat="44.85584822894892" lon="9.12868164928003"><ele>462.0</ele><time>2026-05-02T14:26:42Z</time></trkpt><trkpt lat="44.85596921981355" lon="9.128722393138775"><ele>458.8333333333333</ele><time>2026-05-02T14:26:43Z</time></trkpt><trkpt lat="44.85605079911654" lon="9.12875989026707"><ele>455.66666666666663</ele><time>2026-05-02T14:26:44Z</time></trkpt><trkpt lat="44.856111097312365" lon="9.128799834954387"><ele>452.5</ele><time>2026-05-02T14:26:46Z</time></trkpt><trkpt lat="44.85615302950672" lon="9.128930166855328"><ele>449.3333333333333</ele><time>2026-05-02T14:26:49Z</time></trkpt><trkpt lat="44.856199388678995" lon="9.129011814433918"><ele>446.16666666666663</ele><time>2026-05-02T14:26:51Z</time></trkpt><trkpt lat="44.856205759448095" lon="9.12911308563842"><ele>443.0</ele><time>2026-05-02T14:26:53Z</time></trkpt><trkpt lat="44.85620122159314" lon="9.129229734934798"><ele>443.0</ele><time>2026-05-02T14:26:55Z</time></trkpt><trkpt lat="44.85621210131708" lon="9.129350485950464"><ele>442.99999999999994</ele><time>2026-05-02T14:26:57Z</time></trkpt><trkpt lat="44.85620992642518" lon="9.129476931900282"><ele>442.99999999999994</ele><time>2026-05-02T14:26:59Z</time></trkpt><trkpt lat="44.85626563903741" lon="9.129644734215034"><ele>443.0</ele><time>2026-05-02T14:27:01Z</time></trkpt><trkpt lat="44.85629116392466" lon="9.129795486417262"><ele>443.0</ele><time>2026-05-02T14:27:03Z</time></trkpt><trkpt lat="44.8563286925131" lon="9.129876934532874"><ele>443.0</ele><time>2026-05-02T14:27:07Z</time></trkpt><trkpt lat="44.85639111588604" lon="9.129976754555184"><ele>442.99999999999994</ele><time>2026-05-02T14:27:09Z</time></trkpt><trkpt lat="44.85647028659147" lon="9.129990885951944"><ele>442.99999999999994</ele><time>2026-05-02T14:27:11Z</time></trkpt><trkpt lat="44.85658347749305" lon="9.129949482232016"><ele>443.0</ele><time>2026-05-02T14:27:13Z</time></trkpt><trkpt lat="44.85667150017193" lon="9.129911489124973"><ele>443.0</ele><time>2026-05-02T14:27:15Z</time></trkpt><trkpt lat="44.85678381838276" lon="9.129851920542484"><ele>438.79999999999995</ele><time>2026-05-02T14:27:17Z</time></trkpt><trkpt lat="44.856897711229074" lon="9.12985483512517"><ele>434.59999999999997</ele><time>2026-05-02T14:27:21Z</time></trkpt><trkpt lat="44.85699490821703" lon="9.129825629624296"><ele>430.4</ele><time>2026-05-02T14:27:23Z</time></trkpt><trkpt lat="44.85709479484051" lon="9.1297131568071"><ele>426.20000000000005</ele><time>2026-05-02T14:27:25Z</time></trkpt><trkpt lat="44.85715691119841" lon="9.129666761885298"><ele>422.0</ele><time>2026-05-02T14:27:26Z</time></trkpt><trkpt lat="44.85722004603461" lon="9.129628354433468"><ele>422.0</ele><time>2026-05-02T14:27:27Z</time></trkpt><trkpt lat="44.85731780258368" lon="9.129556035349088"><ele>422.0</ele><time>2026-05-02T14:27:29Z</time></trkpt><trkpt lat="44.857383773493716" lon="9.129451858892951"><ele>422.0</ele><time>2026-05-02T14:27:31Z</time></trkpt><trkpt lat="44.857458730918594" lon="9.12956411578028"><ele>422.0</ele><time>2026-05-02T14:27:33Z</time></trkpt><trkpt lat="44.85751823178638" lon="9.12965774894599"><ele>422.0</ele><time>2026-05-02T14:27:34Z</time></trkpt><trkpt lat="44.857573849486705" lon="9.129700305835815"><ele>420.16666666666663</ele><time>2026-05-02T14:27:35Z</time></trkpt><trkpt lat="44.857655523381474" lon="9.129756614855342"><ele>418.3333333333333</ele><time>2026-05-02T14:27:37Z</time></trkpt><trkpt lat="44.85769909224286" lon="9.129880552789855"><ele>416.5</ele><time>2026-05-02T14:27:39Z</time></trkpt><trkpt lat="44.857736064687394" lon="9.129998542729155"><ele>414.66666666666663</ele><time>2026-05-02T14:27:40Z</time></trkpt><trkpt lat="44.857763259145045" lon="9.130109844526283"><ele>412.8333333333333</ele><time>2026-05-02T14:27:41Z</time></trkpt><trkpt lat="44.85778068053082" lon="9.13021034240202"><ele>411.0</ele><time>2026-05-02T14:27:42Z</time></trkpt><trkpt lat="44.8578136596562" lon="9.130368883865295"><ele>410.6666666666667</ele><time>2026-05-02T14:27:44Z</time></trkpt><trkpt lat="44.85779465253802" lon="9.1305443779163"><ele>410.33333333333337</ele><time>2026-05-02T14:27:46Z</time></trkpt><trkpt lat="44.85780650360243" lon="9.130637950837063"><ele>410.0</ele><time>2026-05-02T14:27:47Z</time></trkpt><trkpt lat="44.85783642924903" lon="9.130724246832164"><ele>409.6666666666667</ele><time>2026-05-02T14:27:48Z</time></trkpt><trkpt lat="44.85784961252253" lon="9.130819196881978"><ele>409.33333333333337</ele><time>2026-05-02T14:27:49Z</time></trkpt><trkpt lat="44.857867900804756" lon="9.130908923566285"><ele>409.0</ele><time>2026-05-02T14:27:50Z</time></trkpt><trkpt lat="44.85788309327165" lon="9.131054918405344"><ele>409.0</ele><time>2026-05-02T14:27:52Z</time></trkpt><trkpt lat="44.85784239811412" lon="9.131197719222637"><ele>409.0</ele><time>2026-05-02T14:27:54Z</time></trkpt><trkpt lat="44.85776530120753" lon="9.13135497620609"><ele>409.0</ele><time>2026-05-02T14:27:56Z</time></trkpt><trkpt lat="44.85772100220052" lon="9.13144930900262"><ele>409.0</ele><time>2026-05-02T14:27:57Z</time></trkpt><trkpt lat="44.85767455376836" lon="9.131582101337862"><ele>409.0</ele><time>2026-05-02T14:27:58Z</time></trkpt><trkpt lat="44.85764581244903" lon="9.131674870360587"><ele>411.33333333333337</ele><time>2026-05-02T14:27:59Z</time></trkpt><trkpt lat="44.85762010218897" lon="9.131759887958934"><ele>413.6666666666667</ele><time>2026-05-02T14:28:00Z</time></trkpt><trkpt lat="44.85763759103211" lon="9.131855975713407"><ele>416.0</ele><time>2026-05-02T14:28:43Z</time></trkpt><trkpt lat="44.85756079087713" lon="9.131912620833328"><ele>418.33333333333337</ele><time>2026-05-02T14:28:53Z</time></trkpt><trkpt lat="44.85749204714358" lon="9.131995828984554"><ele>420.6666666666667</ele><time>2026-05-02T14:28:55Z</time></trkpt><trkpt lat="44.85743146824815" lon="9.132065535872318"><ele>423.0</ele><time>2026-05-02T14:28:58Z</time></trkpt><trkpt lat="44.85744202062521" lon="9.132188031536097"><ele>423.0</ele><time>2026-05-02T14:29:27Z</time></trkpt><trkpt lat="44.85737649164722" lon="9.132260026493027"><ele>423.0</ele><time>2026-05-02T14:29:35Z</time></trkpt><trkpt lat="44.85735925138854" lon="9.13234712843549"><ele>423.0</ele><time>2026-05-02T14:29:40Z</time></trkpt><trkpt lat="44.85732839369992" lon="9.132443034014461"><ele>423.0</ele><time>2026-05-02T14:29:49Z</time></trkpt><trkpt lat="44.857355662105576" lon="9.13235928968229"><ele>423.0</ele><time>2026-05-02T14:31:37Z</time></trkpt><trkpt lat="44.857374201420946" lon="9.132271689802504"><ele>423.0</ele><time>2026-05-02T14:32:15Z</time></trkpt><trkpt lat="44.85740630525676" lon="9.13219124201749"><ele>423.0</ele><time>2026-05-02T14:32:22Z</time></trkpt><trkpt lat="44.8574431646604" lon="9.132102468973397"><ele>423.0</ele><time>2026-05-02T14:32:28Z</time></trkpt></trkseg></trk></gpx>